GFSSGP_925_thetae_000.txt.gz
Theta_e
322 322 324 324 320 316 318 321 317 318 318 315 316 318 317 319 321 321 324 328 327 328 328 329 332 332 334 335 335 335 335 336 336 334 335 334 334 333 332 333 333 333 333 334 334 333 333 334 335
321 322 323 317 321 320 319 316 317 316 315 313 315 316 316 319 316 317 323 326 326 325 325 325 327 327 330 332 332 332 334 333 332 332 331 331 331 331 330 329 329 330 331 331 330 330 328 328 329
320 320 321 320 318 320 318 315 314 316 314 314 315 314 314 317 315 317 320 325 325 323 321 322 324 324 323 325 329 330 330 331 331 329 328 328 327 325 323 321 321 321 323 325 323 320 319 319 321
320 316 312 318 321 318 316 314 313 314 315 314 314 316 313 314 316 318 320 323 324 323 321 322 326 328 324 321 328 328 328 328 326 324 324 322 320 317 315 315 314 312 314 315 314 313 309 303 303
317 313 318 319 316 314 313 313 310 313 313 313 313 314 313 312 315 317 320 322 322 322 320 320 326 326 324 323 325 324 325 321 319 318 316 314 312 311 310 310 308 306 307 310 310 309 306 306 306
315 311 316 318 317 317 314 312 312 313 313 313 314 313 312 311 315 316 319 320 321 320 319 319 322 322 321 320 318 315 319 315 310 307 307 307 305 302 302 300 299 302 306 306 306 306 308 309 309
317 317 319 317 318 317 315 309 312 312 312 312 311 313 311 307 314 316 317 319 319 319 318 318 318 318 317 314 309 308 312 311 310 309 309 305 300 297 297 299 302 306 308 307 306 304 300 300 300
313 312 316 315 316 317 315 313 313 311 312 310 309 312 312 308 312 313 316 317 317 317 317 316 315 314 311 309 306 307 308 306 307 304 300 298 297 296 296 297 299 306 304 301 301 297 296 296 296
313 312 313 315 318 316 314 314 313 311 313 312 310 310 310 310 309 309 311 315 316 316 316 314 313 311 308 307 307 309 305 302 300 300 298 297 297 296 296 297 297 297 297 297 297 296 295 295 295
315 313 313 313 316 315 315 312 313 313 311 310 311 308 308 308 306 304 303 304 313 315 315 314 310 309 307 305 305 304 302 298 297 298 298 298 297 297 297 297 296 296 296 295 295 295 295 295 295
315 314 314 316 316 314 315 313 311 311 311 309 310 309 304 304 303 303 303 303 305 310 311 311 310 307 304 301 301 301 299 297 297 298 299 297 297 297 296 296 296 296 295 295 295 295 295 294 294
317 314 314 316 317 314 315 313 312 309 314 310 308 308 303 302 302 303 303 303 303 304 306 306 307 305 303 302 299 298 297 297 299 299 298 297 297 296 296 296 296 295 295 295 295 295 294 294 294
316 316 315 314 313 313 313 312 312 311 309 307 307 306 304 304 304 304 305 305 303 302 303 305 305 304 303 302 300 297 297 299 299 298 297 297 296 296 296 296 296 295 295 295 295 295 294 294 293
314 315 314 312 313 313 314 313 313 313 311 308 308 308 304 304 304 304 303 303 304 304 303 303 303 303 303 302 301 298 298 298 298 297 297 297 296 296 295 296 295 295 294 294 294 294 294 293 293
314 314 311 312 312 312 311 313 312 313 312 309 308 306 306 304 305 304 306 304 305 305 304 303 303 302 302 301 300 299 299 298 298 297 296 297 295 295 295 295 295 294 294 294 293 293 293 292 292
314 313 312 312 310 312 311 314 312 310 310 310 309 307 305 306 305 307 307 306 305 304 305 304 303 302 301 301 300 298 298 298 298 297 295 296 295 294 295 295 294 294 293 293 293 293 293 292 292
310 310 310 311 311 312 311 313 312 310 308 309 309 307 307 307 305 307 307 308 307 306 305 304 303 302 301 300 300 298 298 298 298 297 295 294 294 294 294 294 294 293 293 293 293 292 292 291 291
311 310 310 311 312 311 311 312 313 311 308 307 307 305 304 305 307 310 308 308 308 307 305 304 302 301 300 300 299 298 298 298 297 296 296 294 293 293 293 293 293 293 293 293 292 291 290 290 289
309 309 310 309 310 313 312 312 313 313 310 307 308 310 311 310 310 309 310 310 307 305 303 302 300 300 300 299 298 298 297 297 296 296 295 294 293 292 293 292 292 292 292 292 291 290 289 289 289
311 311 311 311 310 309 310 311 311 310 312 312 311 311 310 310 310 304 306 307 306 305 303 301 300 299 299 298 297 296 296 296 296 295 294 294 292 292 292 292 292 291 291 290 290 290 289 289 288
311 312 312 312 310 308 308 311 309 308 309 310 308 309 311 311 312 306 301 304 303 302 301 300 299 299 298 298 297 296 295 294 294 293 293 292 292 291 291 291 291 290 290 289 289 289 289 288 287
313 310 311 310 311 312 309 314 310 309 309 309 309 309 309 309 308 306 301 299 301 301 299 298 298 298 298 297 296 295 295 294 292 292 292 292 291 291 291 291 290 290 289 288 288 288 289 288 287
313 310 309 310 310 310 311 312 312 308 309 309 310 308 308 309 304 303 300 302 301 300 298 298 298 298 297 297 296 295 294 294 293 292 292 291 290 290 289 289 289 289 289 288 287 287 288 288 287
308 310 309 307 308 312 311 311 312 308 309 309 308 308 308 309 304 302 301 301 299 298 297 297 297 297 296 296 295 295 294 294 292 291 291 290 290 289 288 289 288 288 288 288 287 287 287 287 286
310 310 311 310 309 314 309 308 313 310 310 308 309 309 308 307 302 301 299 298 296 296 296 296 296 295 296 296 296 295 295 294 293 292 291 289 289 289 288 288 288 287 287 287 286 286 286 286 285
308 310 314 312 312 314 305 310 312 308 308 307 307 306 304 304 302 301 299 298 297 296 295 295 295 295 295 295 295 294 294 293 292 292 291 290 289 289 288 288 287 287 287 286 286 286 285 285 284
308 310 310 312 297 307 312 310 310 309 309 307 306 305 304 303 302 301 298 297 297 296 295 296 295 295 295 294 294 293 293 292 292 292 291 291 290 289 289 288 287 286 286 286 286 285 284 284 283
308 308 311 310 314 312 310 311 313 311 311 307 306 306 304 302 303 301 298 296 297 297 296 296 296 295 295 294 294 293 293 293 292 291 291 290 290 289 289 288 286 286 285 285 284 284 283 283 282
308 309 308 310 314 317 317 315 308 308 308 308 306 307 303 302 303 301 299 298 298 298 297 296 296 295 295 295 294 293 293 292 291 291 291 291 290 290 289 288 286 285 285 284 283 283 282 283 282
305 309 310 313 314 311 314 314 313 312 311 310 309 306 305 302 302 301 301 298 297 297 296 296 295 295 296 296 294 293 292 291 291 291 290 290 289 289 289 287 286 285 284 283 282 282 281 282 281

GFSSGP_925_thetae_003.txt.gz
Theta_e
321 322 323 322 319 316 318 318 315 317 317 315 315 315 316 317 319 319 322 328 329 331 331 332 333 336 337 336 336 336 336 337 338 337 337 335 335 334 334 334 334 335 335 335 333 332 332 334 334
321 322 323 315 321 317 316 315 315 314 314 313 314 314 316 318 317 319 324 327 329 330 330 330 331 332 335 336 335 335 336 336 334 333 333 332 332 332 331 330 331 331 332 331 329 326 326 327 327
320 320 320 318 316 320 317 314 313 315 312 313 314 313 314 316 314 318 323 327 327 328 327 326 328 331 333 334 334 334 335 334 331 330 331 330 329 327 325 324 325 326 327 326 324 323 321 319 319
320 315 310 319 322 318 316 314 312 314 314 312 313 314 311 314 316 317 321 326 326 325 325 325 326 330 332 331 332 331 332 330 331 329 328 327 324 321 318 316 316 317 317 314 310 305 303 301 301
316 311 315 317 316 313 311 311 310 313 313 313 312 313 313 312 314 317 320 325 325 323 321 323 327 330 329 326 329 328 329 329 327 327 324 321 318 316 312 309 310 308 306 304 301 299 299 300 304
313 310 316 316 315 315 313 311 310 312 312 311 312 312 311 310 313 317 320 323 324 323 321 320 326 327 327 328 328 328 327 325 322 321 319 317 315 314 313 312 311 311 311 310 309 305 301 299 299
316 315 317 314 316 316 315 308 312 312 312 311 310 313 310 308 313 316 319 321 323 322 320 319 322 324 324 325 324 324 324 321 319 317 316 314 310 309 308 305 310 311 311 310 306 299 298 298 297
312 312 316 313 315 316 314 310 312 310 311 308 308 312 312 310 313 316 319 321 321 321 320 319 320 320 320 320 319 319 321 318 316 315 313 310 303 299 298 299 308 309 307 305 299 297 297 297 297
309 310 312 313 315 316 313 313 312 310 311 310 308 309 308 309 313 317 318 318 319 320 319 318 318 317 317 316 315 315 316 313 312 312 308 299 297 297 297 299 304 303 302 302 298 296 296 296 296
314 309 310 310 314 315 314 312 312 312 311 309 310 308 307 308 310 311 311 313 317 318 319 318 317 316 315 313 312 310 309 309 308 305 301 299 297 296 298 298 298 297 297 296 296 296 296 296 296
314 314 312 314 313 314 314 312 310 311 311 308 309 309 304 304 304 306 308 311 314 316 317 317 317 315 314 311 310 309 308 306 305 303 299 298 297 296 296 297 296 297 297 297 296 296 296 296 295
316 313 312 314 315 315 314 312 311 308 314 310 307 308 303 303 302 303 304 306 309 313 315 316 316 314 313 309 307 307 306 305 301 299 299 298 296 297 296 296 297 297 297 296 296 296 295 295 294
315 315 314 312 313 312 312 311 312 310 310 306 306 305 304 303 304 305 305 305 304 305 310 313 315 314 312 309 306 304 304 302 298 298 299 298 297 297 296 296 296 296 296 296 295 295 294 294 294
313 313 313 312 312 312 314 314 312 312 309 309 307 306 303 303 304 304 305 304 305 304 305 307 310 312 311 308 304 302 302 300 297 298 299 298 297 297 296 296 296 296 296 296 295 295 295 295 294
313 313 310 309 310 312 310 312 310 312 311 308 306 305 305 303 304 304 306 305 306 306 304 305 305 307 308 307 304 302 300 298 298 299 298 298 297 296 296 296 296 295 295 295 295 295 295 294 294
312 311 311 310 309 311 310 311 312 308 309 309 308 306 305 305 305 306 307 307 306 305 306 305 304 304 305 305 304 302 300 297 298 298 298 297 297 296 295 295 295 295 294 294 294 294 293 293 294
308 310 309 310 309 311 310 311 310 310 307 308 307 307 307 307 305 306 308 308 307 307 305 305 303 303 303 303 303 302 301 298 298 298 297 297 297 296 295 295 295 294 294 293 293 293 293 293 293
310 309 308 309 310 310 311 310 310 310 307 307 308 308 309 309 309 310 309 309 308 307 306 305 303 301 301 301 301 301 300 298 298 298 298 296 296 295 294 294 294 293 293 292 292 292 292 292 292
308 308 308 308 308 311 310 311 311 311 310 311 311 308 310 309 310 310 310 309 308 307 305 304 302 300 299 299 298 298 298 298 298 298 298 296 295 295 293 293 293 292 292 292 292 291 291 290 291
309 310 311 311 310 308 309 310 309 308 310 310 311 311 310 310 309 308 306 307 307 308 305 302 301 300 299 299 298 297 296 297 298 298 297 296 295 294 293 293 293 292 292 291 291 291 290 290 289
309 310 311 311 309 307 306 311 309 307 306 308 309 309 309 309 309 309 303 303 306 305 305 303 301 300 298 298 297 297 296 296 296 296 297 296 295 293 292 292 292 292 291 292 291 290 289 289 288
312 308 310 310 310 312 308 312 310 309 309 308 308 308 307 308 308 306 304 300 304 306 304 302 300 299 298 298 297 296 296 295 295 295 296 295 294 293 292 291 291 291 291 291 291 290 289 289 288
311 308 308 308 308 309 310 309 311 309 309 307 307 307 307 307 306 306 302 302 305 304 303 301 299 298 298 298 298 297 296 296 296 295 294 295 294 293 292 291 291 290 290 290 290 289 288 288 288
307 309 307 306 307 312 310 310 313 308 309 309 308 307 306 305 305 301 301 303 301 301 301 299 298 297 297 297 297 296 296 295 295 293 293 293 293 292 291 290 290 290 289 289 289 289 288 287 287
308 309 310 309 309 313 308 308 313 310 308 307 309 305 305 303 302 305 301 299 297 296 297 297 297 296 296 296 296 296 296 296 295 294 292 291 291 291 291 289 289 289 288 288 288 288 288 287 287
307 308 311 311 312 314 304 309 313 309 307 306 305 305 303 303 303 300 301 298 297 296 295 295 295 295 296 296 295 296 296 295 294 294 293 292 292 290 290 290 289 288 288 287 288 288 287 287 285
306 308 308 311 305 311 311 309 309 307 308 308 306 303 304 303 302 300 299 297 297 296 295 295 295 296 295 295 295 295 294 294 294 294 293 293 292 292 290 290 289 288 287 287 287 287 287 286 285
307 307 310 308 312 313 310 310 312 311 311 308 306 304 305 304 302 301 299 297 297 298 297 296 297 296 297 296 295 295 295 295 294 294 293 292 292 291 291 290 289 288 287 287 286 286 285 284 283
306 307 307 309 312 314 315 315 313 313 307 306 308 307 306 303 303 302 301 300 299 299 298 298 298 298 297 297 296 295 295 295 293 293 293 292 291 291 290 290 289 288 287 286 286 285 284 283 282
307 309 309 311 313 311 313 315 312 313 309 310 311 311 308 303 305 303 301 300 300 299 299 300 300 297 298 297 295 295 294 293 292 293 293 292 291 290 291 290 289 287 287 286 285 285 283 283 282

GFSSGP_925_thetae_006.txt.gz
Theta_e
320 321 323 321 318 315 318 316 315 315 316 314 310 313 315 316 318 317 321 326 329 327 328 335 335 337 337 337 337 334 334 336 336 337 336 335 335 335 335 335 336 336 335 335 334 332 332 332 333
320 321 321 313 320 316 312 315 317 313 313 313 313 314 316 317 316 318 324 327 328 328 329 332 333 336 336 336 336 335 336 336 337 335 335 334 333 332 332 332 333 334 333 331 329 326 325 327 327
319 319 318 316 314 315 316 314 313 313 312 313 314 312 314 315 314 317 324 327 328 330 330 331 332 334 336 336 335 335 336 335 334 333 333 332 332 330 329 328 329 330 329 326 324 323 322 320 319
319 314 309 319 320 318 315 315 311 314 313 310 312 313 310 312 315 317 322 327 328 330 330 330 330 331 335 336 335 335 337 335 332 331 332 330 329 327 324 322 324 324 322 320 316 310 306 305 304
315 309 312 315 315 314 311 312 310 313 313 312 312 313 311 311 314 316 322 326 326 329 329 328 327 329 335 335 334 334 334 333 332 330 329 328 325 321 320 318 318 317 314 308 306 306 307 304 301
312 309 315 314 313 313 312 311 311 312 311 311 312 311 310 310 312 316 320 325 325 325 325 325 325 326 331 333 333 332 331 331 330 329 326 323 320 318 316 315 314 313 312 312 311 308 304 302 300
315 313 315 313 313 314 315 307 312 312 312 311 309 313 310 308 312 316 319 324 325 324 323 322 323 324 329 329 330 330 329 329 327 325 322 319 317 316 314 314 314 313 313 311 302 299 298 298 298
311 312 315 313 313 315 313 310 311 310 312 307 308 312 311 309 311 315 319 323 324 324 322 321 322 324 325 325 327 326 327 325 322 320 318 316 313 313 311 310 313 312 311 303 298 298 298 298 298
308 310 310 312 312 314 312 313 311 309 310 309 308 308 308 309 311 315 319 321 322 322 322 321 320 322 322 323 324 324 325 320 318 316 315 312 307 305 303 307 310 309 306 299 298 298 298 298 298
313 308 310 308 309 313 313 312 313 313 311 308 308 306 307 307 311 314 315 317 319 320 321 321 320 320 320 320 320 319 321 319 316 314 311 307 300 299 300 305 306 302 299 299 298 298 298 297 297
312 314 310 312 310 312 313 312 310 310 311 308 309 309 304 305 306 311 313 315 317 319 319 320 319 319 319 318 317 316 316 317 313 311 308 303 299 297 299 301 301 299 298 297 297 297 297 296 296
316 312 312 313 313 314 314 310 311 309 315 311 307 307 305 303 303 306 310 313 315 315 317 318 319 318 318 317 315 314 313 313 311 308 306 302 299 297 298 300 298 296 296 297 297 296 296 295 295
314 314 313 312 312 312 311 312 312 309 309 308 306 305 304 303 303 305 308 309 310 312 314 316 317 318 317 316 314 313 311 310 308 307 304 300 298 297 297 297 296 296 296 296 296 296 296 296 295
312 312 311 310 311 311 313 313 313 310 309 308 307 306 303 302 304 304 305 305 306 308 310 312 314 316 317 316 314 311 310 309 307 305 302 300 298 297 297 296 296 296 296 296 296 296 296 295 294
312 312 308 308 309 310 309 312 309 311 309 308 306 304 303 302 304 304 307 306 308 307 307 308 310 313 315 316 314 312 308 307 306 304 300 299 298 297 297 296 296 296 295 295 294 295 294 294 294
310 309 310 309 308 309 310 309 309 307 306 306 306 306 305 305 304 307 309 309 308 307 307 306 306 308 311 314 314 312 309 306 305 303 298 298 299 298 297 296 296 295 294 294 294 294 294 294 295
307 309 308 308 307 309 308 309 308 307 307 307 306 306 306 308 307 308 310 310 309 309 307 306 305 305 307 310 311 311 309 305 303 302 298 298 298 298 297 296 295 294 294 293 293 293 294 294 294
309 308 307 307 309 307 309 309 309 308 307 307 307 308 309 309 309 310 311 310 310 309 307 306 305 304 304 305 305 306 306 303 301 300 298 298 298 297 297 296 295 294 293 293 293 293 293 293 293
307 306 306 306 307 308 309 309 309 308 307 309 309 309 308 309 308 309 309 309 309 307 305 304 303 301 301 301 301 300 301 302 301 299 298 298 298 297 297 295 294 294 293 293 293 292 292 292 292
308 308 309 309 308 307 308 309 309 309 309 309 309 310 309 308 307 307 306 307 307 308 306 303 303 301 300 299 299 299 299 299 301 299 298 298 297 297 296 295 294 294 292 292 292 292 291 291 291
307 308 310 309 308 306 305 309 307 307 306 307 307 308 305 305 307 307 304 304 306 305 305 304 303 301 299 299 298 298 298 297 297 297 298 298 297 297 296 295 294 293 292 292 292 291 292 292 289
310 307 308 309 308 310 307 312 308 308 307 307 307 304 304 304 303 302 302 301 304 307 306 304 301 299 299 299 298 297 297 296 297 296 297 298 297 296 295 294 293 293 292 291 291 291 291 292 291
310 308 307 307 308 307 309 308 311 307 308 307 306 306 304 303 302 302 301 302 305 305 304 303 302 300 298 298 298 297 297 297 297 296 296 296 296 296 294 294 293 292 292 291 291 290 290 291 291
307 308 306 305 306 310 309 308 313 308 309 309 307 309 304 303 302 300 301 302 302 301 300 301 300 298 297 297 297 297 296 296 296 295 295 294 294 295 294 293 292 292 291 291 290 290 290 290 290
307 307 309 309 309 312 307 307 311 310 309 307 306 305 304 302 300 300 300 298 299 298 297 296 296 296 297 296 296 296 296 297 297 296 294 293 293 293 294 293 291 291 291 290 290 289 289 290 289
306 308 310 314 310 314 303 310 315 310 307 305 303 303 303 302 301 300 300 297 297 297 296 296 296 296 296 296 296 296 296 295 295 296 295 294 294 295 294 292 291 291 290 290 289 289 289 289 288
306 308 308 311 311 311 312 309 309 310 307 306 306 304 303 303 301 301 300 298 298 297 296 297 296 297 297 296 296 296 296 296 295 295 295 295 295 294 293 293 292 291 290 289 289 288 288 288 287
306 306 310 308 314 315 311 311 313 311 312 308 305 304 304 302 301 300 300 299 298 298 297 295 296 296 297 297 296 296 296 296 295 295 295 295 295 294 293 292 292 291 289 289 288 287 288 287 287
310 307 306 307 311 317 318 315 310 312 311 307 305 307 305 301 300 299 298 298 298 299 298 298 297 296 296 295 294 294 294 294 294 294 294 294 293 293 292 292 291 290 289 288 287 287 287 286 286
307 312 311 314 314 311 313 314 310 309 310 306 302 300 300 298 296 297 296 297 297 297 298 298 297 297 297 297 295 295 295 294 294 293 293 293 293 293 292 291 290 289 288 287 287 286 286 286 285

GFSSGP_925_thetae_009.txt.gz
Theta_e
319 321 322 320 322 319 320 318 315 316 315 312 311 315 317 316 320 320 318 324 324 323 327 334 337 339 339 339 338 334 331 330 334 335 335 334 335 335 335 335 336 336 336 334 334 333 332 330 331
319 321 320 315 321 318 314 315 318 315 313 312 312 314 316 318 314 317 323 324 326 323 322 328 332 334 337 337 337 336 332 335 335 336 335 334 333 333 333 334 334 334 333 332 330 326 324 326 326
319 318 319 318 316 316 316 314 314 313 311 313 314 312 314 316 313 317 322 325 327 326 323 327 331 334 334 335 336 334 334 336 335 335 334 333 333 332 332 331 332 332 331 327 325 323 322 321 320
319 314 311 320 320 318 315 315 311 313 312 310 311 314 310 312 315 317 320 326 327 327 328 332 332 333 334 335 334 334 335 336 334 333 332 332 331 330 329 328 331 328 326 323 320 316 314 310 306
315 310 313 314 315 314 313 312 312 312 312 312 311 314 312 311 313 316 320 326 327 328 329 331 331 331 332 335 336 334 337 336 333 331 331 330 329 327 324 323 324 322 320 316 313 314 309 303 300
313 311 315 314 312 311 311 311 310 311 311 310 311 311 312 311 312 314 318 324 325 328 329 330 331 330 331 334 335 334 335 335 333 331 329 329 327 323 320 320 319 317 311 308 307 303 300 299 299
314 314 314 313 313 314 314 308 311 312 312 312 309 313 312 308 311 313 317 323 325 328 329 329 329 328 329 333 333 333 333 333 331 330 328 326 322 320 317 316 315 315 314 311 303 300 299 299 299
312 314 315 313 314 314 313 309 310 311 313 307 308 314 313 310 310 313 317 323 325 325 326 326 325 325 327 328 332 332 331 330 330 328 325 322 318 316 314 314 315 315 314 305 300 299 299 299 298
307 312 312 313 311 312 311 312 309 308 310 308 308 309 309 309 311 313 318 322 323 324 324 323 323 324 324 325 327 330 329 329 327 326 322 319 314 313 311 311 313 314 310 303 299 298 299 299 299
313 311 311 309 308 312 313 311 312 312 311 309 309 307 308 307 310 313 316 319 321 322 323 323 322 322 323 324 325 328 327 327 324 321 318 315 310 309 306 310 312 311 306 301 299 299 299 299 298
312 315 310 310 307 310 312 311 310 311 313 311 311 310 306 305 307 311 314 316 317 319 321 321 322 321 322 323 323 325 325 325 321 318 315 312 309 305 304 308 308 306 303 300 298 298 298 298 297
315 312 311 312 312 313 313 310 311 309 316 313 308 308 307 305 305 307 311 313 316 316 318 320 321 321 321 321 321 322 321 322 320 316 313 311 307 301 301 304 304 303 300 298 297 297 297 296 296
314 313 313 311 311 311 311 313 312 310 310 308 307 306 306 305 305 306 308 310 313 314 316 317 319 320 320 320 320 319 319 318 318 316 312 309 304 299 299 301 302 300 297 296 297 296 296 296 295
311 311 310 309 310 310 312 313 312 311 309 309 306 308 305 304 306 305 305 307 308 311 313 315 316 318 319 319 318 318 317 316 315 314 311 308 305 299 298 300 299 296 296 296 296 296 295 294 294
310 312 308 307 309 309 308 311 310 311 308 309 309 306 305 304 304 304 308 307 309 310 310 311 313 315 317 318 318 317 316 315 313 312 310 307 304 300 297 298 297 296 295 295 295 294 294 294 294
310 309 310 309 308 309 310 311 310 307 306 307 306 307 305 307 306 307 308 309 308 308 308 308 308 310 314 316 317 317 316 314 312 311 309 307 304 300 297 297 296 296 295 295 294 294 294 294 294
307 309 307 308 307 309 309 310 308 306 306 306 307 308 309 309 309 309 309 309 310 309 308 308 307 307 309 313 314 314 315 314 312 310 309 307 303 300 297 297 296 295 295 294 294 294 294 293 293
309 307 306 307 309 306 308 308 309 308 307 309 309 309 308 308 308 309 309 309 310 310 309 307 306 305 306 309 310 310 311 312 311 310 308 306 302 299 298 297 296 295 294 294 294 293 293 293 292
307 306 305 307 307 307 309 309 308 308 307 308 309 309 309 308 308 307 307 308 308 308 307 306 305 303 304 306 306 305 306 307 308 309 307 306 302 298 298 297 296 295 295 294 293 292 292 292 291
307 308 309 308 307 305 307 309 309 309 309 309 309 309 308 306 307 307 306 307 307 307 307 305 304 302 302 303 304 303 303 302 304 305 305 304 301 298 298 297 296 295 294 293 292 292 291 291 291
307 308 309 308 306 305 305 308 307 308 306 306 307 306 305 305 305 304 304 304 304 305 306 306 304 302 301 301 301 301 301 300 299 300 301 301 301 298 298 297 296 295 294 293 292 292 292 292 291
309 307 307 307 308 310 307 311 307 309 308 307 306 305 304 304 304 302 300 302 302 302 302 303 302 302 299 299 299 299 299 298 298 298 298 300 299 298 298 297 296 296 294 293 293 292 292 293 292
309 307 308 307 307 307 307 307 309 307 308 307 307 307 306 303 302 303 301 301 300 299 300 300 300 299 298 298 298 298 298 298 298 298 297 297 297 297 297 297 296 295 294 293 293 292 291 292 293
305 307 304 304 306 310 309 308 311 307 309 308 307 307 304 303 302 304 301 300 298 298 297 297 297 297 297 297 297 297 297 297 296 296 296 296 296 295 296 296 296 295 294 293 293 292 291 291 292
308 308 310 310 309 313 306 307 311 309 309 308 308 305 302 302 302 301 300 298 296 295 295 296 295 295 295 296 296 296 296 296 297 296 295 294 293 294 295 295 295 295 294 293 292 291 291 291 291
306 308 313 315 314 316 302 313 317 306 308 306 303 301 303 302 299 298 298 297 297 295 294 295 295 295 295 295 295 295 295 295 296 296 296 296 295 295 295 296 295 294 293 292 292 291 290 290 290
306 308 308 311 309 313 312 310 312 311 306 304 303 301 299 298 298 297 297 296 297 296 295 294 295 295 295 295 295 295 295 295 295 295 295 295 295 294 293 295 295 294 293 292 291 290 290 289 289
305 306 310 308 313 315 313 313 314 311 306 303 302 300 297 295 295 295 296 295 295 296 295 295 294 293 293 294 294 294 294 294 294 294 295 295 295 295 294 294 293 293 292 291 291 289 289 289 289
306 306 306 307 311 315 318 316 309 305 303 301 297 295 293 293 293 294 294 295 295 294 294 293 293 293 292 292 293 293 293 294 294 293 294 294 294 294 293 294 292 291 291 290 289 288 288 288 288
309 311 311 317 318 313 317 319 310 300 298 295 292 292 292 292 293 293 293 294 295 294 293 292 292 292 291 292 292 292 292 292 292 293 293 293 293 293 293 293 292 290 289 289 289 287 287 287 287

GFSSGP_925_thetae_012.txt.gz
Theta_e
318 320 322 325 325 323 322 324 320 323 321 318 318 321 321 321 321 322 321 326 327 330 338 339 339 339 336 336 333 333 332 332 335 338 336 335 336 335 335 336 337 337 336 335 334 333 333 331 331
318 320 323 325 322 320 318 321 323 321 319 317 317 318 320 321 320 321 324 324 327 329 337 341 340 340 340 337 337 334 332 331 336 336 336 335 334 335 334 335 336 335 334 333 332 328 325 326 326
318 319 323 322 322 319 320 321 320 318 317 318 319 318 320 321 319 322 322 325 327 329 335 339 339 340 339 339 338 337 333 332 336 336 335 334 333 332 332 332 333 333 332 331 326 324 323 321 321
320 321 320 321 321 321 320 320 320 320 317 315 317 319 317 316 319 319 319 327 329 329 333 336 334 335 336 337 338 337 333 335 336 335 334 333 332 331 330 330 331 331 329 326 322 320 316 312 308
318 320 319 320 319 319 319 318 317 319 318 318 316 319 318 315 314 316 321 327 330 330 332 334 329 331 333 334 335 335 333 336 336 333 332 331 330 330 329 328 329 326 324 321 318 318 308 302 300
319 320 319 319 318 318 318 318 317 318 317 316 316 318 319 314 313 316 320 327 329 330 332 334 330 331 333 333 336 335 334 337 336 333 331 330 330 329 326 325 324 322 320 317 313 307 303 300 299
319 319 318 319 320 320 320 315 317 318 318 318 316 318 319 316 313 314 319 326 328 330 332 333 334 332 330 331 335 336 336 337 335 332 330 329 329 326 323 321 320 319 317 316 313 309 303 300 299
320 320 321 320 319 318 318 315 315 317 318 313 315 318 318 317 312 314 319 324 327 329 330 332 333 334 334 333 331 334 334 335 334 331 329 329 328 322 319 317 316 317 317 313 311 308 303 300 299
315 319 320 319 318 317 317 317 313 314 316 314 315 317 318 311 312 317 320 323 325 326 328 330 331 332 332 332 330 331 332 332 332 330 329 328 323 319 317 315 315 317 315 311 304 302 299 299 299
320 320 319 317 317 316 317 316 317 316 317 318 316 316 314 311 314 316 319 321 324 325 325 326 328 329 329 330 330 330 332 332 331 330 328 325 320 317 315 314 315 316 313 309 304 299 299 299 298
320 320 319 317 315 314 316 316 315 317 318 318 318 318 317 313 313 314 316 318 320 323 324 324 325 326 327 328 327 328 329 330 329 327 325 322 317 314 312 313 314 314 310 308 304 298 297 297 297
319 319 319 318 315 316 317 317 316 317 317 317 317 317 316 316 315 314 315 316 317 319 322 323 323 324 325 326 326 326 327 327 326 324 321 318 315 312 311 312 313 312 309 306 300 297 297 297 297
318 318 318 317 316 316 316 317 317 317 317 317 316 315 314 315 314 314 313 313 315 317 318 320 322 322 323 324 324 324 325 325 324 322 319 317 314 311 309 309 310 309 306 301 297 297 296 296 295
316 316 316 315 315 315 315 316 314 315 315 315 315 315 315 314 313 313 312 311 312 314 316 317 319 320 321 322 323 322 322 323 322 320 317 316 312 309 307 307 307 306 302 299 296 296 296 295 295
313 314 315 315 314 314 313 315 315 315 314 314 314 315 315 314 313 312 313 313 312 312 313 315 316 318 320 320 321 321 320 320 320 318 316 315 312 307 303 304 304 302 300 296 296 295 295 295 294
313 313 315 315 312 312 314 315 315 314 312 313 314 314 314 315 315 314 313 311 312 311 311 311 312 314 318 319 319 319 319 318 317 317 315 314 312 308 303 302 301 300 297 295 295 295 295 295 295
314 315 315 314 313 312 314 314 314 314 312 313 313 314 314 314 314 313 313 312 311 311 310 309 310 313 315 317 318 318 317 317 316 315 314 312 312 309 303 300 300 298 295 295 295 295 295 295 295
316 315 314 314 314 313 312 313 312 312 312 312 313 313 314 314 314 312 311 310 310 310 309 309 308 309 312 314 315 316 315 315 314 314 312 310 309 308 303 299 298 297 295 295 295 295 294 295 295
313 313 314 314 314 313 313 313 313 313 313 313 313 314 314 314 313 311 310 308 308 308 308 307 307 306 309 311 313 314 314 313 312 312 310 309 307 307 304 300 298 296 295 295 294 294 294 293 293
313 314 314 314 313 310 313 313 313 313 313 314 314 313 313 313 311 310 308 307 306 306 306 306 305 305 306 309 311 311 311 311 310 310 308 307 305 305 304 300 297 296 295 295 294 294 294 294 293
313 314 315 315 313 312 312 316 314 314 312 313 311 312 311 310 310 308 307 304 303 302 302 302 303 303 303 306 308 308 304 306 307 307 306 304 304 302 304 300 297 296 295 295 294 293 294 295 293
314 314 312 312 312 318 311 319 318 316 314 312 312 312 311 310 308 305 303 302 300 299 299 300 300 301 301 303 304 305 304 304 303 303 303 303 302 301 300 299 297 296 295 294 294 293 294 295 294
314 309 310 310 313 312 315 314 319 312 314 313 313 310 310 307 304 303 302 301 299 298 297 297 298 298 299 300 301 301 302 303 303 301 302 301 300 299 298 297 296 296 295 294 294 293 293 294 296
308 310 310 311 312 318 317 315 317 315 313 312 309 308 305 304 303 302 301 300 299 297 297 296 296 296 296 297 299 299 300 301 301 299 300 300 298 297 297 297 296 295 294 294 294 293 292 293 294
309 312 322 322 321 321 313 313 315 315 311 308 308 305 303 302 302 301 300 299 298 297 297 296 296 295 295 295 296 297 298 298 299 299 299 299 298 296 296 295 295 294 294 294 293 293 292 292 292
312 314 320 323 323 320 310 316 316 312 308 306 305 303 302 301 301 300 299 298 297 296 295 296 295 295 295 295 294 294 295 295 296 297 297 298 297 297 295 294 294 294 294 293 293 292 291 291 291
312 313 313 317 318 319 317 316 316 313 308 307 304 302 299 298 298 298 298 297 296 295 294 294 293 293 294 294 294 294 294 294 294 295 294 295 295 295 295 294 293 293 293 293 292 291 291 291 291
310 311 314 312 317 320 315 315 316 312 310 305 302 299 298 296 296 296 296 296 295 294 294 292 293 292 291 292 293 293 293 292 292 293 293 293 293 293 293 293 292 293 292 291 291 291 291 290 290
311 309 309 310 313 319 320 317 312 311 305 303 299 296 295 295 295 295 294 295 294 292 293 292 291 291 290 290 291 292 292 292 292 292 292 292 292 291 291 292 292 291 291 290 290 290 290 289 289
310 312 311 314 316 314 315 316 306 303 300 297 295 294 294 293 293 294 294 293 293 291 291 291 290 290 289 289 289 289 289 289 289 291 291 291 291 291 290 290 290 290 290 290 289 289 289 289 288

GFSSGP_925_thetae_015.txt.gz
Theta_e
319 322 323 326 327 324 323 324 323 324 324 321 320 321 322 321 321 325 325 329 329 332 338 337 342 343 340 340 339 338 337 338 338 339 338 338 336 335 335 336 337 338 338 336 335 334 333 331 330
320 321 324 323 325 323 321 322 323 322 321 320 320 320 322 321 322 322 326 328 329 331 338 341 341 341 341 337 336 334 334 337 338 338 337 337 336 336 335 335 337 337 336 334 333 331 325 326 326
320 320 323 323 323 323 323 322 322 321 321 320 321 320 320 321 321 323 326 328 329 330 338 341 341 340 338 336 336 335 333 332 337 338 338 337 335 334 333 334 334 334 333 332 327 324 323 323 322
321 322 322 322 322 321 321 321 321 321 320 319 320 320 320 319 321 322 324 329 330 329 336 341 341 340 340 339 338 337 334 332 337 338 336 335 333 332 331 331 332 332 331 330 324 322 320 316 310
320 321 322 322 321 320 319 320 320 321 321 320 319 320 320 319 318 320 324 329 331 330 333 338 339 340 340 340 338 338 337 333 337 336 336 333 332 331 329 329 330 330 328 325 322 318 310 305 301
321 320 321 321 320 319 321 321 321 321 320 320 319 320 320 319 317 318 322 328 330 331 332 334 335 337 337 337 337 337 336 335 337 336 334 332 331 330 329 328 329 327 324 321 320 313 305 300 300
321 321 321 321 320 320 320 319 320 319 319 319 319 318 319 319 317 318 321 325 329 331 333 334 336 334 335 335 335 335 335 334 338 336 333 331 330 329 328 326 326 324 321 320 318 313 305 300 299
321 321 321 320 319 319 319 319 319 318 318 317 318 319 319 321 317 319 322 324 328 330 333 334 335 335 336 336 334 336 335 335 337 336 333 331 329 328 325 322 322 321 319 318 316 312 307 301 299
320 320 321 320 319 318 319 318 318 318 317 318 318 318 319 317 317 319 322 323 326 328 332 333 334 335 335 335 334 335 335 335 337 335 333 330 328 327 323 319 318 319 318 316 314 309 302 300 299
321 322 320 320 318 318 317 317 318 318 318 318 319 319 319 318 316 318 320 322 324 326 328 331 332 333 334 334 333 332 332 333 333 333 332 328 328 325 320 317 316 317 317 314 313 306 300 300 301
321 321 319 320 319 318 317 317 317 317 318 318 318 318 318 318 318 317 317 318 320 323 326 327 330 331 332 333 331 332 331 330 331 332 331 328 327 322 318 316 315 317 316 312 311 302 298 300 300
321 319 320 320 319 318 318 317 317 317 318 318 318 318 318 318 317 317 317 317 318 319 322 325 326 328 329 330 330 331 330 331 332 331 330 328 325 320 317 315 315 316 313 311 308 301 300 299 299
320 319 318 318 318 318 318 317 317 317 317 317 317 317 317 317 317 317 317 316 317 318 319 322 325 326 327 329 329 328 329 330 331 330 329 327 323 318 315 313 315 315 313 310 307 301 299 298 297
317 317 317 316 316 316 316 317 316 316 317 316 316 316 316 317 317 316 316 316 316 316 318 320 322 324 325 326 328 327 328 328 329 328 327 325 320 317 314 312 314 313 310 308 303 300 299 298 297
315 315 316 316 317 316 315 316 316 317 316 316 315 315 316 316 316 316 315 315 315 316 316 317 319 321 323 324 326 327 326 327 327 327 325 322 319 316 313 311 312 311 308 304 300 300 299 299 297
315 316 317 317 315 315 315 316 316 316 315 315 315 315 315 316 316 315 315 315 315 314 314 315 316 318 321 323 324 325 325 325 325 325 323 320 318 315 311 309 309 308 305 301 299 299 298 298 297
317 318 318 317 316 315 315 315 316 315 315 315 315 315 315 315 316 315 313 313 312 313 313 313 313 314 317 320 322 323 323 323 323 323 322 320 316 314 310 307 307 306 302 300 298 298 298 298 298
320 320 319 318 318 316 317 317 316 316 316 316 316 316 316 316 314 311 310 310 310 310 311 311 311 312 313 316 319 321 321 322 321 321 320 319 316 313 309 306 305 303 300 298 298 298 298 298 298
317 317 318 317 317 318 317 316 316 316 317 317 317 317 316 314 312 310 307 306 306 306 306 307 308 310 310 313 316 318 319 320 319 319 318 317 315 312 309 305 303 301 299 298 298 298 297 298 296
316 317 317 317 317 314 315 316 316 317 316 317 316 315 314 313 310 307 305 304 303 302 303 303 305 307 308 310 313 314 316 317 317 316 316 315 314 311 308 305 302 301 298 298 297 297 297 297 296
316 316 316 317 316 316 317 318 320 318 319 317 314 313 312 309 308 307 305 303 302 301 301 301 302 303 305 307 309 311 312 309 311 312 313 312 311 310 307 304 302 301 299 298 297 297 297 297 296
316 316 315 315 316 320 316 320 318 319 318 314 313 312 309 308 307 306 304 302 301 300 300 300 300 300 301 303 306 307 308 307 308 307 309 309 308 308 307 304 303 301 299 298 297 297 297 297 296
316 312 313 314 317 318 318 320 319 318 317 316 312 310 308 307 305 304 303 301 300 299 299 299 298 298 299 300 301 303 303 304 305 304 303 305 305 304 306 304 302 301 299 298 297 296 296 297 297
311 312 314 315 317 322 319 318 318 316 315 312 310 308 307 306 304 303 302 300 299 299 298 298 298 298 298 297 298 299 300 301 302 303 302 302 303 303 302 303 301 300 299 298 297 296 296 296 297
311 314 322 323 325 326 319 317 317 316 315 312 310 307 305 304 304 303 302 300 298 297 297 296 295 296 296 297 297 296 296 297 298 299 300 300 301 301 300 300 299 299 299 298 297 296 295 295 296
317 318 322 324 325 325 320 320 318 313 310 309 307 305 303 302 302 301 300 298 298 297 295 296 294 293 294 295 295 295 295 295 296 296 296 297 299 299 299 298 298 298 298 297 296 296 295 295 295
315 316 314 319 319 322 320 317 315 314 310 308 305 303 301 300 300 299 299 298 296 296 294 294 293 292 292 293 294 294 293 294 294 294 294 294 294 295 296 297 297 296 296 296 296 295 295 294 294
313 316 321 318 322 320 315 315 315 314 314 307 304 301 300 299 298 298 296 297 295 294 294 292 292 291 290 290 290 291 291 291 291 293 293 293 293 293 293 294 294 295 294 295 294 294 294 294 293
314 313 312 313 314 318 319 317 312 313 310 306 301 299 298 297 296 297 295 294 293 291 291 291 290 289 288 289 289 289 289 288 287 288 288 290 291 291 292 292 292 293 293 294 294 293 293 293 293
315 315 315 319 319 316 316 317 313 307 304 301 298 297 296 295 292 293 294 292 291 290 290 289 289 288 288 287 288 288 288 286 286 285 285 285 286 289 290 290 290 291 291 292 292 292 292 292 292

GFSSGP_925_thetae_021.txt.gz
Theta_e
318 319 320 321 319 318 319 320 318 319 319 318 318 318 318 317 318 319 327 330 332 335 336 333 333 335 336 337 337 337 337 337 336 331 331 331 334 332 331 337 338 337 338 337 335 333 329 327 328
316 319 320 317 319 319 316 318 319 319 319 318 318 318 318 319 319 323 325 329 329 335 335 333 333 333 335 338 339 337 336 336 337 335 335 337 336 335 333 336 337 337 337 335 333 329 326 324 324
319 320 316 316 316 317 317 317 317 318 317 318 318 318 318 318 318 325 329 328 331 334 335 334 334 335 335 339 340 339 338 335 338 338 337 336 335 334 333 336 336 336 335 333 330 324 323 322 320
320 318 313 316 320 317 317 316 317 318 317 317 317 317 316 318 321 324 323 326 332 333 337 335 334 338 337 340 340 339 338 338 336 336 335 336 337 334 333 335 333 333 333 331 328 323 321 318 313
318 312 315 318 319 317 316 318 319 319 318 316 316 317 315 318 321 319 321 324 329 331 338 339 335 339 339 338 339 338 334 336 336 336 336 336 335 331 331 331 331 331 329 329 325 322 317 310 303
315 311 315 317 316 317 317 317 318 317 316 316 316 316 316 318 318 320 323 324 328 329 337 340 339 338 340 341 339 338 334 333 334 335 335 336 335 331 329 328 329 329 328 325 324 318 310 302 300
318 315 317 318 317 316 318 317 316 315 313 316 316 315 315 316 318 319 323 326 329 329 329 336 339 341 339 339 337 337 336 336 333 334 335 337 333 331 328 325 327 328 327 324 322 313 302 300 300
314 313 318 316 316 317 316 316 316 316 314 315 315 313 317 316 318 317 319 324 327 330 329 330 335 338 340 338 339 339 337 337 336 334 335 337 334 331 328 324 326 327 325 322 319 308 301 300 300
315 313 315 318 316 315 315 315 314 314 315 314 314 314 314 318 317 317 319 320 324 328 330 330 331 333 333 338 337 338 338 337 335 334 337 337 333 330 329 327 323 325 323 321 318 311 302 301 300
314 314 317 316 315 316 315 314 313 313 310 310 311 311 314 317 317 317 318 319 321 323 327 331 331 332 333 333 338 338 337 336 334 334 336 335 333 331 330 329 322 321 320 319 317 308 301 300 299
318 315 316 317 317 316 316 314 313 312 313 311 312 312 311 314 313 314 315 317 318 319 321 325 329 332 334 333 331 330 332 332 333 333 334 333 332 330 330 328 323 318 317 317 315 310 302 300 301
318 316 316 316 315 315 316 316 314 314 314 311 310 310 311 310 310 311 312 315 316 317 318 321 324 328 332 334 334 334 333 332 334 331 332 332 331 329 329 327 322 317 315 315 312 307 302 301 301
316 316 316 315 313 312 313 313 314 313 312 310 310 310 309 309 310 312 312 315 315 316 317 318 323 325 327 332 334 334 334 334 333 332 330 331 330 329 328 326 322 317 314 314 312 307 303 300 301
314 313 313 312 312 312 313 312 314 312 310 309 309 308 307 307 307 307 308 307 309 311 314 316 319 324 326 329 331 333 333 333 332 332 332 330 330 329 327 326 322 318 315 313 313 307 304 300 300
313 313 311 312 312 312 311 313 313 311 309 309 309 308 308 306 305 304 305 304 306 307 309 313 315 320 326 327 328 331 332 332 331 331 331 330 328 328 328 326 322 319 315 313 312 309 305 300 299
314 312 313 313 313 313 311 312 312 310 309 310 310 307 305 304 303 303 302 302 304 306 307 309 313 317 324 326 326 327 329 330 330 330 330 329 329 329 329 325 321 318 314 314 313 310 307 301 299
312 312 313 314 313 312 312 311 311 310 311 310 307 306 305 303 302 301 301 300 301 302 304 307 309 313 318 325 325 325 326 328 328 328 329 329 328 329 327 325 322 316 314 315 313 310 307 300 299
313 314 314 314 314 313 313 310 309 310 310 311 305 304 304 303 301 300 300 299 299 300 302 304 307 309 312 316 320 322 323 325 326 326 326 327 326 326 325 322 319 315 314 314 311 309 304 300 299
312 314 314 312 312 313 313 312 311 311 310 310 305 305 304 303 301 300 299 299 298 298 299 300 303 305 309 313 314 316 319 320 322 323 322 323 323 323 323 320 317 314 313 312 311 307 302 299 298
313 314 313 312 313 314 312 312 311 311 312 309 306 305 304 302 301 300 298 298 298 297 297 298 299 302 305 307 310 312 314 313 315 319 319 319 319 320 320 320 316 312 311 310 309 306 301 299 298
314 314 313 313 312 311 313 312 313 312 307 307 305 304 303 302 300 299 298 297 296 297 297 297 297 299 301 303 306 307 309 308 307 308 310 314 315 315 317 317 316 310 308 308 308 305 302 298 298
315 312 313 313 312 313 313 314 313 312 308 307 304 302 301 300 299 298 297 296 295 294 296 296 296 296 297 299 300 300 298 299 300 302 303 305 307 311 312 312 313 312 307 305 306 305 301 298 298
313 310 311 312 311 313 313 314 313 310 310 307 304 302 300 299 298 297 296 296 295 294 293 294 295 295 295 296 296 296 296 297 298 298 299 300 301 304 305 306 308 308 308 305 304 302 300 298 298
309 310 310 310 311 314 314 315 314 310 310 307 304 302 300 298 297 297 296 295 294 293 292 292 292 293 293 293 293 294 294 294 294 295 295 296 297 298 301 303 303 302 305 305 304 302 300 299 298
310 311 316 315 313 316 314 314 314 310 308 307 303 300 298 297 296 295 294 294 293 292 291 290 290 290 290 289 290 290 291 291 290 291 292 293 293 294 294 295 297 299 299 301 302 301 299 298 298
311 315 316 318 315 312 313 315 314 305 303 301 300 298 297 296 296 295 294 294 293 292 291 289 288 288 288 288 287 286 286 286 285 286 286 286 287 290 292 293 293 294 295 297 298 299 299 299 298
313 314 313 315 306 312 314 313 308 304 302 300 299 298 297 296 294 295 294 293 293 291 290 289 287 287 287 287 287 286 286 285 285 285 285 285 285 285 285 287 290 292 293 293 295 296 297 297 297
314 313 316 314 313 314 314 313 312 307 303 300 299 297 296 295 294 292 292 291 291 290 290 289 288 287 286 286 286 286 285 285 285 284 284 284 284 284 284 285 285 285 288 292 292 292 293 294 295
311 311 312 314 313 314 310 310 308 307 302 300 298 296 295 293 292 292 290 290 290 289 288 288 287 287 286 286 285 285 285 285 284 284 284 284 284 284 284 284 284 284 285 285 287 291 291 291 292
310 311 312 313 312 309 313 313 305 302 301 299 298 297 294 293 290 294 291 290 290 289 288 288 287 287 286 286 285 285 285 284 284 284 284 284 284 284 283 283 284 284 284 284 284 284 286 290 291

GFSSGP_925_thetae_024.txt.gz
Theta_e
314 319 319 320 319 313 318 319 317 318 318 317 317 317 317 316 317 317 327 329 331 334 336 333 334 336 338 339 339 339 338 334 332 332 330 329 328 329 332 337 339 338 338 338 335 332 327 327 326
316 319 320 313 316 316 315 316 319 318 317 316 317 317 317 318 318 323 326 330 329 333 335 332 334 336 338 338 338 338 337 336 335 332 332 333 333 331 332 336 337 337 338 338 334 328 325 324 323
319 320 314 313 312 315 316 316 317 317 316 317 317 316 316 318 319 322 327 328 329 334 335 333 333 335 337 338 336 335 335 335 336 335 335 337 335 333 334 336 337 336 335 333 331 324 323 322 321
318 316 311 314 318 315 315 314 315 317 316 316 315 317 314 316 319 324 326 327 328 334 335 334 333 334 335 336 338 337 336 335 336 337 337 336 336 333 333 335 335 333 333 332 329 324 321 319 316
317 309 313 316 317 315 316 316 317 318 316 316 315 316 314 318 322 322 323 326 329 334 334 334 333 334 335 336 339 339 338 337 336 336 335 335 336 333 332 332 332 331 330 330 328 324 320 314 306
314 308 313 316 316 314 316 316 316 314 312 313 315 314 313 317 319 320 324 325 329 330 335 336 334 334 337 338 339 339 338 336 336 337 336 335 335 333 329 329 330 330 329 327 326 322 316 306 300
315 312 314 316 315 315 317 315 315 314 313 315 314 315 313 315 317 319 322 324 327 329 333 338 338 335 337 338 338 338 337 333 335 336 335 334 336 333 331 326 328 328 327 326 325 319 310 301 299
311 310 316 314 314 316 315 314 314 314 314 313 313 312 314 315 317 318 322 325 327 328 329 332 337 338 338 338 339 339 337 336 333 332 334 335 337 334 331 329 323 326 327 325 323 315 303 300 299
311 311 313 316 315 314 313 313 312 311 313 311 313 312 312 315 317 317 319 321 325 328 329 330 331 336 339 339 339 337 336 335 335 335 333 336 338 334 331 330 326 321 325 323 322 314 302 300 299
311 310 313 314 315 316 315 314 313 312 309 310 310 310 312 315 316 316 316 317 320 323 326 329 330 331 333 337 338 336 336 336 335 335 334 334 336 333 331 330 328 323 322 320 320 314 305 301 299
315 313 314 315 315 314 315 313 313 313 313 311 310 310 310 312 314 314 313 314 316 318 321 325 327 329 330 332 332 338 335 336 336 335 334 334 333 332 330 329 328 324 321 319 318 314 304 300 299
317 315 315 316 315 314 315 314 313 313 313 311 309 308 308 307 306 306 306 307 309 312 316 321 325 326 328 330 331 331 337 336 336 336 333 332 331 331 330 328 328 326 320 318 317 312 306 301 301
315 315 315 314 312 312 312 312 312 312 310 308 307 306 304 303 305 305 305 306 307 309 310 312 319 327 327 330 331 332 332 332 330 332 334 332 329 330 329 328 326 327 320 317 315 313 309 301 301
313 313 312 311 311 311 312 311 312 311 310 308 307 304 303 303 302 302 302 302 304 306 308 311 313 321 328 328 330 332 333 333 333 332 333 331 329 329 328 327 326 326 321 316 315 313 309 302 300
313 312 310 310 311 311 310 313 312 310 308 307 305 302 302 301 301 300 300 300 301 304 306 309 313 316 324 329 328 331 333 333 333 333 333 332 330 330 329 327 326 324 323 318 315 314 311 306 300
313 311 312 312 312 312 311 312 311 309 309 307 302 301 301 301 300 299 299 299 301 303 305 308 312 315 320 325 329 330 332 332 331 331 331 331 329 329 329 328 326 324 323 319 315 314 312 307 301
310 310 311 312 312 312 311 311 310 309 310 304 302 302 301 300 299 299 298 298 299 301 303 306 310 314 318 323 325 327 328 329 329 329 329 328 327 327 328 328 327 325 322 318 315 314 312 308 303
311 312 312 313 313 312 312 310 309 309 308 305 302 301 300 300 299 298 297 297 298 299 301 304 307 310 313 316 320 321 323 325 325 326 326 326 326 326 328 329 329 324 320 317 315 314 312 309 307
311 311 312 311 311 312 311 311 310 309 309 304 303 302 301 300 298 297 297 297 297 298 299 300 303 305 310 312 312 314 314 315 319 320 321 322 323 324 325 325 324 321 317 317 315 313 310 307 304
310 312 312 311 310 312 311 311 310 309 307 305 304 302 301 299 297 296 295 295 295 296 296 297 299 301 303 305 307 308 307 306 306 307 311 314 316 318 321 321 321 319 317 314 313 312 308 305 301
312 312 312 313 311 310 312 311 312 306 305 305 303 301 300 298 296 295 294 293 294 295 295 295 296 297 298 301 304 305 304 305 305 304 306 303 306 310 313 316 316 312 312 312 311 310 307 304 301
315 311 312 312 311 313 311 312 311 309 306 304 302 299 298 296 295 295 294 293 292 293 294 295 294 296 296 297 297 296 295 294 295 296 298 300 302 303 304 306 308 308 308 307 308 308 305 302 301
314 310 311 311 310 311 310 310 309 307 308 305 301 299 297 296 295 294 293 292 291 291 292 292 292 292 293 294 295 295 294 293 294 294 295 296 297 298 299 300 302 302 302 303 303 303 304 302 299
309 310 309 308 309 312 311 311 312 309 309 304 301 299 297 296 294 294 293 292 291 290 290 290 289 288 289 289 289 289 288 287 288 287 287 288 291 293 294 295 295 297 299 299 299 301 300 300 300
308 311 315 314 312 315 312 312 312 306 306 304 301 298 296 295 294 293 292 291 290 288 288 288 288 287 287 286 286 286 286 285 285 285 285 285 285 285 285 287 291 293 293 294 296 297 299 299 298
309 312 314 314 314 313 310 313 311 302 301 300 299 297 296 295 295 293 292 292 290 289 287 287 287 287 287 286 286 285 285 284 284 284 284 284 284 284 284 285 285 285 287 291 292 293 295 296 297
312 314 312 313 299 309 312 310 305 302 300 298 297 297 295 295 294 293 292 292 291 290 288 287 287 286 286 286 285 285 285 285 284 284 284 284 284 284 284 284 285 285 285 285 285 288 291 292 293
311 311 315 311 311 311 311 312 312 304 301 299 298 297 295 293 292 292 291 290 290 289 288 287 287 286 286 286 285 285 285 285 285 285 285 284 284 284 284 284 284 284 284 285 285 284 284 285 288
311 311 312 312 309 309 307 309 306 305 302 300 298 297 294 293 292 290 290 290 289 288 288 287 287 286 286 286 285 285 285 285 285 284 284 283 283 283 283 283 283 283 283 283 283 284 284 284 284
309 310 310 310 309 308 310 311 305 304 300 299 297 296 294 293 290 290 289 289 289 288 288 287 287 287 286 286 286 285 285 285 284 283 283 282 282 282 282 282 282 282 282 282 282 282 282 282 283

GFSSGP_925_thetae_027.txt.gz
Theta_e
313 317 319 318 317 313 316 318 315 317 317 316 316 316 316 315 316 315 324 328 330 332 334 336 337 340 343 338 336 335 336 335 333 331 328 327 328 329 330 338 338 337 337 337 338 330 326 327 324
317 319 319 311 314 315 315 313 318 317 316 315 316 316 316 317 315 321 326 328 329 332 335 334 336 340 342 343 339 338 337 335 333 332 330 329 329 329 334 338 338 337 337 337 336 327 324 324 323
319 318 312 312 310 315 315 315 315 316 315 315 316 315 315 317 317 320 324 329 328 333 334 334 335 339 342 341 341 339 337 336 335 333 332 333 333 331 331 335 336 336 336 334 331 324 322 322 321
318 314 309 312 316 314 315 314 313 316 316 314 314 316 313 315 316 322 326 327 328 332 334 333 333 335 341 339 339 337 336 335 337 336 335 338 335 332 334 334 335 333 332 332 330 327 322 320 317
314 307 312 314 316 314 315 314 314 316 315 315 314 314 312 316 322 323 324 325 326 331 334 334 333 334 335 336 336 336 335 335 334 336 336 337 336 333 332 332 332 331 330 329 329 326 321 317 309
312 307 312 314 315 313 315 314 315 313 311 312 314 314 312 315 319 320 322 324 327 331 334 335 334 334 334 335 335 337 337 336 335 335 336 335 333 333 332 327 330 330 329 327 327 324 320 312 302
313 309 313 314 314 314 315 311 314 313 312 314 313 314 311 314 316 317 322 324 327 331 332 333 335 334 335 336 336 337 338 337 336 336 337 336 335 334 332 330 325 328 328 326 326 322 315 306 300
309 309 314 313 313 315 313 311 312 313 313 310 312 311 312 313 316 317 322 325 326 327 329 332 335 335 335 337 338 338 339 338 335 335 336 336 335 335 333 331 328 325 327 326 325 320 312 301 299
308 309 311 315 314 314 312 313 312 310 311 309 311 312 311 313 316 317 318 320 324 327 327 331 333 336 336 336 337 338 338 337 335 333 333 333 336 336 334 332 330 325 324 324 324 320 310 301 299
309 307 310 312 313 315 314 313 313 312 310 311 310 309 311 312 314 314 313 313 315 319 325 328 333 333 336 337 338 339 337 335 335 334 333 333 334 334 333 332 330 327 325 323 323 320 312 301 299
313 311 312 315 313 314 314 313 312 312 312 310 311 308 307 307 306 305 305 305 306 309 313 319 327 333 335 335 337 338 339 335 333 334 333 333 332 332 332 330 328 328 326 323 320 318 313 305 300
317 315 314 315 313 313 314 313 313 312 312 309 307 305 303 302 303 303 303 304 305 307 309 311 316 326 331 334 334 334 337 337 333 333 333 332 332 331 331 330 329 327 326 324 320 317 313 308 300
315 314 314 313 311 311 312 312 312 310 308 306 304 304 302 301 301 302 302 303 303 305 307 310 311 314 325 330 332 332 332 335 336 334 334 334 333 329 329 329 329 327 326 325 320 317 315 310 303
312 313 311 310 310 310 312 311 311 311 306 304 304 301 300 300 299 299 299 299 301 303 305 309 311 313 318 327 330 331 331 331 333 333 332 333 333 331 328 327 329 327 325 324 322 317 315 312 307
312 312 309 309 310 310 308 312 311 310 304 303 302 299 300 299 298 298 298 298 299 301 304 309 312 315 318 323 328 330 332 333 333 333 333 332 332 332 329 327 326 325 325 324 321 317 315 313 310
311 309 310 311 311 311 311 313 311 309 304 303 300 299 299 298 298 297 297 298 299 302 304 308 312 317 320 323 326 328 329 331 331 332 332 330 331 331 330 330 328 327 325 323 322 318 316 314 311
308 309 310 311 311 311 310 311 310 307 305 302 300 299 299 298 297 297 296 297 298 300 303 307 311 314 318 321 322 324 325 326 326 327 328 329 329 329 329 328 328 328 325 323 322 318 315 313 312
309 310 310 311 312 311 312 310 308 308 308 302 300 298 298 298 296 295 295 296 298 299 301 304 308 311 313 316 318 318 318 319 320 320 322 323 324 324 325 326 326 325 324 322 320 317 315 313 311
309 310 311 310 310 312 310 309 309 308 304 301 300 299 298 297 296 294 294 295 296 297 298 300 303 306 311 311 311 308 307 308 308 309 313 315 317 320 320 318 317 319 320 318 317 315 313 312 308
309 311 310 310 309 310 310 311 309 305 304 302 301 299 298 296 294 293 293 293 294 295 295 297 298 301 303 305 303 302 303 301 300 301 302 304 308 311 312 313 314 313 312 312 312 312 311 309 307
310 310 311 312 311 309 311 310 311 305 303 302 300 298 296 295 294 293 292 291 292 293 294 296 296 297 299 300 302 301 301 300 300 298 299 299 300 301 303 304 305 306 308 308 306 306 305 304 305
313 310 311 312 311 313 309 313 309 306 304 302 299 297 295 294 293 293 291 290 290 290 292 293 294 295 295 297 297 296 292 290 290 292 294 295 296 297 298 299 300 300 300 300 302 303 302 301 300
313 309 310 310 309 309 309 310 308 306 306 302 299 297 295 294 292 291 291 289 289 289 289 289 290 290 290 290 290 289 288 287 287 287 288 287 287 288 290 293 295 296 296 296 297 298 301 299 298
308 308 309 307 308 312 310 310 310 309 308 302 299 297 295 294 292 292 291 289 288 288 288 288 288 287 287 287 287 286 286 285 285 285 285 285 285 285 285 285 286 287 289 291 293 294 296 297 298
308 311 314 314 312 316 310 310 310 306 303 303 300 297 295 293 292 291 290 289 288 288 288 288 287 286 286 286 285 285 285 285 285 285 285 285 285 285 285 285 285 285 285 285 285 288 290 292 294
307 311 314 315 313 312 309 314 312 301 299 300 298 297 294 293 292 291 291 289 287 287 287 287 287 286 286 285 285 285 285 285 285 285 284 284 284 284 284 284 284 284 284 284 284 285 285 285 286
310 312 310 311 296 308 312 309 304 300 299 298 297 296 295 294 292 291 291 290 289 287 286 286 286 286 286 286 286 285 285 285 285 284 284 284 283 283 283 283 283 284 283 283 283 283 283 284 284
310 310 314 310 311 313 311 310 311 303 301 299 297 296 295 294 293 291 290 290 289 288 287 286 286 286 286 286 286 286 285 285 285 284 284 283 283 283 283 283 283 283 283 282 282 282 283 282 283
311 312 311 311 309 309 306 309 304 305 302 300 298 297 295 293 291 290 290 290 289 288 287 287 286 286 286 286 286 285 285 285 285 285 283 283 283 283 283 282 282 282 282 281 281 280 280 280 281
308 310 310 314 311 307 308 311 303 302 301 300 298 297 294 293 291 289 289 289 288 288 287 287 287 286 286 286 286 286 285 285 285 284 283 282 282 282 281 281 281 281 280 280 279 279 279 279 279

GFSSGP_925_thetae_030.txt.gz
Theta_e
314 317 318 317 315 312 315 317 314 316 316 314 314 315 316 314 315 314 322 327 329 331 334 337 341 343 343 343 339 336 335 335 333 330 328 327 327 328 332 340 338 337 336 336 335 328 325 325 324
316 319 317 308 312 314 315 313 317 316 315 314 314 315 315 316 314 318 324 327 328 333 333 336 337 340 342 341 336 335 335 335 333 331 329 327 328 329 334 338 337 336 335 335 334 325 323 323 322
318 316 311 309 309 313 314 313 315 315 314 314 314 314 314 315 315 319 322 327 328 332 333 334 336 338 341 342 339 337 337 335 334 332 331 330 330 329 334 336 335 335 334 334 331 325 322 321 320
317 312 307 309 314 313 314 313 312 315 314 313 313 315 311 314 315 320 325 326 327 331 333 334 335 336 340 341 341 338 337 336 335 335 332 336 333 330 333 333 333 332 331 331 330 328 323 320 317
312 306 310 313 314 313 312 313 313 315 314 313 313 314 312 314 321 322 324 325 326 329 333 334 334 335 340 341 341 339 337 336 337 337 334 337 336 331 332 332 332 330 330 328 328 327 323 319 312
311 306 311 312 314 312 313 311 313 311 311 312 313 312 311 314 318 319 321 322 324 327 331 334 333 334 338 340 340 339 337 337 337 336 336 335 333 331 331 329 330 328 328 326 327 326 321 315 304
311 307 311 313 313 313 314 308 312 312 311 313 312 312 311 313 314 316 321 322 324 330 333 334 334 333 334 337 339 337 336 336 336 335 335 336 335 334 332 331 328 325 328 327 325 324 319 312 301
307 307 313 312 312 314 312 311 311 312 312 309 311 310 311 310 314 316 322 324 325 327 331 333 334 334 335 336 337 337 336 337 337 335 335 336 336 335 334 332 331 327 327 325 324 323 318 308 300
306 306 309 313 311 313 312 313 311 309 310 309 309 310 308 310 314 315 316 317 317 322 326 329 333 335 336 336 337 337 338 338 337 336 334 335 336 334 334 333 331 329 326 324 323 321 317 306 300
307 305 308 310 312 313 313 313 312 312 310 311 310 308 307 307 307 305 304 304 306 307 311 319 327 334 336 338 340 338 338 336 335 334 333 331 331 332 332 332 331 329 326 325 323 322 317 309 302
311 308 310 314 312 313 313 313 311 312 312 310 310 306 302 303 303 302 302 302 302 304 307 309 315 326 333 335 340 340 338 337 334 333 333 332 332 333 331 330 330 329 327 326 325 321 318 313 305
315 313 312 314 313 313 313 312 312 311 310 307 302 302 301 300 300 299 299 300 302 304 306 308 309 313 326 333 335 337 337 338 335 333 330 333 333 333 333 331 330 329 328 326 324 323 320 315 309
315 314 312 312 311 310 310 311 312 310 305 302 302 300 299 298 298 299 299 300 301 303 306 310 310 310 312 326 333 336 335 336 337 334 332 330 332 330 329 328 330 329 328 327 325 323 321 317 313
311 311 310 309 310 309 311 310 310 306 302 302 301 299 298 298 297 297 297 298 300 302 306 310 314 315 313 319 328 333 333 332 334 335 334 333 331 331 328 328 327 326 328 327 324 323 321 317 314
310 312 308 309 309 310 307 312 311 305 302 301 299 297 297 297 296 296 296 297 298 302 307 312 317 319 320 322 326 329 331 332 332 332 332 332 332 332 331 330 328 327 327 326 325 324 322 319 315
310 307 310 310 310 310 310 313 311 304 303 301 299 297 297 296 296 295 296 297 300 303 306 311 317 320 322 324 325 326 327 327 326 327 327 326 327 327 327 328 328 328 327 325 324 323 321 321 317
306 311 309 309 310 310 310 312 310 304 303 300 298 297 297 296 295 294 295 296 298 300 305 309 313 316 319 321 322 322 322 321 321 322 322 323 324 324 324 323 322 322 321 322 321 321 318 318 316
311 309 308 309 311 310 310 310 308 305 303 300 298 297 296 295 293 293 294 296 297 299 302 305 309 311 311 312 314 314 314 313 314 315 316 316 317 319 320 318 317 317 316 315 314 314 314 313 312
308 308 310 309 309 311 310 309 308 304 301 299 298 297 295 294 293 293 293 295 296 298 300 302 306 306 309 310 308 306 303 303 304 304 305 308 309 312 313 312 313 313 311 309 310 311 311 311 309
309 309 308 308 308 309 309 309 309 304 303 301 298 297 295 294 292 292 292 293 294 294 296 298 300 304 306 306 304 302 300 298 299 299 301 302 303 304 305 305 305 306 308 308 306 305 304 305 305
307 308 309 310 310 309 309 309 307 303 301 300 298 296 295 293 292 291 290 290 291 293 294 295 296 298 299 299 300 299 297 295 294 293 294 294 296 297 298 299 299 300 300 300 301 304 303 301 301
309 308 309 311 312 315 308 313 309 305 303 300 297 295 294 293 292 290 289 289 289 290 291 293 294 295 295 296 296 294 289 286 286 286 287 287 288 288 289 291 292 293 294 294 295 296 298 299 300
312 309 309 310 310 309 309 310 308 305 305 302 298 295 294 292 291 290 289 288 288 288 288 289 289 290 290 290 290 288 286 285 285 285 286 286 286 286 286 286 286 286 286 287 289 291 293 295 296
306 308 307 306 307 311 310 310 310 307 307 302 298 296 294 292 291 290 289 288 288 287 287 287 287 286 287 287 287 286 286 285 286 285 285 285 285 285 285 285 285 285 285 285 285 285 285 287 289
307 309 314 314 313 316 309 308 309 306 304 303 300 296 294 292 290 289 288 287 287 287 287 286 286 286 286 286 286 286 286 286 285 285 284 284 284 284 284 284 284 284 284 284 284 284 284 284 284
307 310 315 317 314 312 309 313 312 301 299 298 299 296 294 292 291 290 289 287 287 287 287 286 286 285 285 286 285 285 285 285 284 284 284 283 283 283 283 283 283 283 283 283 283 283 283 283 283
308 310 309 310 296 309 312 310 304 300 300 298 296 295 294 292 291 290 290 288 287 286 286 286 286 285 285 285 285 285 285 285 284 284 284 283 283 283 283 283 282 282 282 282 282 282 282 282 282
309 308 313 309 311 312 313 310 312 305 302 298 297 296 294 293 292 290 290 289 288 287 286 285 285 286 285 285 285 285 285 285 285 285 284 284 283 283 283 283 282 282 281 281 280 281 281 280 281
311 312 310 310 309 311 308 311 303 305 301 299 298 297 295 294 293 290 290 290 289 287 286 286 286 286 285 285 285 286 286 285 285 285 284 283 282 282 282 281 281 280 280 280 280 280 280 280 279
308 310 309 314 311 306 308 314 301 302 300 300 299 297 295 293 291 291 291 290 289 288 287 286 286 286 286 286 286 286 286 285 285 284 284 283 282 281 280 279 279 278 278 278 278 278 278 278 278

GFSSGP_925_thetae_033.txt.gz
Theta_e
315 317 318 316 319 317 317 317 313 316 316 314 313 315 316 314 315 319 321 325 328 331 336 341 342 342 342 343 339 336 336 335 333 332 331 329 329 330 339 339 337 336 336 334 331 325 324 323 324
316 318 316 310 316 317 318 313 316 315 314 312 313 313 314 316 313 317 323 327 328 332 335 338 341 343 343 343 340 336 335 335 333 330 328 328 328 331 337 337 336 335 334 334 332 323 322 322 321
317 316 314 312 312 316 317 313 314 314 313 313 313 312 313 315 314 318 323 326 328 332 333 336 339 342 342 342 338 335 335 335 334 332 330 329 329 332 336 335 334 332 332 332 331 326 321 321 319
316 312 309 312 314 312 313 312 312 314 313 312 312 314 311 313 315 320 324 328 328 331 332 335 336 338 341 342 341 337 336 335 334 333 332 333 331 329 333 333 332 330 329 329 330 328 324 319 316
312 308 313 314 314 313 310 312 312 313 313 312 312 314 312 313 320 322 324 326 327 331 333 334 336 336 339 341 341 340 337 336 336 335 334 336 335 330 333 332 331 328 328 326 326 326 323 318 311
312 308 313 314 313 311 312 310 312 311 310 311 312 311 311 312 315 320 323 324 327 330 333 334 334 336 337 339 340 340 338 337 338 337 335 337 335 331 330 330 330 326 327 326 325 324 321 315 305
311 310 311 311 312 313 313 308 311 311 311 312 311 312 310 309 313 314 323 323 326 331 333 335 335 335 336 338 340 339 339 337 336 336 335 336 335 334 332 331 329 327 324 326 323 323 320 312 301
307 309 311 311 313 313 312 310 310 311 312 308 309 310 310 306 312 316 320 321 323 325 330 334 335 335 335 336 337 338 338 336 336 335 334 334 335 335 335 333 331 329 327 326 324 322 320 311 301
304 307 309 312 311 313 311 313 310 308 310 309 308 306 303 305 310 313 312 311 311 312 317 323 332 335 338 342 339 338 336 336 336 336 334 334 334 334 332 332 331 330 327 326 324 323 320 315 303
307 306 308 309 309 312 312 312 311 311 310 310 309 304 304 304 304 303 302 302 305 307 308 310 319 329 337 338 336 338 338 336 335 334 333 332 333 332 331 331 332 330 328 326 325 324 322 317 308
309 308 308 312 311 312 312 312 310 312 311 310 310 304 301 301 300 300 300 300 301 304 307 309 310 316 327 335 337 335 336 337 333 333 333 332 332 331 332 332 330 329 328 327 325 324 323 321 315
314 312 311 313 312 312 313 311 312 311 309 303 302 300 299 299 299 298 298 299 302 304 307 310 311 310 315 328 332 333 333 334 334 333 332 329 329 332 333 333 330 329 329 327 326 324 323 322 318
315 313 311 312 311 311 309 311 311 308 302 301 300 299 298 298 297 298 298 300 301 305 308 312 314 314 312 317 331 332 332 332 333 333 332 331 330 331 331 329 329 328 329 328 327 325 323 322 320
310 311 310 309 309 309 310 309 309 304 301 300 299 298 297 297 296 297 298 299 302 304 309 315 318 318 314 316 330 330 330 329 329 329 330 331 330 329 330 330 328 328 327 327 327 325 323 322 321
309 311 308 309 308 309 307 310 309 303 302 300 299 297 297 296 295 295 296 297 299 303 309 316 319 322 324 324 326 326 327 326 327 326 328 329 330 329 327 326 325 325 325 325 326 324 323 321 319
309 307 312 310 310 309 309 314 307 302 304 301 299 297 297 295 294 295 296 297 300 305 311 314 317 319 320 322 323 325 325 325 325 325 325 325 326 326 325 325 324 323 322 321 320 319 317 317 316
306 312 309 310 309 309 310 313 307 303 303 301 299 298 297 295 294 294 295 296 298 302 308 312 316 317 318 319 320 319 318 318 317 318 318 319 320 320 320 320 319 320 320 319 318 316 315 314 313
311 310 308 309 310 309 309 309 306 304 303 300 298 297 296 295 293 292 294 296 298 301 304 307 309 312 314 315 315 313 312 308 308 309 310 311 312 314 315 315 314 315 315 315 314 313 313 313 311
308 308 309 308 308 311 310 309 309 303 300 299 298 297 295 294 292 292 293 295 296 300 303 305 306 306 308 309 309 307 303 302 303 302 304 305 306 306 307 307 307 308 308 306 307 309 310 308 307
307 308 308 307 307 309 309 309 307 304 302 301 298 296 295 294 292 291 291 293 294 295 297 300 302 304 305 305 301 299 297 295 295 296 297 297 299 300 300 300 299 300 300 301 301 302 303 303 302
307 308 307 310 309 308 309 310 307 303 301 299 297 295 294 293 292 290 290 290 292 293 294 296 298 300 300 299 298 296 294 293 292 291 291 291 292 292 293 294 294 294 294 294 295 297 298 298 299
308 306 307 309 311 314 308 315 309 305 303 300 297 295 294 293 291 289 288 288 289 290 293 295 296 296 296 296 296 294 290 286 285 286 286 286 286 286 286 286 287 287 287 287 287 290 292 294 294
311 306 307 309 310 310 309 311 309 305 306 302 298 295 294 292 290 289 288 287 287 288 289 290 291 291 291 292 292 290 286 285 285 286 286 285 285 285 285 285 285 285 285 284 284 285 285 285 286
305 307 307 306 307 311 311 312 311 308 307 302 299 296 294 292 290 289 288 287 287 287 287 288 288 287 288 287 287 286 286 286 286 285 285 284 284 284 284 284 284 284 284 284 284 284 284 284 284
306 309 314 315 314 316 307 308 310 307 304 303 301 297 294 292 290 289 287 287 287 286 286 286 286 285 286 286 286 286 286 285 285 285 284 284 284 284 283 283 283 283 283 283 283 283 283 283 283
307 310 315 316 315 313 308 312 313 303 299 299 299 297 294 292 291 289 288 287 287 287 286 286 286 285 286 286 286 285 285 285 284 284 284 283 283 283 283 283 282 282 282 282 282 282 282 282 282
308 311 309 308 295 309 312 310 307 301 300 298 297 296 295 293 291 290 289 287 287 287 286 286 285 285 285 285 285 285 285 285 285 284 284 283 283 282 282 282 282 282 281 281 281 281 281 281 281
308 307 312 309 313 313 312 312 314 306 303 298 297 297 295 293 291 290 290 288 287 286 286 286 285 285 285 285 285 285 285 285 285 285 284 283 283 282 282 282 282 281 281 281 281 281 281 280 280
311 311 309 310 311 314 311 312 304 306 303 300 298 297 296 294 293 291 290 290 288 286 286 285 285 285 285 285 285 285 285 285 285 285 284 284 283 282 282 281 281 280 280 280 280 280 280 279 279
308 309 310 314 311 306 309 314 302 302 301 300 299 297 295 295 293 292 291 291 289 287 286 285 285 285 285 285 285 285 285 285 285 285 284 284 283 282 281 280 279 279 279 279 279 278 278 277 277

GFSSGP_925_thetae_036.txt.gz
Theta_e
314 317 319 322 325 323 322 321 319 320 319 319 318 319 319 319 319 321 323 326 329 336 341 342 342 343 342 342 338 336 336 335 334 332 331 331 330 336 340 337 336 336 335 334 332 328 323 322 323
316 317 319 322 322 320 321 320 320 320 319 318 318 318 319 319 319 322 326 326 330 336 340 344 341 343 342 342 339 336 336 335 333 331 329 329 329 337 338 336 334 333 333 332 332 325 321 321 320
317 316 323 323 321 320 321 320 320 319 317 318 318 317 318 319 320 322 325 327 332 336 340 344 341 342 342 342 341 336 335 335 334 332 331 330 330 335 335 333 332 330 330 331 331 327 322 319 317
318 319 318 320 320 318 319 318 319 319 318 317 317 318 316 318 321 324 327 330 334 336 339 342 341 342 343 342 340 336 336 336 335 333 332 331 330 330 334 333 331 329 326 327 327 327 323 319 312
315 320 321 320 319 317 317 317 318 319 317 317 316 317 317 315 319 325 328 331 333 336 338 340 339 340 341 341 341 340 337 336 335 335 334 335 332 331 333 332 331 327 326 325 325 324 320 316 308
320 319 321 320 318 317 317 316 317 316 315 316 316 316 317 314 315 321 325 329 333 336 336 339 337 338 339 340 340 340 339 337 336 337 336 336 334 330 331 331 330 327 327 325 323 321 318 313 303
320 320 321 320 319 318 318 314 316 316 316 316 315 316 316 312 312 321 320 322 326 333 336 338 339 337 338 338 339 339 339 338 336 337 336 335 335 333 331 331 329 328 326 326 324 321 318 310 301
317 319 319 319 318 319 317 315 314 316 316 313 314 315 316 311 308 313 313 313 316 325 331 334 335 337 337 340 339 340 339 338 336 335 335 334 335 335 334 333 332 330 328 327 326 325 322 313 302
312 316 318 319 318 318 316 316 314 313 315 314 312 311 308 306 308 311 311 310 310 309 313 321 331 333 337 337 339 338 338 337 336 335 335 334 336 335 333 332 331 330 328 327 326 325 324 321 310
316 316 315 316 316 318 316 316 316 315 316 314 313 309 306 306 307 308 308 308 308 307 307 308 313 325 334 335 335 336 336 338 338 337 335 334 334 333 332 330 331 331 330 327 326 325 324 323 319
315 315 312 314 315 316 317 316 315 316 316 315 315 311 307 307 306 306 306 305 305 305 307 308 309 311 321 333 333 334 334 336 337 335 333 332 331 331 330 331 331 330 329 327 326 325 324 323 322
317 315 315 316 316 315 317 316 316 315 314 308 307 306 306 306 305 304 304 304 304 305 307 309 312 311 311 324 332 332 333 333 333 333 332 334 332 328 330 331 332 330 329 328 327 325 324 322 322
318 317 315 315 314 315 313 316 315 313 308 306 305 305 305 304 303 303 302 303 304 305 307 309 314 316 313 319 331 332 332 333 334 333 332 332 330 331 331 331 330 330 328 328 327 326 324 321 320
314 314 315 314 313 313 314 314 313 309 307 306 306 305 304 302 301 303 302 303 303 305 307 310 318 319 318 326 329 331 330 329 330 329 329 331 331 331 329 329 329 327 327 326 326 324 323 322 319
313 315 315 314 312 313 312 313 313 309 307 307 305 304 302 301 301 300 300 301 302 305 307 314 317 318 320 324 326 327 327 327 327 327 327 326 326 327 326 327 326 325 325 324 324 324 323 321 319
314 314 319 314 313 311 313 320 312 308 308 308 306 304 302 300 299 299 298 299 300 303 306 313 315 318 321 322 322 322 322 322 320 321 319 323 323 324 323 323 321 321 322 322 321 321 319 318 318
314 320 317 317 312 313 314 319 312 308 309 309 306 304 302 301 299 298 297 298 299 301 304 310 313 314 316 317 320 319 318 318 314 315 316 318 317 318 318 316 315 316 316 316 315 315 314 314 314
320 317 316 318 314 313 315 316 311 308 309 309 306 304 302 301 298 296 296 297 298 301 303 308 313 314 316 314 312 311 310 307 305 305 306 308 310 308 308 307 308 308 308 307 309 309 309 308 307
316 316 318 315 312 314 316 316 314 310 308 308 306 304 302 300 297 296 295 296 298 299 301 302 303 303 306 306 305 302 299 296 296 298 299 301 302 302 301 300 300 301 301 301 303 306 307 305 303
313 316 317 314 311 313 315 315 315 310 310 309 306 304 302 300 298 296 295 295 296 296 298 300 302 301 301 301 299 296 294 291 291 292 294 295 298 298 297 296 295 295 296 296 298 299 303 303 301
313 315 316 316 312 311 313 316 316 311 307 305 304 303 301 301 299 297 295 294 294 294 295 297 299 301 301 301 298 294 292 291 290 289 289 289 290 290 290 289 289 289 289 289 290 293 296 299 299
316 312 312 313 314 319 313 323 317 314 310 305 303 302 301 299 297 295 294 293 292 291 291 293 294 295 295 294 294 294 292 290 288 287 286 287 287 286 286 286 286 286 286 286 286 287 288 290 290
317 310 312 312 315 315 315 318 320 310 312 308 304 302 301 299 297 295 293 291 289 290 290 290 291 293 293 293 292 291 289 288 287 287 286 285 285 285 285 285 285 285 285 284 284 285 286 286 287
309 312 311 312 314 320 319 318 321 315 314 311 305 302 300 298 296 293 291 289 289 288 288 289 289 289 290 290 289 289 288 287 287 286 286 285 285 284 284 284 284 284 284 283 283 283 283 284 285
312 316 322 321 320 323 311 316 320 315 309 310 306 302 300 297 295 293 291 290 289 288 288 287 287 287 287 288 287 287 287 287 286 286 286 286 285 284 284 283 283 283 283 283 283 283 283 283 283
313 318 324 328 323 321 310 317 317 308 305 304 306 303 300 298 295 294 292 290 289 288 288 287 287 286 286 286 286 286 286 286 285 285 285 285 284 283 283 283 283 282 282 282 282 282 282 282 282
312 314 315 314 306 319 318 314 313 305 305 303 304 302 300 298 296 295 292 290 289 288 288 287 287 286 286 285 285 285 285 285 285 285 284 284 283 283 283 282 282 282 281 281 282 281 281 281 281
312 312 316 316 325 325 319 318 320 311 309 304 303 302 301 299 297 295 292 290 289 289 287 287 286 286 286 285 285 285 285 285 285 285 284 284 283 283 282 282 281 281 281 281 281 281 280 280 281
312 313 313 315 318 326 325 320 314 315 311 307 305 303 302 299 298 296 294 291 289 288 287 286 286 286 285 285 285 285 285 285 285 285 284 284 283 282 282 282 281 280 280 280 279 279 279 279 279
312 314 314 319 318 314 316 321 306 308 309 307 306 303 302 300 298 297 295 292 289 288 287 287 286 286 286 285 285 285 285 285 285 284 284 283 283 282 282 281 280 280 280 279 278 278 278 278 278

GFSSGP_925_thetae_042.txt.gz
Theta_e
318 320 321 325 331 326 323 321 319 320 319 318 319 317 318 319 323 329 331 331 334 345 342 341 341 340 339 335 335 334 335 333 331 334 333 331 339 338 336 332 333 332 331 331 329 325 321 320 322
317 320 323 326 327 323 320 319 319 318 318 318 319 318 317 321 323 326 329 332 334 343 343 344 341 341 340 337 336 336 335 333 331 329 329 336 338 337 334 330 326 328 331 331 328 322 319 317 316
320 320 324 327 324 322 320 319 317 317 318 319 318 317 319 322 325 328 328 332 335 341 344 343 341 341 340 339 336 338 337 335 332 330 329 333 336 333 332 330 326 324 328 328 327 322 318 314 310
320 323 321 322 323 320 319 318 317 317 317 318 317 318 318 325 326 330 331 332 336 340 343 344 341 341 340 340 338 336 337 335 334 333 331 335 334 333 333 330 328 324 323 320 319 316 314 310 305
319 322 325 322 320 319 318 318 319 318 317 317 318 319 318 319 326 327 330 333 336 338 342 343 341 341 340 339 339 336 335 336 335 334 333 331 333 334 332 330 327 326 325 324 317 311 309 303 302
323 322 323 321 319 318 318 319 319 317 314 316 316 318 317 318 325 326 332 334 337 339 341 341 340 341 341 341 340 339 338 335 334 335 335 333 332 332 331 329 329 329 328 326 325 323 310 302 300
323 323 323 321 318 318 318 318 317 316 316 316 316 317 314 313 317 320 321 325 334 338 339 340 339 339 340 341 341 340 339 337 335 336 336 334 332 331 330 330 330 329 327 326 325 324 323 312 300
319 319 320 319 319 319 318 317 316 317 315 315 314 317 315 312 313 318 317 317 316 323 326 330 335 336 337 339 339 339 339 339 337 335 335 334 334 333 331 331 330 328 327 326 325 324 323 321 314
317 317 318 319 319 319 317 316 317 316 315 314 313 312 311 311 313 316 316 314 314 312 313 316 322 330 335 337 339 337 338 338 338 336 335 334 334 334 333 332 330 328 327 325 324 323 323 321 318
318 320 319 317 317 318 317 317 316 316 315 314 312 311 312 312 313 314 313 312 311 311 311 311 313 317 327 334 335 337 337 337 336 336 337 334 336 335 334 331 329 329 326 326 324 323 323 321 320
319 317 315 316 318 317 317 317 318 317 316 315 314 311 311 311 311 311 310 310 310 311 312 313 314 313 318 328 332 334 335 337 336 336 336 335 334 332 331 330 330 330 328 327 326 325 323 322 321
318 316 316 318 317 318 318 318 317 316 314 312 310 311 311 309 309 308 309 308 309 311 313 315 317 318 315 328 331 332 332 334 335 335 334 333 333 333 331 331 331 329 329 328 326 325 324 322 319
317 317 317 317 317 317 316 317 317 315 310 309 309 310 308 308 308 307 308 308 310 312 314 313 316 320 317 327 331 331 331 332 332 332 331 330 330 329 330 330 329 329 328 328 326 326 324 324 321
317 317 317 317 317 316 316 316 315 315 309 308 309 308 306 306 307 307 306 307 310 312 312 313 316 319 317 329 329 330 329 329 330 328 328 328 329 329 328 328 327 327 326 325 325 325 324 323 322
316 316 316 315 315 316 315 315 315 312 310 309 309 306 306 305 306 305 305 306 309 311 312 314 316 320 323 326 327 328 326 326 325 325 325 326 326 325 325 325 324 322 322 323 322 321 320 320 319
316 317 318 318 315 314 315 317 317 310 310 309 308 306 305 304 305 304 304 306 310 312 313 314 316 318 321 323 325 324 323 322 321 321 320 320 321 321 321 319 317 316 317 317 315 315 314 312 312
317 318 319 318 315 314 313 318 313 311 310 310 308 307 306 304 304 303 303 306 309 311 314 314 316 318 319 318 317 314 312 314 314 316 314 313 314 314 314 313 311 310 310 311 311 310 309 307 307
321 320 320 320 315 315 314 313 313 311 310 310 309 307 306 304 303 302 303 306 309 312 312 312 312 313 314 314 313 310 308 307 308 306 305 306 306 307 307 305 305 305 305 304 308 306 305 301 301
318 318 318 320 314 316 315 315 316 311 310 310 309 308 306 304 302 302 303 306 308 309 308 310 310 309 309 306 304 303 300 301 300 300 300 302 302 302 303 301 298 297 296 295 303 301 297 296 294
318 318 318 318 313 314 315 315 316 312 311 310 311 308 306 302 300 301 303 305 307 307 307 308 309 308 307 306 301 299 297 295 294 294 295 296 296 295 295 294 292 290 290 290 290 292 291 293 291
318 318 317 318 315 314 313 314 315 315 313 311 310 309 306 302 300 300 302 304 305 305 305 306 306 306 305 303 300 297 294 292 291 291 290 289 290 290 290 289 289 289 289 288 288 288 289 288 289
318 317 317 317 317 318 314 319 319 318 316 312 311 308 305 302 301 300 302 302 302 302 302 302 302 302 301 300 298 295 294 291 290 289 288 288 288 288 288 288 288 287 287 287 286 287 287 287 287
317 315 317 317 317 319 319 319 319 317 318 315 311 307 304 302 300 299 300 300 298 298 298 298 298 298 298 298 297 296 292 290 289 288 287 287 287 287 287 287 287 286 286 285 285 285 285 285 286
314 316 316 316 318 321 320 321 320 320 318 317 311 308 304 302 300 298 298 296 295 295 295 295 295 295 296 297 295 294 291 289 289 288 287 287 287 287 286 286 285 285 285 284 284 284 284 284 284
315 318 323 322 320 322 317 320 321 318 315 315 312 308 305 301 299 296 294 294 293 293 293 293 293 293 293 293 293 291 291 290 289 288 288 287 286 286 285 285 284 284 284 284 284 284 284 284 284
314 318 323 326 326 323 312 317 319 313 309 310 310 308 305 301 299 295 293 293 293 293 292 291 291 291 291 291 291 290 290 290 289 289 288 287 286 285 284 284 284 284 284 283 284 284 283 283 283
316 317 318 319 309 315 319 315 314 309 308 308 307 305 304 301 298 295 294 293 292 292 291 291 290 290 290 290 290 290 289 289 289 288 287 286 285 285 284 284 284 283 283 283 283 283 283 282 282
315 315 318 316 318 322 322 321 320 312 310 306 307 305 303 301 298 296 294 293 292 292 291 290 290 290 289 289 289 289 288 288 288 287 286 286 285 284 284 284 284 284 283 283 282 282 282 282 281
313 314 315 317 318 322 322 321 315 315 311 307 307 305 303 301 298 296 295 293 292 291 290 290 289 289 289 288 288 288 287 287 287 286 286 285 285 284 285 285 284 284 283 282 282 282 281 281 281
314 315 315 318 319 317 317 322 311 311 311 308 307 305 302 301 298 297 295 293 292 291 290 290 289 289 288 288 287 287 287 287 286 286 285 285 285 285 285 285 284 283 283 282 281 281 281 280 280

GFSSGP_925_thetae_045.txt.gz
Theta_e
314 319 320 323 322 314 318 318 315 317 317 316 315 320 321 320 325 326 331 334 343 341 338 340 340 338 335 334 335 338 338 337 337 334 333 339 338 335 334 332 330 332 331 330 327 321 318 319 321
319 320 322 317 319 314 314 314 315 316 316 313 315 315 317 323 324 326 329 331 344 342 339 341 339 338 336 335 335 338 337 333 330 329 337 338 337 335 331 325 324 329 329 329 326 322 316 314 314
320 320 317 319 315 315 315 314 313 316 316 316 315 315 318 321 325 328 331 334 343 342 340 341 340 340 339 337 336 337 333 331 329 329 334 336 335 332 329 327 325 325 327 325 318 314 312 309 308
319 319 314 315 317 314 314 312 313 315 316 315 315 317 318 324 328 330 331 335 342 343 340 340 340 339 338 338 336 336 335 332 331 330 334 335 334 332 329 327 326 324 323 314 309 308 304 303 303
319 313 318 315 316 316 315 313 312 315 314 315 316 317 317 322 326 330 333 335 340 341 342 342 340 340 339 339 337 334 335 334 333 332 333 333 333 331 329 328 328 327 326 325 323 310 302 300 302
317 313 316 315 315 315 316 317 316 312 312 313 314 314 315 321 325 331 335 337 339 342 341 341 340 340 340 339 339 337 335 334 333 334 333 332 332 331 329 329 328 326 325 324 323 322 311 300 301
318 314 317 315 313 316 316 316 314 311 313 314 313 314 312 314 320 323 331 338 338 339 340 338 341 341 340 340 339 339 337 335 334 335 334 333 332 331 330 330 328 326 325 324 323 322 320 314 302
312 311 315 314 314 316 314 315 314 313 315 312 312 312 311 311 318 318 318 321 335 337 338 336 336 337 339 340 340 339 338 338 336 335 334 334 332 331 331 330 328 327 325 324 323 323 322 321 318
312 310 312 315 315 316 313 314 315 314 312 311 309 310 310 311 316 316 314 313 312 313 319 326 333 335 335 338 338 338 338 337 337 335 334 334 334 332 332 330 329 327 325 324 323 322 322 321 320
312 311 315 314 314 314 314 314 314 314 312 311 309 309 311 312 314 313 311 310 310 311 311 312 318 327 333 334 335 336 335 336 337 336 335 334 335 334 332 330 329 328 326 324 324 323 322 321 320
315 313 313 315 317 314 315 315 315 313 313 312 311 308 309 309 309 308 309 309 310 311 312 313 313 314 323 333 333 333 337 337 335 335 335 335 335 334 331 330 329 328 327 326 326 324 323 322 320
314 314 315 316 315 316 315 315 315 314 312 309 307 308 307 306 307 308 308 309 310 312 313 313 315 315 318 329 331 332 333 335 333 335 334 333 332 332 331 330 328 328 327 326 325 325 324 323 320
316 315 315 315 315 315 315 316 315 312 307 307 308 307 305 305 306 307 308 309 310 312 313 313 316 318 317 328 330 330 331 334 333 333 333 332 332 330 329 327 327 327 326 326 325 325 324 323 322
315 314 315 315 315 315 315 315 315 310 305 306 306 304 303 305 306 306 307 308 311 312 312 314 317 318 318 327 328 329 329 330 329 330 330 329 328 328 328 327 326 326 325 325 324 323 323 322 321
314 314 313 313 314 314 313 313 313 309 306 306 305 303 303 304 305 305 306 307 311 312 312 314 317 320 324 325 327 326 326 326 327 325 325 326 326 326 325 323 322 321 321 321 321 320 320 317 316
314 314 315 315 312 313 312 313 313 307 306 306 304 302 302 302 303 304 305 308 311 312 313 314 316 319 323 324 324 323 323 321 320 320 320 320 320 320 318 317 316 315 315 314 313 312 311 310 310
314 314 314 316 312 312 312 313 312 308 307 306 304 302 302 301 302 303 305 308 310 313 313 314 315 318 320 319 319 319 318 317 315 315 316 315 315 315 315 313 311 311 312 310 308 308 305 303 306
316 315 316 316 314 312 312 311 312 308 307 306 304 303 302 301 300 302 304 308 310 312 313 314 315 316 316 315 313 311 311 309 311 312 311 310 309 309 310 308 307 306 307 306 305 300 295 296 301
315 316 317 315 313 313 312 312 311 309 307 306 305 304 303 302 300 302 304 308 310 310 312 313 313 312 313 311 309 308 304 305 305 305 305 305 305 305 304 301 298 298 301 300 292 292 292 292 297
314 315 315 314 312 312 312 312 312 310 309 308 308 306 305 300 298 301 304 307 308 310 311 312 311 310 308 308 306 303 300 298 300 299 300 299 299 298 295 293 291 291 291 290 290 290 290 289 291
315 316 315 316 314 312 312 312 312 311 309 308 308 308 305 301 299 299 302 306 307 308 310 310 308 306 305 305 303 299 296 294 294 293 292 292 292 291 291 290 290 290 290 289 288 288 289 288 288
316 314 315 316 315 316 312 318 315 313 312 309 309 306 305 300 299 299 301 304 306 307 308 307 307 306 305 304 303 301 295 292 290 290 289 289 289 289 289 289 289 289 288 288 287 287 287 288 287
315 315 315 315 315 316 315 316 315 314 316 316 311 308 304 300 299 300 301 302 305 304 305 306 306 305 303 303 302 298 293 291 289 289 288 288 288 288 288 288 288 288 287 286 286 286 286 285 286
312 314 314 314 315 318 316 317 317 318 317 317 312 306 302 300 299 299 300 302 301 301 302 302 302 299 299 298 296 296 293 289 288 288 287 287 287 287 287 287 287 286 286 285 285 285 285 284 284
314 314 318 320 317 321 316 317 319 315 314 314 311 305 301 300 298 297 296 296 297 297 298 298 298 296 297 297 295 294 292 290 289 288 287 287 286 286 286 286 286 285 285 284 284 285 284 284 284
313 315 319 322 321 319 312 317 317 314 313 307 309 307 301 299 298 296 295 294 294 295 296 295 295 295 295 295 294 292 291 290 289 289 288 288 287 287 285 285 285 284 284 285 284 284 284 283 283
313 316 316 319 302 312 317 315 313 310 308 308 307 305 302 299 297 295 293 293 293 294 294 294 294 293 293 293 292 291 290 290 289 288 288 287 286 285 285 285 285 284 284 284 284 284 283 283 282
314 312 317 314 316 318 318 318 320 314 311 307 306 305 301 299 295 294 293 292 292 293 292 293 292 292 292 292 291 290 290 290 289 289 288 287 286 285 285 285 285 284 284 284 284 283 283 282 282
314 314 315 316 315 319 320 319 313 315 312 308 306 304 302 299 296 294 293 292 292 292 291 291 291 291 291 290 290 290 289 289 289 289 287 286 285 285 285 285 285 285 285 284 284 283 282 282 281
313 315 313 319 316 313 315 322 309 311 310 307 305 304 302 300 297 294 293 291 291 291 290 290 290 290 290 290 289 289 289 288 288 287 287 286 285 285 285 284 285 285 285 285 284 283 282 281 281

GFSSGP_925_thetae_048.txt.gz
Theta_e
316 320 320 322 318 313 315 316 315 317 315 315 319 320 320 321 323 320 330 338 339 337 338 338 336 334 334 336 338 337 338 338 331 337 338 336 335 331 328 326 330 330 330 327 325 321 317 319 323
319 320 322 313 312 313 313 314 316 316 314 314 314 315 319 327 324 326 329 340 341 338 338 339 337 335 334 335 338 335 331 329 330 337 337 336 333 326 325 323 326 328 327 325 321 314 311 311 317
319 320 315 314 311 313 314 313 313 313 312 314 315 315 319 323 325 327 330 338 342 338 339 339 338 336 334 334 335 334 331 329 330 335 336 335 332 329 326 324 324 322 320 319 318 313 306 305 310
318 317 311 312 315 314 313 312 312 314 314 313 314 318 319 322 327 329 330 340 341 340 340 339 339 338 338 336 336 334 332 331 331 334 335 335 331 328 327 327 326 325 324 321 308 302 302 303 307
317 311 314 313 315 315 313 311 311 314 314 314 315 316 319 323 329 332 337 341 341 339 338 339 339 338 337 337 334 334 333 331 331 333 334 334 330 329 328 327 325 324 323 322 320 305 300 302 306
315 310 313 314 313 315 314 311 311 311 311 314 314 314 315 321 331 335 336 340 341 339 338 339 339 339 338 338 336 334 334 333 332 332 332 333 330 329 329 326 325 324 323 323 321 320 309 300 304
313 311 315 312 313 315 316 312 309 309 311 313 311 313 312 315 324 335 336 340 341 341 340 340 340 340 340 339 338 337 335 334 334 334 332 332 330 330 329 327 325 324 323 322 322 321 320 317 305
309 309 313 312 312 314 314 313 310 312 313 310 310 311 312 312 320 324 335 335 339 339 337 337 339 340 340 340 339 338 336 335 335 335 333 332 331 330 329 328 326 324 323 322 322 321 320 320 318
308 308 311 314 313 315 313 313 313 310 310 309 308 309 310 315 317 316 317 325 330 334 335 334 335 336 336 338 339 339 338 337 335 334 334 333 331 331 330 329 328 325 323 323 322 322 321 320 319
310 308 314 314 313 313 312 313 312 313 311 310 309 308 310 312 314 312 311 311 312 316 322 331 333 334 334 334 337 335 336 337 336 335 334 333 332 331 330 329 328 326 324 323 322 322 321 320 319
311 311 312 314 316 313 312 314 312 310 312 309 309 307 307 309 311 309 309 310 311 311 312 312 317 328 333 332 333 335 336 336 335 335 335 334 333 331 331 329 328 327 326 325 323 322 320 319 318
312 312 314 315 314 315 313 313 313 311 312 310 307 306 306 305 306 308 308 309 310 311 312 312 313 314 325 333 332 331 333 334 333 334 335 334 334 332 330 328 327 326 325 325 324 323 321 320 319
314 314 314 314 314 314 314 314 313 312 308 305 306 306 304 305 306 307 308 309 310 311 312 313 314 315 319 331 330 330 333 334 334 335 334 334 333 331 329 327 326 325 324 323 324 323 322 321 320
314 313 314 314 314 314 314 314 314 310 305 305 306 305 303 304 305 306 307 309 310 311 312 313 317 317 319 329 328 329 331 332 333 333 332 332 331 329 326 326 324 323 323 323 322 321 321 318 317
313 312 311 312 313 314 312 313 312 308 304 305 304 303 302 304 305 306 307 308 310 311 312 314 317 317 322 326 327 328 328 328 329 330 329 329 327 326 324 323 322 321 320 320 319 318 317 314 311
313 312 314 313 311 313 311 311 312 305 305 305 303 301 301 301 304 305 306 307 310 311 312 314 317 317 322 324 325 325 325 326 326 326 325 324 323 322 322 320 318 316 316 315 315 312 311 309 309
311 313 313 313 310 311 310 313 312 304 305 305 303 301 301 300 301 303 304 307 310 312 312 314 316 317 321 321 321 320 320 320 319 320 321 320 318 317 317 315 314 314 313 311 307 302 303 306 308
313 313 313 315 313 311 311 310 310 307 306 306 303 301 301 300 300 302 304 307 310 312 312 314 315 317 318 318 317 316 316 315 315 315 317 314 314 314 313 311 310 310 309 303 296 296 300 306 306
313 313 315 314 313 312 311 311 310 307 306 305 304 303 302 302 300 302 304 307 310 311 312 313 314 314 316 314 312 309 309 308 309 310 311 310 310 309 308 306 306 306 300 294 294 294 297 304 301
312 313 312 312 312 311 312 311 310 308 308 308 307 305 304 300 298 300 303 307 309 310 311 312 313 312 311 313 310 308 306 303 304 305 305 305 305 303 301 298 298 295 293 292 292 293 292 291 296
313 313 313 315 313 311 311 311 311 310 308 307 307 308 305 303 300 299 301 306 308 309 310 311 311 309 307 309 307 304 300 299 298 299 300 299 296 295 294 292 292 291 292 291 291 291 291 288 288
315 312 314 315 315 316 312 316 313 311 310 309 309 307 306 302 300 299 301 304 307 309 310 310 309 307 307 307 306 306 302 296 294 294 294 292 291 291 291 291 291 290 290 289 289 289 289 289 287
315 313 313 314 313 315 314 314 313 312 313 312 313 308 305 301 300 300 301 304 306 309 308 309 307 306 305 305 305 303 299 297 292 290 289 289 289 289 289 289 289 289 289 288 288 288 287 287 287
311 313 312 312 313 316 315 314 314 314 316 314 313 311 304 301 300 300 301 303 306 307 307 307 307 305 303 303 303 303 301 293 289 288 288 288 287 287 287 288 288 288 287 287 287 286 286 285 285
313 313 316 318 316 319 314 314 317 314 313 313 315 311 303 301 299 299 298 301 301 303 305 305 305 303 302 301 300 299 298 293 290 288 288 287 287 287 287 287 287 287 287 286 286 285 285 284 284
313 313 316 318 318 317 312 317 317 312 312 309 307 306 301 298 298 298 299 300 299 299 301 302 303 304 300 299 298 296 294 291 289 289 288 288 287 287 286 286 287 286 286 285 285 285 284 284 283
313 315 315 317 299 311 316 314 313 310 309 308 307 305 299 298 298 297 298 298 296 297 299 300 301 300 297 296 295 293 291 290 289 288 288 288 287 286 286 286 286 285 285 285 285 285 284 283 283
312 311 316 313 316 317 317 317 320 314 312 311 309 305 300 297 296 296 295 295 295 296 297 298 298 297 296 296 294 292 290 289 289 288 288 287 287 286 286 285 285 285 285 285 284 284 284 283 283
313 314 314 315 314 317 316 318 311 315 312 311 309 305 301 297 295 294 294 294 294 294 295 295 295 295 295 294 293 291 290 289 289 288 288 287 286 286 286 285 285 285 285 285 285 284 284 283 282
312 314 313 316 315 313 314 321 310 311 311 309 308 304 301 298 295 294 293 292 291 292 292 292 292 293 293 293 292 290 290 289 288 288 287 287 286 286 285 285 285 285 285 285 285 285 284 283 282

GFSSGP_925_thetae_054.txt.gz
Theta_e
318 319 321 316 314 310 313 314 312 314 316 317 316 313 314 321 317 312 327 338 337 336 336 336 334 331 333 335 334 336 337 338 337 334 327 327 328 326 325 325 326 326 325 324 323 325 327 330 332
318 319 319 307 311 312 312 310 313 312 318 314 314 317 322 327 323 326 332 336 337 337 336 335 332 333 335 335 338 333 337 337 336 332 330 329 328 327 325 322 320 321 321 321 322 325 327 328 328
318 317 313 309 307 311 313 312 312 314 314 312 316 316 320 324 324 325 334 338 337 337 336 334 333 335 337 335 334 329 335 336 336 333 332 332 331 330 324 321 318 313 317 318 319 323 324 325 324
317 313 306 310 314 312 313 311 311 315 313 313 316 321 319 321 323 327 338 338 337 337 337 335 333 334 335 332 330 328 333 334 335 334 331 330 329 326 326 325 322 318 313 315 317 319 319 320 317
314 307 310 311 312 312 310 310 310 313 311 313 313 317 323 324 329 330 337 337 339 338 338 336 334 333 333 333 331 329 330 334 335 335 333 331 328 327 326 325 322 321 317 311 312 314 312 311 310
311 307 310 312 312 313 311 309 309 311 311 312 314 319 320 320 331 332 338 338 337 337 338 337 336 335 335 333 332 331 330 332 333 334 331 330 327 328 328 327 325 321 320 318 313 309 306 305 304
311 309 311 310 312 314 313 306 309 309 311 312 312 317 314 316 331 335 340 339 338 335 336 338 337 337 336 335 333 332 332 331 332 334 332 329 328 326 325 325 327 324 320 319 318 314 307 303 302
305 307 309 309 311 314 311 308 308 310 311 308 308 311 316 317 331 336 339 340 338 335 336 338 338 338 337 336 334 334 333 332 332 332 331 329 329 326 325 324 323 322 321 319 317 315 312 309 308
304 306 309 310 310 312 309 312 308 307 308 309 308 308 308 320 329 332 336 338 338 338 338 339 339 336 337 337 336 336 334 333 334 332 331 330 330 328 327 325 323 322 321 320 318 317 315 313 312
304 305 309 308 307 312 310 311 309 311 310 310 309 307 309 320 324 326 329 332 334 336 338 339 337 335 336 336 336 337 336 334 334 333 332 330 330 329 329 326 324 322 322 320 318 317 316 316 314
307 307 309 312 312 311 310 311 308 308 310 308 309 307 309 313 317 323 327 332 334 334 333 333 333 333 334 334 336 336 337 336 334 333 332 331 330 330 330 327 325 324 322 321 319 318 317 316 315
310 310 309 312 312 310 310 308 310 307 310 308 305 306 308 309 310 314 321 326 328 330 331 331 332 332 333 333 333 331 335 336 334 332 333 332 330 330 330 328 326 325 323 322 321 320 318 317 315
311 311 311 313 312 312 311 312 310 309 308 306 304 305 306 308 310 312 313 315 318 320 322 323 325 329 331 332 331 330 332 335 333 332 333 333 331 330 329 327 326 325 323 322 321 320 319 317 316
312 312 312 312 312 312 314 312 312 311 305 306 304 304 304 305 309 310 309 310 310 310 311 312 312 312 315 326 330 329 329 331 332 332 331 332 332 331 329 327 326 325 323 321 321 319 317 315 313
311 312 310 310 312 312 311 311 311 309 306 307 304 303 303 303 307 309 311 310 310 310 310 311 311 312 314 315 327 327 328 329 329 332 334 334 333 330 328 327 326 324 322 321 318 316 313 311 307
311 309 312 311 311 311 310 310 308 306 306 307 304 302 302 302 304 307 309 309 309 309 310 310 311 313 315 315 325 326 326 327 328 330 331 332 332 329 328 326 324 322 321 318 316 311 309 307 304
308 311 311 311 309 311 309 310 310 305 305 306 304 302 302 301 302 305 307 308 308 308 309 310 312 314 314 316 323 324 325 327 330 331 331 331 330 328 327 324 322 320 318 315 310 309 308 303 299
312 312 311 312 312 310 310 308 307 306 305 305 303 302 301 301 303 305 306 306 306 307 309 310 312 312 314 317 321 322 324 326 327 326 328 328 326 325 324 321 319 317 315 307 307 307 304 301 297
308 311 312 310 311 311 310 309 308 308 305 304 304 303 303 303 305 304 305 305 305 306 308 310 311 311 313 316 318 318 320 321 322 323 324 324 324 323 321 320 316 311 305 303 306 304 302 297 295
311 312 311 310 310 311 310 310 309 308 306 306 307 306 305 304 300 301 303 304 304 306 308 310 311 312 313 316 317 316 318 316 318 318 318 318 319 319 317 316 311 302 298 303 305 304 300 295 296
310 310 310 312 311 308 309 310 309 308 306 306 305 306 305 306 305 300 299 301 303 305 307 310 311 311 313 314 315 314 313 311 310 310 312 312 314 314 313 311 305 296 297 302 303 302 301 297 296
312 309 310 312 313 313 310 313 310 310 309 308 308 306 306 306 303 301 299 299 302 304 306 309 311 311 312 313 313 314 313 304 306 310 310 310 310 309 308 305 296 293 294 298 301 300 297 295 292
312 310 310 312 311 313 311 313 311 310 311 311 311 309 306 305 302 301 300 301 302 303 305 308 310 310 311 311 311 311 310 309 309 306 305 304 303 303 303 296 292 292 292 292 291 291 291 290 290
309 311 310 309 310 315 312 312 313 311 312 311 310 310 307 304 301 300 300 301 301 303 305 307 309 308 308 309 310 309 311 307 302 298 298 296 297 296 292 291 291 291 291 291 291 290 290 289 289
311 313 315 313 313 316 310 312 314 310 310 309 311 309 306 305 301 298 297 298 301 302 304 306 307 306 307 306 306 305 308 308 307 301 298 294 291 289 289 290 290 290 290 290 290 289 289 288 287
311 313 314 313 312 311 310 314 313 309 308 307 306 306 306 303 300 297 296 298 301 302 303 304 305 304 305 305 304 304 305 305 302 302 298 297 292 290 289 289 289 289 289 289 289 288 288 287 286
312 314 312 313 297 309 310 309 309 309 309 308 307 306 306 302 301 297 296 299 300 301 302 303 304 303 304 303 302 302 302 301 299 298 296 292 291 289 288 288 288 288 288 288 288 288 287 286 285
311 310 314 311 313 311 311 312 313 315 311 310 309 309 307 303 301 296 295 298 300 301 302 303 304 302 303 302 301 300 300 299 298 298 296 292 289 288 287 287 288 287 287 287 287 286 285 285 284
312 313 312 312 311 312 311 313 308 311 311 311 310 309 307 304 300 296 295 297 299 301 301 302 303 302 300 300 300 298 298 298 299 297 294 290 288 288 287 287 287 287 286 286 286 285 285 285 285
309 311 311 312 311 309 311 316 309 309 308 308 309 309 307 303 300 296 294 296 297 299 299 300 300 300 301 301 298 297 300 297 296 294 291 289 288 287 287 286 286 286 286 285 285 285 285 285 285

GFSSGP_925_thetae_057.txt.gz
Theta_e
316 318 320 315 319 316 315 315 311 313 316 315 312 313 316 320 315 315 330 337 336 336 336 336 336 334 333 335 337 338 338 334 330 330 331 330 328 327 326 326 326 326 326 330 331 334 333 332 329
318 319 317 310 316 316 316 311 314 312 319 317 315 319 323 328 324 327 333 337 336 336 336 335 331 330 333 334 336 337 338 334 331 332 331 329 329 327 324 322 322 322 324 327 329 331 331 329 326
318 316 317 312 311 315 315 311 312 315 315 311 318 318 321 326 323 325 330 336 336 336 336 333 331 334 334 336 332 336 337 335 334 333 332 332 330 328 326 321 319 319 322 324 326 327 327 324 321
317 313 308 314 314 312 313 311 311 316 314 311 316 322 319 321 324 328 338 336 336 336 335 332 333 335 335 335 330 335 336 335 334 334 333 332 328 326 324 322 316 317 319 320 321 323 322 318 314
313 309 313 313 312 311 308 309 313 315 311 314 313 318 323 322 327 331 338 337 336 336 335 333 334 334 333 330 329 332 335 335 334 333 332 329 329 328 327 325 322 317 317 317 317 317 314 308 304
313 308 314 314 312 312 310 308 312 311 310 312 315 320 321 322 328 330 338 338 337 337 336 334 333 333 333 331 330 329 334 335 334 332 331 328 328 329 327 326 324 321 319 316 314 308 303 302 302
313 312 312 311 312 312 311 306 309 310 311 313 314 320 315 317 330 331 338 338 338 337 337 335 334 334 334 332 331 330 330 333 334 331 330 327 326 325 326 325 324 323 321 317 314 307 304 302 301
307 309 310 309 312 314 310 308 308 310 311 308 310 314 315 319 331 334 339 338 337 337 337 337 336 336 335 334 333 332 331 332 333 332 329 328 326 324 323 323 322 322 319 316 314 312 311 309 308
303 310 311 311 310 313 306 310 306 306 309 308 308 308 309 320 331 334 337 337 337 335 337 337 337 337 336 335 334 334 332 332 332 332 329 329 326 325 324 322 322 320 318 317 314 313 312 311 310
305 308 310 308 307 311 308 310 308 310 310 310 308 306 308 322 327 329 331 332 334 335 337 338 338 336 336 335 335 335 334 333 333 332 330 330 328 327 326 323 322 321 319 317 316 314 313 313 311
306 306 307 310 310 310 310 309 307 309 310 309 310 308 309 318 321 327 331 335 335 335 336 338 338 335 335 334 335 334 334 334 333 333 331 330 329 328 328 324 323 322 320 319 317 315 314 312 311
311 309 308 311 311 309 309 307 309 307 310 308 306 307 309 313 318 323 328 333 333 332 334 335 336 333 333 333 333 333 334 334 333 333 332 331 330 329 329 326 324 322 322 321 318 316 314 311 309
310 310 310 311 311 310 308 310 309 308 306 306 305 306 309 313 316 319 327 330 331 330 330 331 331 331 331 331 331 332 331 334 334 333 332 331 330 329 329 327 325 323 322 322 320 318 316 313 310
311 311 311 311 311 311 312 311 311 310 305 307 305 306 307 310 312 313 316 322 324 326 327 327 328 328 329 330 331 331 330 331 335 334 333 332 331 330 329 327 325 323 323 321 320 318 315 312 309
309 312 310 309 311 312 311 311 311 309 307 307 306 304 304 306 309 312 314 314 315 315 317 317 317 316 317 321 327 330 329 330 335 334 333 332 332 331 329 327 325 323 322 320 319 316 313 309 302
310 308 312 310 310 311 311 311 309 306 307 308 306 304 303 304 305 309 313 313 312 310 310 310 311 311 311 312 314 327 327 328 328 329 331 331 332 331 329 327 325 323 321 320 316 314 308 302 299
308 310 311 311 309 310 309 311 309 305 305 306 305 304 303 303 303 306 308 311 311 310 310 310 310 310 311 314 315 323 326 326 326 327 328 331 332 331 328 327 324 321 320 317 315 310 307 300 294
311 312 310 311 311 309 310 309 308 306 306 307 305 304 304 304 305 306 308 308 309 309 309 309 309 310 313 314 315 321 324 325 325 326 329 330 330 329 327 324 323 319 319 315 312 308 301 298 292
308 310 311 309 309 311 310 309 309 308 305 305 306 305 305 304 306 306 307 307 307 307 307 308 309 311 312 314 315 318 320 323 324 327 328 328 328 328 325 324 320 319 318 314 309 306 300 291 290
310 311 311 309 309 310 310 311 310 308 310 309 309 309 307 307 303 303 304 305 306 306 306 307 309 311 312 312 315 315 319 321 322 323 323 322 325 323 322 321 319 318 315 308 307 304 294 290 292
309 310 310 311 310 308 308 310 309 308 306 307 306 308 307 308 308 304 300 303 303 304 305 307 308 310 311 312 314 315 316 316 315 316 320 321 322 321 321 320 318 313 309 306 306 304 300 293 294
311 307 309 311 312 313 309 312 310 309 309 308 308 307 307 307 305 303 300 300 302 304 305 306 307 309 311 312 313 315 314 310 311 317 318 318 318 318 317 316 313 309 303 304 305 303 301 299 298
311 307 308 310 311 312 311 313 312 309 310 310 310 309 308 306 304 304 301 302 303 302 303 305 306 308 310 311 313 313 313 314 315 314 313 312 312 311 312 311 307 301 299 303 304 302 300 300 299
307 309 309 308 310 314 311 312 310 309 311 310 309 309 308 305 303 301 302 302 301 302 303 304 305 307 309 310 311 313 312 311 309 308 307 307 307 306 307 305 299 295 300 302 301 300 297 296 294
310 311 313 312 314 317 309 311 313 309 308 308 310 310 307 305 304 302 299 298 299 301 302 303 304 306 308 309 309 310 310 311 311 311 308 306 303 302 303 300 294 292 294 296 293 291 290 290 290
310 311 312 311 310 309 309 313 312 308 307 306 305 305 305 305 303 302 299 298 299 300 302 302 302 304 305 307 308 309 309 309 308 309 308 307 307 305 302 295 291 291 290 290 290 289 289 289 288
311 313 310 311 296 308 309 307 306 307 308 308 308 306 305 304 303 302 299 298 299 300 301 302 302 303 304 305 305 306 306 306 304 304 305 303 303 303 297 291 290 289 289 289 289 289 288 287 287
310 309 313 310 311 309 309 309 311 311 312 309 308 307 306 304 303 301 297 297 299 300 301 302 302 303 303 303 304 304 304 303 303 303 303 303 301 296 291 289 289 288 288 288 288 287 287 286 286
311 312 311 310 310 311 309 311 306 309 308 309 308 308 308 306 303 301 297 297 299 300 301 301 302 302 301 301 303 304 303 301 301 302 301 300 297 293 289 288 288 287 287 287 287 287 286 286 285
308 310 311 312 310 308 309 314 309 308 309 308 308 308 307 305 303 299 297 297 297 299 300 300 301 301 302 301 301 304 303 300 299 298 298 298 295 291 289 288 287 287 286 286 286 286 286 286 285

GFSSGP_925_thetae_060.txt.gz
Theta_e
316 318 320 322 325 323 322 321 318 319 320 318 318 319 321 322 319 325 335 339 339 339 339 337 336 334 335 337 338 337 332 334 333 332 330 328 327 327 327 327 327 331 332 335 334 332 330 328 326
317 318 320 321 324 323 320 319 319 319 321 320 321 324 325 329 330 335 339 338 339 339 339 339 335 332 335 337 337 337 331 331 333 333 331 330 327 324 323 324 326 329 330 332 331 330 327 325 323
318 317 325 324 323 321 319 319 319 321 321 320 322 322 325 329 330 337 335 338 339 339 339 339 332 331 334 336 337 337 331 331 333 333 332 332 330 324 321 322 324 326 327 328 327 325 322 321 322
319 319 318 322 322 319 319 318 318 322 317 315 321 324 324 325 331 331 338 338 339 339 339 334 331 333 334 334 337 337 334 334 334 333 332 331 329 326 321 320 322 323 324 325 323 320 316 313 314
316 320 322 322 321 318 316 316 320 319 317 319 321 323 326 325 327 333 339 339 339 339 338 335 333 333 334 331 334 336 335 333 333 333 331 328 327 326 324 320 319 319 320 320 318 315 310 311 312
322 319 322 322 320 317 316 316 320 318 316 318 318 322 325 324 328 334 339 340 339 339 338 338 335 334 333 329 332 335 335 333 333 332 330 328 325 325 325 324 322 319 318 317 315 313 309 310 311
322 322 322 320 319 318 317 316 319 318 317 318 319 322 321 324 330 333 338 340 339 339 338 338 338 335 333 330 330 333 335 334 332 330 330 327 325 324 323 323 323 320 318 316 310 305 304 304 307
319 321 320 318 318 319 316 316 315 317 317 314 319 319 320 324 329 333 337 339 339 340 339 338 338 337 336 335 331 331 333 334 332 331 328 326 325 323 322 321 320 319 317 314 312 310 308 305 307
312 319 320 319 318 318 314 316 311 311 315 316 316 315 316 325 328 332 335 335 336 337 339 338 338 338 338 337 334 332 332 333 333 330 328 326 328 327 327 323 319 318 316 315 314 312 312 311 312
317 319 318 316 316 317 315 315 314 315 315 316 315 312 312 325 330 334 335 335 335 336 336 338 338 338 338 337 335 335 335 334 334 333 330 331 331 329 327 323 319 318 317 314 313 313 312 312 314
313 317 312 314 313 314 315 313 313 315 316 317 317 316 313 326 330 334 335 335 335 334 334 335 337 337 337 336 334 333 335 336 335 334 333 332 331 326 326 321 319 318 317 314 312 311 310 311 312
314 312 313 315 315 314 314 314 314 314 318 314 315 315 314 324 328 332 334 335 335 334 333 333 334 336 335 334 334 334 334 334 333 333 332 330 330 328 326 325 320 318 317 316 314 311 309 309 308
314 313 312 314 313 313 311 314 315 314 315 312 311 311 314 319 326 328 332 334 334 331 331 330 335 335 334 333 333 333 334 333 332 333 332 331 330 329 327 325 322 320 319 319 318 314 310 308 304
314 314 314 314 314 314 315 315 314 316 315 312 312 313 314 316 321 326 328 331 332 330 329 327 333 334 331 332 331 332 332 333 334 332 332 331 330 329 329 326 323 321 320 319 319 316 312 307 301
312 316 315 314 314 315 313 315 315 316 312 314 314 314 313 313 316 321 323 326 329 327 326 324 329 329 329 329 328 330 331 331 331 334 333 332 330 329 330 327 324 322 320 319 318 315 311 307 297
315 316 317 314 313 314 314 317 316 311 313 315 316 315 314 313 313 315 318 322 323 323 321 323 327 327 326 323 324 328 329 329 330 332 333 331 331 330 330 328 325 322 320 318 317 315 308 300 296
316 316 317 316 313 314 315 318 316 311 311 314 315 315 315 314 312 311 314 315 316 315 314 315 318 317 316 316 318 321 328 327 329 332 334 331 331 330 330 328 325 321 319 317 315 312 307 297 294
316 317 315 316 314 313 316 316 316 315 312 315 316 316 315 313 314 312 310 311 313 312 311 311 311 312 314 315 316 316 318 325 326 328 329 328 330 331 330 328 324 322 317 316 313 311 299 296 292
314 315 315 314 312 315 316 317 316 316 316 315 315 316 316 316 315 312 311 309 309 310 310 311 311 312 314 314 315 315 317 323 324 325 326 326 327 331 330 327 323 320 318 315 312 307 296 293 291
314 316 316 315 312 313 316 316 316 316 316 316 317 317 317 317 316 313 310 309 308 309 309 310 311 312 313 313 314 314 313 320 322 324 325 324 327 329 328 326 321 321 313 310 309 305 295 293 292
314 316 315 315 313 312 314 316 317 316 314 314 315 315 316 316 316 316 311 309 308 308 309 309 310 311 312 313 313 309 313 316 318 319 322 324 324 326 326 325 323 319 314 311 310 303 298 294 293
315 313 314 314 315 316 313 314 315 315 315 314 315 316 316 315 315 314 313 309 308 308 308 308 309 310 311 312 310 310 313 313 313 318 321 321 321 323 319 323 322 318 315 310 307 303 300 296 295
315 311 313 313 316 316 316 316 314 313 314 315 316 316 317 316 315 314 312 310 309 307 307 308 308 309 310 311 310 311 313 314 314 317 319 317 318 320 320 320 319 315 314 309 305 302 299 297 298
311 314 314 315 317 317 315 316 314 314 315 315 315 315 316 315 314 312 310 308 307 306 306 307 308 308 309 309 310 310 312 313 309 313 313 313 314 314 315 316 314 313 310 307 304 302 299 298 297
313 316 316 319 321 318 314 316 315 314 313 313 315 315 314 312 312 312 311 307 305 304 305 306 307 307 308 308 309 310 311 310 309 309 309 310 309 309 312 312 310 309 305 302 301 300 298 298 297
314 316 316 320 318 314 311 316 316 315 313 312 312 313 313 310 312 312 312 309 306 304 305 306 306 307 307 306 308 308 310 308 308 308 307 307 310 314 313 311 307 304 299 299 300 300 299 297 294
314 315 314 315 308 314 313 314 314 313 312 312 313 314 315 313 312 312 311 308 305 304 305 305 305 305 306 305 307 307 307 306 306 306 306 306 309 310 311 308 303 298 296 300 300 299 297 290 288
313 313 316 315 322 319 313 314 315 315 315 316 313 313 314 313 313 312 310 307 304 304 304 304 305 305 305 304 305 305 303 304 306 306 304 305 306 306 307 305 299 293 292 293 293 290 288 288 287
313 314 314 314 316 318 317 314 314 315 315 314 314 313 314 313 312 311 309 305 303 303 303 304 304 304 304 303 304 303 302 304 305 304 303 302 303 305 304 301 296 291 289 288 288 288 287 287 287
312 314 314 316 318 315 316 317 311 313 314 313 314 312 312 311 310 308 307 304 303 302 303 303 304 304 304 302 303 302 301 300 302 302 302 300 302 302 301 298 290 288 288 288 287 287 287 287 286

GFSSGP_925_thetae_063.txt.gz
Theta_e
318 320 322 325 327 323 323 322 322 321 324 321 324 322 323 323 322 334 338 340 339 336 337 334 335 335 336 337 336 329 332 333 332 330 329 329 328 328 329 331 331 335 335 334 332 330 327 325 325
320 319 323 325 326 324 322 321 321 321 323 321 322 323 324 330 331 337 339 340 340 340 339 338 335 334 336 337 337 330 333 334 332 331 329 327 326 326 327 330 331 333 331 330 329 327 325 324 325
319 317 326 326 324 323 321 321 321 322 323 322 322 324 325 331 332 338 340 339 340 340 340 340 335 333 336 337 337 331 331 334 334 333 332 327 324 324 326 328 329 330 329 327 325 324 323 324 325
321 322 322 324 324 322 320 320 320 324 320 320 322 324 325 328 335 336 339 339 339 339 340 340 333 332 335 337 337 332 329 334 334 333 332 329 324 322 324 325 326 327 326 323 321 321 321 322 322
321 323 324 324 323 321 319 319 321 322 320 320 321 323 326 328 331 337 339 339 339 339 339 336 331 333 334 336 336 334 331 334 334 332 331 329 326 322 322 323 323 323 321 318 318 319 320 321 319
322 323 323 324 322 321 319 319 321 320 319 321 320 321 326 328 331 336 339 338 338 339 339 337 333 333 335 333 336 335 333 333 333 331 330 329 328 325 323 321 321 320 318 316 316 317 319 315 315
324 323 323 323 321 320 320 319 321 320 318 319 320 321 324 328 329 335 337 337 337 338 339 338 337 335 334 330 333 334 334 333 332 332 330 327 327 325 324 322 321 319 317 315 314 316 316 312 314
322 322 322 321 321 320 319 319 320 319 318 318 320 321 321 324 330 335 336 336 336 338 338 338 338 337 336 334 332 334 334 332 332 331 327 324 323 322 321 321 321 319 317 315 312 309 309 312 317
318 320 320 321 321 319 318 319 316 317 318 318 320 318 321 325 330 334 336 336 337 338 338 338 337 337 336 336 334 333 334 334 331 330 326 326 326 325 326 322 319 317 316 314 312 309 309 313 317
320 320 320 320 319 319 318 318 318 317 317 318 318 317 319 327 329 333 334 335 336 338 338 337 337 338 338 337 336 335 335 334 333 331 327 330 328 328 325 320 317 316 315 314 313 313 315 317 316
319 320 318 317 317 317 318 317 317 317 318 318 318 318 318 327 328 330 332 332 334 336 337 337 337 337 338 337 337 336 335 335 334 333 330 330 328 327 323 319 317 315 315 313 312 313 314 315 315
315 315 315 317 317 316 317 317 317 317 318 317 319 318 317 326 328 329 331 331 332 334 335 336 337 338 338 337 337 337 336 335 335 333 332 331 330 327 325 322 321 318 316 316 315 313 313 312 312
314 315 314 316 316 316 315 316 317 318 318 316 315 315 318 321 325 328 329 331 332 333 334 335 336 336 337 337 336 337 337 335 335 335 333 333 331 328 326 325 322 318 317 317 314 312 310 308 308
316 315 316 316 316 316 316 317 316 317 318 318 316 316 317 318 321 325 328 330 332 334 334 334 335 334 335 334 334 335 335 336 334 333 333 332 330 329 327 326 321 319 318 316 314 315 313 306 304
316 316 316 316 316 316 316 317 316 316 316 317 317 316 317 317 317 322 326 329 331 334 333 333 333 332 333 332 333 333 334 334 335 335 333 332 331 330 329 326 323 320 320 316 314 313 315 306 299
316 317 316 317 316 316 317 316 318 316 317 317 317 317 317 317 316 317 322 326 329 332 333 332 330 329 330 331 331 331 333 333 333 334 334 333 332 330 329 328 325 321 320 317 314 310 311 304 298
318 316 317 318 316 317 317 318 318 316 315 316 317 317 317 317 317 316 317 321 324 328 330 331 328 326 327 327 329 330 331 332 332 332 333 333 332 331 330 328 326 324 320 316 314 305 309 302 297
316 317 316 317 317 315 317 318 317 317 317 317 318 318 318 317 317 316 315 317 320 324 326 326 325 324 324 324 324 325 328 329 330 330 330 331 332 330 330 328 327 323 319 316 309 304 303 301 296
316 316 316 316 315 316 316 316 316 317 317 317 317 317 317 318 318 317 316 314 317 318 319 320 320 319 320 319 319 320 320 319 325 327 327 329 332 330 330 329 327 323 321 313 310 304 301 297 294
316 316 316 316 316 315 316 316 316 317 317 317 317 317 317 318 318 318 317 315 314 315 317 316 315 315 315 316 317 318 318 317 317 321 324 328 330 330 329 329 327 323 318 312 306 302 298 295 293
316 316 315 316 316 315 316 317 316 317 317 317 317 317 317 318 318 318 319 315 314 313 314 314 314 314 315 316 316 316 316 315 312 316 321 323 325 326 327 327 327 323 319 312 307 304 301 295 294
314 315 315 315 315 315 316 316 315 316 316 317 317 318 317 318 318 317 318 317 314 313 313 313 313 313 314 315 315 316 313 312 312 314 319 321 322 322 324 326 324 323 316 314 311 307 303 300 296
316 314 315 316 317 318 317 317 315 315 315 316 317 318 318 319 319 318 318 316 315 313 313 312 312 313 313 314 314 315 312 313 314 314 317 317 319 321 323 322 320 316 313 312 310 305 301 300 298
314 316 317 317 317 316 316 316 315 316 315 316 316 317 318 317 317 317 315 315 314 313 312 312 312 312 312 313 314 314 312 314 316 313 313 311 315 318 321 317 317 316 313 310 309 306 302 300 299
315 316 315 317 321 318 316 316 316 315 315 316 316 316 317 316 316 316 315 312 311 311 310 311 311 311 311 312 312 313 313 314 315 312 310 309 312 315 317 316 313 314 313 312 310 306 302 300 300
316 316 317 319 319 318 314 317 316 316 316 316 315 315 316 316 315 315 316 315 312 310 309 309 310 310 310 311 311 311 312 313 314 314 309 310 313 317 317 315 315 314 312 309 308 305 301 300 299
315 317 316 318 318 316 315 315 315 316 315 315 315 315 316 316 317 315 315 314 313 310 309 309 309 309 310 310 310 310 311 312 313 311 312 309 313 314 315 315 314 311 310 307 305 302 300 298 297
314 314 316 315 323 320 315 315 316 316 316 316 316 316 316 316 316 316 315 314 311 309 309 309 309 309 308 309 309 309 310 310 312 310 310 309 308 308 310 312 311 310 307 303 299 298 297 295 294
314 314 314 315 316 318 319 316 316 316 316 316 317 317 316 316 316 314 314 311 309 308 308 308 308 308 308 308 308 307 309 309 309 308 307 305 305 307 308 309 309 307 303 299 296 295 294 293 292
314 314 314 316 317 316 317 318 316 315 315 316 315 316 316 315 314 313 312 310 308 307 307 307 307 307 307 307 306 306 307 306 306 305 303 302 304 305 304 304 303 302 298 295 294 293 292 291 289

GFSSGP_925_thetae_069.txt.gz
Theta_e
313 319 319 322 322 317 319 319 316 320 319 318 319 319 326 328 337 339 335 336 336 333 332 332 333 335 334 334 329 331 332 332 331 331 331 332 333 335 336 334 331 330 329 328 327 326 328 328 326
313 319 320 317 320 316 316 316 318 319 317 318 320 321 324 333 335 334 333 337 337 335 332 332 333 336 335 331 330 331 331 331 329 329 329 330 332 334 335 333 328 329 327 326 326 327 328 328 326
317 320 316 320 316 316 317 317 318 318 317 319 321 321 326 332 336 335 337 337 337 333 333 332 333 335 336 330 331 330 332 332 330 328 328 329 330 332 332 329 328 327 326 326 326 327 328 326 325
319 318 313 316 319 317 315 317 317 317 317 317 319 323 325 328 338 339 337 336 336 336 333 332 333 335 336 330 329 332 333 333 331 328 327 329 329 330 330 328 326 325 325 325 325 326 325 323 327
319 314 319 320 319 316 314 317 318 318 316 318 319 323 327 336 339 339 338 337 338 338 337 334 332 335 336 332 328 333 334 333 331 327 327 327 327 328 328 325 323 323 323 324 323 325 322 322 325
316 313 318 319 318 316 315 315 317 315 315 317 318 321 325 336 339 339 339 340 340 339 338 337 332 334 336 335 330 333 334 332 331 328 326 326 325 326 324 322 321 322 322 322 322 323 321 320 320
319 318 317 319 315 317 316 315 315 313 315 317 316 321 326 330 338 339 339 339 339 340 339 335 331 334 335 335 332 332 333 331 330 328 325 323 323 323 323 320 320 321 321 321 321 322 322 321 322
313 315 318 317 317 317 315 317 316 314 316 316 317 318 326 327 337 338 338 337 336 339 338 332 331 333 334 335 334 332 333 331 328 327 323 322 321 320 319 318 318 320 321 321 321 322 322 322 322
314 313 314 317 318 316 314 316 314 314 315 316 317 317 320 330 337 338 338 337 337 335 336 332 332 334 333 333 334 333 332 331 329 325 323 321 320 319 319 317 317 318 319 319 316 320 320 319 319
312 311 315 314 314 315 315 315 314 315 314 315 315 315 325 330 335 336 336 335 337 336 336 336 333 334 334 331 333 334 333 332 330 325 323 321 321 320 318 317 316 315 312 309 316 318 318 317 317
316 315 314 314 315 314 315 315 312 312 313 312 314 313 326 331 332 333 335 335 336 334 333 334 335 334 334 333 331 333 333 332 331 326 323 324 325 323 319 317 316 315 311 313 316 316 316 316 316
314 314 313 315 315 315 315 313 315 312 313 313 312 312 324 326 328 331 333 334 336 335 333 334 334 333 334 334 333 331 333 333 331 327 327 325 326 324 319 317 316 315 314 315 316 316 316 315 314
312 313 313 314 314 314 314 314 314 313 311 311 312 313 323 325 326 330 333 334 334 336 335 335 334 333 333 333 334 333 331 333 332 330 328 328 327 326 320 317 317 315 314 314 314 314 315 314 312
314 313 313 314 314 314 314 313 313 312 310 311 310 311 315 321 324 326 329 332 333 334 336 336 336 335 333 335 335 334 333 333 333 332 328 329 328 327 324 318 315 315 314 314 314 314 314 312 311
314 313 313 312 313 314 313 309 312 310 313 311 309 307 310 314 323 324 327 328 331 331 334 336 336 335 334 334 336 334 335 334 334 333 332 329 330 328 327 321 317 316 316 316 314 312 311 310 309
314 313 312 313 312 314 311 307 309 311 309 311 309 307 307 308 314 323 325 326 327 330 331 333 334 336 335 335 336 336 336 336 335 334 334 332 331 330 328 325 322 318 318 317 314 311 309 308 307
313 310 311 314 312 314 313 311 313 311 311 309 308 308 307 306 308 315 321 324 326 328 330 332 334 335 335 336 337 336 336 336 335 335 334 333 332 332 330 327 324 321 318 317 315 310 310 304 301
313 313 313 313 314 313 313 311 310 310 312 310 309 308 307 307 308 312 315 318 323 326 329 331 333 334 334 335 335 335 335 334 334 335 334 334 333 333 331 329 326 323 319 317 314 311 306 303 298
313 314 313 312 313 313 312 311 310 310 308 307 307 307 307 308 310 313 314 316 318 323 326 330 333 333 334 334 334 334 333 333 333 334 334 333 334 333 331 329 327 325 321 319 316 309 304 298 295
314 314 312 311 313 313 311 311 309 309 310 309 309 306 306 307 308 310 312 314 315 318 325 328 331 333 333 333 332 331 331 331 331 332 332 330 331 330 332 330 328 326 321 317 314 308 299 296 295
314 313 312 312 312 311 310 309 310 310 309 309 308 307 308 308 308 307 309 312 314 316 320 325 329 332 332 331 330 329 328 328 329 330 330 330 329 329 329 329 328 326 323 318 316 309 304 297 294
313 312 312 312 311 310 311 310 310 311 309 308 308 307 307 307 307 307 308 310 312 314 316 320 324 328 331 331 328 327 326 324 325 326 328 329 329 327 326 328 328 326 323 318 316 313 308 303 296
312 313 313 313 313 314 312 311 309 308 309 308 307 306 307 307 307 308 308 311 313 314 315 316 320 325 328 329 328 325 323 322 322 321 322 324 326 326 324 324 326 324 321 319 317 310 305 304 302
312 313 313 313 311 310 311 309 307 308 309 311 311 310 309 312 312 312 313 314 313 313 313 314 317 320 323 324 324 322 320 318 318 318 316 317 316 317 321 320 322 322 320 318 316 314 310 308 305
313 310 310 313 313 310 309 309 309 309 309 311 313 311 309 310 310 308 309 310 312 313 313 313 314 316 317 317 318 318 318 317 316 316 315 314 313 312 311 313 316 318 319 318 316 313 310 311 303
312 309 310 312 316 313 309 312 312 308 310 311 312 308 307 307 306 307 306 309 311 310 312 313 312 312 314 314 314 314 315 315 315 315 315 314 313 312 311 311 313 316 316 315 314 313 310 309 305
312 313 311 312 300 309 310 309 308 309 308 309 307 309 309 309 309 309 308 309 310 311 310 311 312 312 312 312 313 313 314 314 315 314 314 314 313 313 313 312 312 314 314 313 313 312 310 307 306
311 311 313 311 310 311 309 309 311 309 309 311 312 313 309 309 309 307 306 309 311 311 311 310 310 310 311 311 311 312 312 313 313 314 314 313 313 313 313 312 311 310 311 311 311 309 310 307 305
311 311 312 311 311 312 311 310 306 309 311 311 312 310 310 311 310 308 307 309 310 310 310 309 309 309 309 309 310 311 311 311 312 312 313 313 312 313 312 312 311 308 307 307 308 307 308 307 305
309 310 310 312 311 309 311 313 309 307 308 309 309 309 308 310 309 307 307 308 308 309 309 309 309 309 309 309 309 309 310 310 310 311 311 311 311 312 312 311 310 308 307 306 306 306 306 306 303

GFSSGP_925_thetae_072.txt.gz
Theta_e
313 316 319 321 320 314 317 317 318 320 319 318 317 322 325 328 337 329 334 336 331 330 332 333 333 334 335 325 328 331 332 332 332 332 334 335 336 336 334 332 330 329 327 327 329 329 329 329 329
314 319 320 314 317 315 315 315 319 318 316 316 318 321 326 336 335 332 334 335 330 331 332 333 334 334 331 326 325 327 331 331 331 331 332 334 336 335 332 331 329 328 327 328 329 329 329 328 326
319 320 315 317 312 314 315 317 317 316 315 318 319 320 325 337 332 333 334 336 330 331 332 332 335 335 330 326 326 329 331 330 329 330 331 333 334 333 331 329 327 327 327 327 329 328 328 329 326
319 316 311 314 316 315 313 317 316 315 316 317 318 327 325 329 333 333 336 336 335 332 332 331 335 336 330 327 329 333 332 330 329 330 330 330 332 331 328 327 326 326 326 327 327 327 325 329 325
317 312 316 317 318 315 316 315 314 316 315 317 319 323 331 335 338 337 335 336 335 332 332 331 334 336 331 328 331 333 332 331 329 330 329 329 330 328 326 325 325 325 325 327 327 326 328 328 327
314 312 316 317 316 315 315 315 314 314 314 316 319 325 328 336 337 336 336 336 334 333 333 331 334 335 333 329 332 333 332 330 328 328 328 328 328 326 323 324 324 324 324 325 326 326 327 324 323
316 315 316 318 315 316 314 312 313 314 315 317 314 325 325 333 337 336 336 336 338 338 335 333 332 335 335 330 332 332 332 329 326 325 325 325 324 323 321 322 323 323 322 324 326 325 324 321 319
312 313 317 316 314 316 314 315 311 313 314 314 315 325 328 330 338 337 337 338 339 338 338 336 332 334 335 333 332 332 331 328 325 323 322 321 321 319 317 319 322 322 322 323 323 323 323 320 320
310 313 313 316 315 316 313 316 313 312 314 315 314 316 319 335 337 337 338 338 338 339 338 335 332 333 335 334 332 332 332 329 326 323 321 320 319 318 316 317 319 319 322 321 321 321 321 322 322
310 311 313 313 312 314 313 314 313 314 314 315 314 317 325 334 337 336 334 337 337 337 337 334 331 332 334 335 333 333 332 330 327 324 322 320 319 318 317 316 316 314 318 317 319 319 319 319 321
313 312 313 314 314 313 313 313 311 310 313 311 313 316 325 331 334 335 335 336 337 336 335 333 331 332 333 334 334 333 332 331 328 324 322 320 319 318 317 316 316 314 312 318 318 318 318 317 318
314 312 312 313 314 313 314 312 313 310 311 311 309 317 326 329 331 333 334 334 335 335 335 334 333 332 332 332 332 333 333 332 330 325 322 321 322 319 318 317 316 312 314 316 316 316 316 316 316
312 311 313 313 312 313 313 313 313 311 309 310 309 320 326 329 330 332 334 335 335 335 335 333 333 334 333 333 331 331 332 332 331 327 323 323 325 323 319 317 316 313 313 315 316 316 315 315 315
312 312 312 313 313 313 313 312 313 311 309 308 309 317 323 325 327 328 330 333 333 335 334 333 333 333 333 333 333 332 331 332 332 329 325 325 326 325 323 318 316 314 315 316 315 315 315 314 314
312 311 311 312 312 313 312 308 310 309 308 309 308 309 316 320 324 325 329 331 333 334 335 333 334 334 334 333 332 333 332 332 332 331 327 327 327 327 325 320 317 315 314 314 314 314 314 312 312
311 309 308 309 311 313 308 306 307 308 307 309 307 305 306 310 319 324 325 329 332 332 333 334 334 334 334 333 333 333 333 333 332 332 331 328 328 328 326 323 319 315 314 314 314 313 312 311 310
309 307 310 310 310 313 311 309 309 310 310 309 306 305 304 305 307 316 323 325 326 330 331 332 335 335 335 335 334 334 334 334 333 333 332 332 329 329 328 326 324 317 313 314 314 313 312 308 307
311 312 311 310 312 312 313 310 309 308 310 308 307 305 305 305 306 310 314 319 323 325 327 330 332 335 335 335 334 335 335 335 334 334 334 333 332 330 329 328 326 323 316 315 313 312 309 308 304
310 312 312 311 312 312 311 310 309 308 307 306 305 305 305 305 308 309 311 312 316 322 324 326 329 331 333 334 334 334 335 335 335 335 335 334 333 332 331 328 326 325 320 318 315 310 306 300 300
311 312 311 310 312 312 310 309 308 307 308 307 307 305 304 305 305 308 311 311 311 315 320 324 327 329 332 333 333 333 334 334 335 335 335 334 333 333 331 329 328 326 321 317 312 310 302 298 296
312 311 311 311 310 309 309 306 307 308 308 308 306 305 304 304 304 304 306 309 311 311 314 320 324 328 330 332 332 332 332 331 332 332 333 333 333 333 332 330 329 328 323 319 314 310 306 299 295
312 311 311 311 310 309 308 307 307 308 308 306 305 303 303 304 304 305 305 307 309 312 313 315 321 326 329 331 331 331 330 329 329 330 331 331 331 332 331 330 328 328 326 321 318 311 309 302 296
310 311 312 312 311 312 310 309 306 307 308 306 305 305 308 308 307 309 309 311 312 310 311 312 317 323 327 329 331 331 329 328 328 327 327 328 329 329 330 329 327 326 325 323 320 314 306 305 301
310 311 309 310 307 308 308 306 305 306 308 310 309 308 305 306 305 305 308 310 311 313 312 311 313 319 325 328 329 329 328 326 325 325 325 325 326 327 328 328 327 326 325 322 320 318 315 306 305
309 307 308 309 310 308 307 307 306 307 307 309 308 306 305 304 305 305 305 307 309 310 311 311 311 314 318 323 325 326 327 326 326 324 323 322 322 321 323 325 323 323 323 322 320 317 313 310 304
309 307 308 308 311 309 308 310 310 308 307 307 305 306 307 307 306 307 306 307 309 311 311 311 312 312 313 316 320 323 324 324 323 322 320 319 318 318 317 316 316 317 318 318 316 316 314 311 307
312 311 307 309 298 308 308 307 307 307 307 307 308 307 308 308 307 307 307 310 310 312 312 312 311 311 312 312 312 314 315 316 317 317 316 315 315 314 314 314 313 312 311 312 312 312 312 310 307
310 309 312 309 307 308 308 308 309 309 310 308 308 308 308 307 307 306 306 309 310 310 311 311 310 310 310 310 311 311 312 312 313 313 314 314 314 314 313 313 312 312 310 309 310 309 310 310 307
311 311 310 310 309 310 309 309 305 308 308 308 309 307 306 306 306 306 307 309 309 309 309 309 309 310 310 310 309 310 310 311 311 312 312 313 313 313 313 312 312 312 311 308 308 308 308 308 307
308 310 310 311 310 308 310 311 307 306 306 308 308 307 305 305 305 304 305 307 307 308 309 309 309 309 311 311 310 310 310 310 310 310 311 311 311 312 312 311 311 311 311 309 306 306 306 306 305

GFSSGP_925_thetae_075.txt.gz
Theta_e
312 314 319 320 321 312 316 316 318 319 319 317 317 320 320 327 325 320 333 335 331 329 332 334 334 334 327 330 330 330 333 333 334 335 335 337 337 334 333 330 329 328 329 329 329 329 330 330 328
314 319 320 312 314 315 314 313 318 317 316 320 321 322 327 335 334 331 334 334 330 329 332 334 335 334 326 328 328 329 332 332 333 335 336 335 334 333 331 329 328 328 329 329 329 330 330 329 328
318 319 315 315 309 314 314 315 316 316 314 317 319 321 326 334 330 333 334 332 330 330 332 333 334 333 326 325 326 329 330 331 331 333 334 335 333 331 330 328 328 328 329 329 328 330 329 329 328
318 315 310 311 315 314 314 314 314 315 316 316 320 327 326 332 333 334 334 330 330 331 332 333 335 331 327 324 327 330 331 330 331 331 333 333 331 330 328 327 327 327 328 327 327 329 329 328 328
315 310 314 316 316 314 315 314 312 316 316 317 319 324 332 332 335 334 334 330 330 331 332 333 335 332 326 325 331 330 331 330 331 330 330 330 329 327 327 326 326 326 327 326 328 330 329 327 326
313 310 315 316 315 313 316 314 314 314 314 315 323 330 332 333 336 335 335 331 331 331 331 333 335 334 327 327 332 331 328 328 330 329 330 329 327 326 325 325 325 325 326 326 327 328 327 325 324
314 313 314 315 314 315 314 312 312 313 314 316 320 325 324 332 336 335 335 335 333 332 332 332 334 335 330 329 332 331 330 326 326 326 327 327 325 324 324 324 324 324 325 326 327 326 324 322 321
312 312 316 315 313 316 312 312 311 314 315 311 318 324 332 332 335 335 336 336 333 332 332 331 334 335 332 329 332 331 331 326 325 326 325 324 322 321 321 322 323 324 324 325 324 324 323 319 319
309 312 314 314 313 315 311 314 311 311 313 314 313 319 319 336 334 334 335 335 335 335 334 333 333 335 334 330 332 332 330 326 324 324 322 322 320 317 318 320 321 323 323 324 323 324 319 319 320
310 312 313 312 311 313 312 313 311 314 314 314 314 318 323 335 334 334 336 336 337 339 336 336 332 334 335 333 332 332 331 328 325 323 321 320 319 316 316 318 318 321 321 322 320 320 321 321 321
311 313 310 313 313 312 313 313 311 310 313 311 313 318 325 331 333 333 334 336 337 339 338 337 333 332 334 334 332 332 332 330 326 323 322 320 318 317 316 316 316 317 317 318 318 319 319 321 320
313 312 310 313 313 312 312 311 312 309 311 310 309 316 325 329 332 332 333 335 336 337 337 337 334 332 333 335 334 333 332 330 328 325 323 320 319 318 317 316 316 313 315 316 317 318 318 317 318
312 310 312 312 312 312 312 312 311 310 307 308 307 321 325 329 333 334 334 334 335 335 336 336 334 332 332 333 334 333 332 331 330 327 324 321 320 319 318 317 316 313 314 315 316 316 316 316 316
309 310 311 311 311 311 311 311 312 310 308 308 309 318 322 326 330 331 333 333 334 335 335 334 333 331 331 332 332 333 334 331 331 329 326 322 322 323 320 318 317 314 315 316 315 315 315 315 315
310 310 311 311 311 312 310 308 310 308 306 309 307 308 318 322 326 328 333 333 334 334 335 334 334 332 332 332 332 331 333 335 330 331 329 324 323 324 323 319 318 316 314 315 315 315 315 314 314
310 307 306 307 310 311 307 305 306 307 308 308 307 303 306 313 320 325 328 330 332 333 333 334 334 333 333 333 332 332 331 332 332 330 330 327 325 325 325 321 319 317 314 316 315 315 314 314 313
307 305 308 309 309 312 310 309 307 308 307 308 306 304 303 304 307 318 324 326 327 330 332 333 333 333 333 333 333 333 332 332 334 331 331 330 327 327 326 325 323 318 315 315 314 313 313 312 312
309 309 309 309 311 311 311 310 308 307 309 306 305 304 303 303 304 309 314 320 323 325 329 332 333 333 333 333 333 333 333 333 333 333 334 331 329 328 328 326 325 321 316 314 313 313 310 310 309
307 310 311 310 311 312 311 309 309 307 306 305 305 304 303 303 306 308 310 310 313 320 323 327 330 332 333 333 333 332 332 332 332 335 334 334 332 330 329 327 325 323 319 316 313 312 310 305 305
310 311 311 310 311 312 310 309 307 306 307 306 306 304 303 302 302 304 307 308 309 310 315 321 324 328 329 332 333 332 332 332 332 334 335 335 335 331 330 328 326 325 322 317 313 312 306 304 302
310 309 310 310 309 307 307 305 304 305 305 306 305 304 302 302 302 302 304 306 308 309 310 313 318 322 326 329 331 332 332 332 332 332 334 334 333 334 332 329 326 326 326 321 318 315 309 302 300
312 309 309 310 308 307 306 305 306 306 305 305 303 301 303 303 303 303 305 308 308 308 308 309 313 319 323 326 330 331 331 330 330 331 332 332 334 334 334 332 329 328 327 323 322 317 314 306 299
310 310 310 310 308 310 309 307 306 304 306 307 305 304 303 303 303 303 304 307 309 311 310 308 309 314 320 325 328 330 330 330 330 330 330 331 332 332 331 330 330 328 325 324 322 317 311 307 305
308 308 306 308 305 306 306 304 304 304 307 307 305 305 305 304 305 305 309 310 310 311 311 312 311 311 317 323 326 329 329 329 329 328 328 328 329 329 329 330 330 329 327 324 322 321 317 312 307
307 305 306 307 308 306 306 306 305 305 306 307 307 307 306 305 305 304 304 307 310 312 312 311 311 311 313 320 324 326 328 328 329 328 327 327 326 326 327 327 327 327 326 325 322 319 316 314 308
307 306 307 306 307 307 307 310 308 307 304 304 306 306 304 304 304 304 305 306 309 310 311 311 310 311 311 312 315 320 324 325 326 326 325 324 324 324 324 323 324 324 324 323 321 318 316 315 312
311 308 305 306 295 306 306 306 306 305 306 307 307 306 305 305 305 305 306 307 308 309 310 310 310 310 310 310 311 311 313 317 320 321 321 321 320 319 318 317 317 317 318 319 316 316 315 314 312
309 308 310 307 306 306 306 307 307 309 309 308 307 306 305 305 305 305 306 307 309 309 309 309 309 309 309 309 309 310 310 311 311 312 313 313 314 314 314 314 313 313 313 313 312 312 312 311 311
310 310 308 309 308 310 307 308 304 308 308 308 308 307 306 304 304 303 305 308 307 308 308 308 308 307 307 308 308 308 309 309 310 310 311 311 311 312 312 312 312 312 312 311 310 308 309 309 309
308 309 308 311 309 307 309 310 306 307 306 307 308 308 305 304 303 303 304 305 305 305 305 306 307 307 306 306 306 307 308 308 308 309 309 309 309 310 310 310 310 310 310 310 308 307 307 308 308

GFSSGP_925_thetae_078.txt.gz
Theta_e
313 315 318 318 319 311 315 318 318 318 318 316 316 317 318 324 321 317 332 334 329 330 332 333 336 332 333 333 332 332 333 335 336 337 339 336 334 333 331 329 329 330 329 328 330 329 328 327 327
314 318 319 310 316 314 313 312 320 317 317 322 319 322 326 331 332 330 332 334 328 331 333 334 336 329 331 329 328 331 333 334 334 336 336 334 332 331 329 328 329 329 329 329 329 329 328 327 326
317 317 314 313 309 314 313 313 316 315 317 316 321 322 326 331 330 331 334 332 328 331 333 335 335 327 327 324 326 327 330 332 334 335 335 332 330 329 328 328 329 328 329 328 328 328 327 327 326
318 314 309 313 315 313 313 313 313 315 315 314 321 325 325 331 331 332 334 330 329 332 333 334 335 326 325 323 325 326 330 331 332 333 333 331 328 327 327 327 328 327 326 327 328 328 328 326 326
314 310 314 314 315 313 312 313 311 315 315 317 318 324 332 331 333 333 332 330 328 332 332 333 334 326 324 326 327 328 330 331 331 332 332 328 328 327 327 327 328 327 325 328 329 329 326 325 324
312 309 314 315 314 313 315 313 312 313 313 315 323 329 332 330 333 333 330 330 330 331 332 334 334 328 325 327 329 328 328 330 330 331 330 328 327 327 326 326 326 326 325 326 329 326 325 324 324
313 311 314 314 314 316 316 311 313 313 314 315 321 327 323 330 334 334 330 330 330 331 332 334 335 331 325 328 330 329 327 329 329 329 329 327 326 326 325 325 325 326 325 326 326 326 324 324 323
310 311 315 313 312 315 311 313 311 313 314 312 318 320 326 331 335 334 333 330 330 331 331 333 335 333 328 329 331 330 326 326 325 326 326 323 322 322 323 323 324 325 325 325 325 325 323 321 320
308 312 313 314 312 315 309 313 309 310 312 312 313 317 319 333 334 334 334 333 332 332 332 332 334 334 330 329 331 330 328 324 324 324 324 322 319 319 320 320 323 323 324 324 324 323 319 318 318
310 312 313 311 310 312 310 313 310 313 313 313 313 315 321 333 333 333 334 334 333 333 335 332 333 334 333 330 332 331 330 326 324 323 322 321 318 317 318 319 322 322 323 322 324 319 319 320 321
310 312 311 312 311 311 311 312 310 311 313 311 312 315 325 331 332 332 334 334 333 334 334 335 334 335 335 331 332 332 331 328 325 323 322 321 318 316 318 318 320 320 321 320 319 320 320 321 321
313 311 309 312 312 311 312 309 311 309 311 309 307 315 325 328 330 331 333 335 334 334 334 338 337 336 338 334 332 332 331 330 327 324 322 320 318 317 317 317 316 317 316 315 317 318 319 320 320
311 310 311 311 310 310 311 311 311 309 307 306 307 320 326 329 331 332 333 334 335 335 336 337 339 335 336 334 335 333 331 331 329 326 323 321 319 318 317 317 316 315 314 315 316 317 317 317 318
309 309 311 311 310 310 311 309 311 309 306 307 310 316 321 326 329 331 332 333 334 335 336 337 338 335 333 336 333 334 331 332 330 329 326 323 321 319 318 317 317 316 314 315 316 316 316 316 316
308 309 310 310 310 311 310 308 309 307 305 309 307 307 315 320 326 330 333 333 334 334 334 335 335 335 333 333 335 333 330 332 332 330 329 326 323 320 320 319 318 317 315 315 316 315 315 315 315
308 304 307 307 309 310 306 305 305 305 306 308 305 303 303 308 321 327 330 332 334 334 334 334 334 335 333 332 333 333 333 331 330 330 330 328 325 322 322 322 320 318 315 315 315 315 315 315 315
305 304 306 307 309 311 308 307 307 307 306 307 305 303 303 302 305 316 324 327 330 332 332 333 333 334 333 332 331 331 331 332 331 329 332 329 328 325 323 324 324 320 317 315 315 315 314 313 313
307 307 308 307 310 310 310 309 307 306 307 306 304 303 302 302 303 307 310 317 323 326 328 330 331 333 333 333 332 332 333 333 332 328 328 329 329 328 324 325 325 323 319 316 315 315 313 312 312
305 308 309 309 310 311 310 308 308 307 306 305 304 303 302 302 304 306 308 308 309 315 323 325 327 330 332 332 331 332 331 332 331 330 329 328 329 328 327 324 325 324 323 321 317 315 312 310 309
308 309 310 309 310 311 308 308 307 306 306 306 305 303 302 302 301 302 304 306 307 308 311 318 322 326 329 331 332 331 331 331 332 330 329 329 329 329 328 327 325 325 324 321 318 316 312 309 309
309 308 309 309 307 306 305 304 303 305 304 302 301 301 301 300 300 301 303 305 305 306 307 309 314 320 324 328 330 331 331 331 331 330 329 329 329 330 329 328 327 326 325 321 320 318 311 309 307
310 307 308 308 307 308 305 304 305 305 303 304 302 301 302 301 302 302 304 306 308 309 308 307 307 311 317 323 328 330 330 330 330 330 330 329 329 329 330 329 326 327 326 324 324 322 317 309 304
310 308 308 307 307 308 308 306 305 302 306 304 304 304 303 303 303 303 304 306 306 309 310 310 309 309 312 318 323 327 329 329 329 330 329 329 328 329 329 329 328 325 326 325 325 321 315 311 308
306 306 305 305 304 305 305 303 302 303 306 307 306 304 304 303 303 303 306 308 308 309 310 310 311 312 313 317 322 325 326 328 328 329 329 329 329 329 329 330 330 328 327 326 324 323 319 316 312
306 305 306 306 306 304 305 305 303 305 305 307 307 305 303 303 303 303 303 305 308 308 309 309 309 309 310 314 320 324 326 327 327 328 328 328 328 328 328 328 328 328 328 327 325 321 320 319 314
306 306 306 306 306 306 306 308 306 305 303 305 304 305 303 303 303 302 303 305 306 307 308 308 308 309 309 309 309 312 318 322 324 325 325 325 325 325 326 326 326 324 325 325 323 321 320 318 316
309 307 304 305 294 306 305 305 306 306 307 305 305 305 304 304 303 302 304 305 306 306 306 306 306 307 307 308 309 309 309 309 310 314 317 319 320 320 320 319 319 319 319 319 320 320 318 317 315
308 305 309 305 303 305 305 306 305 310 309 308 307 306 304 303 302 302 303 304 305 306 306 307 307 306 306 307 307 307 307 308 308 308 309 310 311 311 312 312 313 313 313 314 315 314 314 314 314
309 309 307 307 307 307 306 307 302 309 307 307 307 306 303 303 302 301 303 303 304 305 305 305 305 305 305 306 307 307 307 306 306 306 307 307 308 308 309 309 310 310 311 311 311 310 310 311 311
307 308 307 309 308 306 308 309 306 307 306 306 308 306 303 303 302 301 302 303 303 303 303 303 303 303 303 304 305 305 305 306 306 306 305 305 306 306 306 307 307 308 308 309 309 309 308 307 307

GFSSGP_925_thetae_084.txt.gz
Theta_e
314 315 318 323 323 323 323 324 325 326 324 321 331 329 329 328 327 330 333 334 335 334 334 334 329 330 331 331 332 333 336 336 336 335 334 332 331 332 330 328 329 331 329 329 329 329 327 328 327
314 317 321 323 326 321 320 322 327 324 323 325 325 326 327 331 335 334 335 333 334 334 333 333 329 330 328 329 332 333 335 336 337 335 333 331 330 331 330 329 330 331 330 329 328 329 330 328 327
315 317 321 324 324 322 320 320 326 323 322 322 326 327 328 331 333 334 335 333 333 334 338 337 332 330 328 327 330 332 335 336 336 334 332 329 330 331 330 327 328 330 329 329 328 326 327 327 326
319 319 318 324 323 318 318 319 322 325 320 319 326 326 331 332 333 334 334 333 333 336 338 336 329 327 325 324 326 332 336 336 335 334 330 329 329 330 329 327 326 329 330 329 329 330 326 325 325
317 321 322 321 320 317 316 319 322 325 321 322 323 326 331 333 333 334 333 333 335 336 338 337 327 326 323 329 329 332 334 334 334 331 329 329 329 329 327 327 324 327 326 328 329 327 325 323 323
319 320 323 322 319 318 319 318 321 321 320 322 324 326 331 333 334 334 332 332 335 336 338 336 327 324 325 327 328 327 331 333 330 327 329 328 328 328 328 326 325 330 329 328 326 325 324 322 322
321 323 323 321 320 320 320 317 319 319 320 321 325 323 330 335 334 334 331 333 335 336 338 337 333 328 327 328 328 328 325 328 329 327 326 326 326 326 327 325 324 327 328 325 324 324 323 322 321
319 321 320 319 319 319 319 318 317 318 319 320 325 321 328 334 334 333 331 332 335 336 337 338 335 332 332 331 327 327 326 326 328 326 324 324 324 323 325 325 324 326 325 324 325 324 323 322 321
314 321 323 320 319 318 317 319 314 314 318 321 323 320 329 335 333 333 331 332 334 335 336 338 337 333 333 333 330 326 326 325 327 328 323 322 325 324 324 325 324 324 324 324 324 325 323 321 320
320 321 322 318 317 318 318 318 317 317 317 318 320 319 331 335 333 333 333 332 333 334 335 337 337 335 333 332 332 331 329 329 329 328 325 324 324 323 323 324 323 324 323 322 322 323 320 320 322
316 319 317 314 314 316 317 316 316 317 318 318 318 318 330 335 335 333 332 332 333 333 333 334 336 335 334 333 333 332 330 329 329 328 325 323 322 321 322 324 323 322 322 322 321 319 321 322 322
316 313 314 315 314 314 317 315 316 316 317 313 315 317 329 335 335 334 333 332 333 333 333 333 333 334 334 334 333 333 332 330 328 327 324 323 322 322 323 323 324 323 322 322 321 321 321 321 322
316 313 313 312 312 313 313 314 315 315 313 311 311 317 326 333 334 334 333 333 333 333 334 333 333 334 334 333 333 333 332 331 329 327 324 323 322 322 323 323 323 323 322 321 321 320 320 319 320
312 314 313 312 312 311 313 312 312 312 310 311 312 317 323 330 333 334 334 334 335 335 335 334 333 333 333 333 333 333 332 331 330 328 326 323 322 321 322 322 322 322 321 320 319 319 319 319 319
311 314 313 312 312 313 312 312 313 310 309 311 312 314 319 327 332 333 333 334 335 335 335 334 334 332 332 332 332 332 332 330 330 330 327 326 323 322 321 322 322 321 320 316 316 317 317 317 317
311 313 315 310 312 312 310 315 308 310 310 311 311 312 312 317 328 331 332 333 333 335 335 335 334 333 332 332 332 332 332 331 330 329 329 327 326 323 321 321 321 320 319 317 316 317 316 316 315
311 313 312 308 310 312 311 313 310 310 312 313 313 312 311 311 310 315 327 330 332 333 333 334 334 335 333 332 332 331 331 332 330 329 329 328 328 325 322 322 321 321 319 319 318 316 316 316 315
313 311 309 310 311 312 312 313 312 312 311 314 313 313 312 311 311 309 308 311 325 330 332 332 334 333 334 333 331 331 330 330 330 329 329 328 328 326 325 323 323 321 320 320 319 317 316 316 314
312 310 311 309 311 313 313 313 313 313 311 313 312 311 310 310 307 305 304 305 307 317 327 330 332 333 333 330 330 330 330 330 330 329 330 329 328 328 327 326 324 322 321 321 321 318 317 316 315
310 310 311 311 310 312 312 314 314 308 309 308 308 308 308 309 309 308 308 306 305 307 314 323 327 330 332 331 329 330 330 330 329 329 329 329 329 329 328 328 327 326 325 320 319 319 316 314 311
310 311 311 312 309 308 309 312 309 308 309 309 309 309 309 309 310 310 309 309 309 306 305 311 318 324 327 330 329 329 329 329 329 329 329 329 329 329 329 328 328 328 327 324 324 322 318 315 312
311 309 311 311 312 312 308 310 310 308 311 312 312 312 311 310 310 310 310 309 309 310 308 304 307 315 321 325 328 328 327 328 328 328 328 328 328 328 328 328 328 328 327 326 325 325 322 318 314
311 309 311 311 313 312 312 311 310 308 313 313 311 311 310 310 310 309 308 307 307 308 310 313 313 312 314 320 324 325 327 327 328 328 328 329 328 327 327 327 327 328 327 327 326 323 321 320 316
308 310 310 310 312 312 312 311 310 309 313 312 311 310 310 309 309 308 307 307 307 307 308 308 309 311 317 319 321 323 324 325 325 325 326 327 328 327 327 327 328 327 327 326 326 325 323 322 319
309 312 312 312 313 312 306 309 310 307 311 313 312 310 309 309 310 309 308 307 306 306 306 306 306 306 307 309 311 315 318 319 320 320 320 321 321 321 322 323 324 325 326 325 324 324 322 321 319
311 311 313 315 312 311 307 311 311 306 307 310 310 309 309 309 309 308 307 306 305 305 305 305 305 305 305 306 306 307 307 308 309 309 310 313 314 316 316 317 318 319 319 320 320 321 321 320 319
310 310 308 310 303 314 310 310 308 307 309 310 310 310 310 309 308 307 305 305 304 304 303 303 303 302 303 303 303 304 304 305 305 305 305 306 306 306 307 308 309 310 312 313 315 315 317 316 317
309 308 311 310 318 316 309 310 312 310 311 311 310 311 310 308 307 306 305 304 303 303 303 302 302 302 302 302 303 303 302 302 302 302 302 302 302 303 304 305 305 306 306 307 309 310 312 313 312
308 309 308 310 311 319 313 310 309 311 312 312 311 310 310 308 307 306 304 303 303 302 302 301 301 300 301 301 301 302 302 302 303 302 302 302 302 302 302 302 302 303 304 304 305 306 307 308 309
308 309 310 312 311 308 311 313 308 311 313 311 310 308 309 307 306 305 303 303 302 301 301 300 299 299 299 299 300 300 300 300 300 300 300 301 301 301 301 301 300 300 300 301 301 302 303 304 304

GFSSGP_925_thetae_087.txt.gz
Theta_e
318 319 321 324 326 324 324 327 330 330 330 328 331 329 328 328 329 341 336 336 338 337 335 336 333 333 332 332 332 336 336 337 336 334 332 333 332 330 330 330 329 330 329 329 328 329 330 329 329
318 319 323 324 326 321 321 324 328 326 325 330 329 327 326 335 335 336 336 336 335 334 334 333 330 326 329 332 332 336 337 337 336 334 332 332 332 332 330 331 330 330 329 330 330 332 329 327 327
318 318 324 324 326 322 320 322 326 327 325 325 327 327 326 332 335 336 336 335 334 334 335 333 330 330 330 332 334 336 336 336 335 333 331 332 331 331 329 331 328 330 329 329 329 331 327 326 326
320 322 322 324 323 321 320 321 325 327 323 322 326 326 330 332 335 336 335 334 333 337 337 332 332 330 327 331 333 336 337 335 333 332 331 331 331 330 326 329 331 330 329 330 331 326 325 325 324
319 323 324 325 323 319 319 322 323 325 323 323 323 325 332 334 335 336 334 333 335 337 337 335 329 323 321 326 332 334 335 335 333 331 330 330 331 329 327 325 328 327 327 330 329 325 324 324 323
321 323 323 325 322 320 321 323 324 324 321 322 322 324 332 334 336 335 334 334 336 338 336 335 328 326 326 325 331 334 334 332 330 330 329 329 330 327 328 325 328 329 326 327 326 324 323 322 322
321 323 325 323 321 321 321 322 322 320 320 321 324 323 331 334 336 334 333 335 337 336 335 334 332 329 328 328 329 331 333 332 328 326 325 326 327 328 326 325 329 329 326 325 324 324 322 321 321
321 323 324 323 321 321 321 320 320 320 320 322 325 322 329 334 335 333 333 336 336 336 336 334 332 332 332 330 328 328 329 329 327 325 323 323 323 326 325 322 326 326 325 324 324 323 322 321 321
319 322 324 322 320 321 320 320 319 318 320 323 323 324 329 335 335 332 333 335 336 336 336 337 335 333 333 332 329 328 327 328 328 326 321 324 325 325 325 325 324 325 324 324 324 325 323 321 321
320 324 323 321 320 320 321 320 319 318 319 320 322 326 334 335 335 333 333 335 336 336 336 337 336 335 334 332 331 331 331 330 330 329 324 326 325 324 325 324 324 324 323 323 322 323 320 322 322
320 323 321 318 317 319 320 319 319 319 319 319 320 324 334 335 334 334 333 333 335 336 336 336 337 335 334 333 333 332 331 331 331 330 327 325 325 323 324 325 323 323 322 322 321 319 322 322 323
318 317 318 316 316 318 319 318 318 319 318 317 318 321 330 334 334 333 333 333 333 335 336 335 336 335 335 334 333 333 332 331 330 330 328 325 325 324 324 325 325 325 323 324 323 322 322 323 323
318 316 316 315 315 317 317 318 318 318 317 315 315 320 327 331 332 332 332 332 333 334 334 335 335 335 335 335 334 333 333 332 331 330 328 326 325 325 325 325 325 325 324 323 323 322 322 322 322
317 317 316 315 315 314 317 316 315 315 314 314 314 319 323 328 330 331 331 332 333 333 334 335 335 334 334 333 333 333 333 333 332 330 329 327 326 325 325 325 325 325 324 323 322 322 322 321 321
316 316 315 315 315 315 314 315 315 313 312 314 314 317 320 324 328 331 332 332 333 334 334 335 335 334 333 332 332 333 332 331 331 331 330 328 326 325 324 325 324 324 324 322 320 321 320 321 321
315 316 317 314 314 314 313 317 315 312 312 313 314 315 317 321 327 329 330 332 332 333 334 335 335 334 332 333 332 332 332 331 330 330 330 329 327 326 325 324 324 324 323 322 318 320 320 319 319
315 316 316 313 314 315 313 316 312 313 313 313 314 314 314 315 318 325 329 331 331 332 333 335 335 333 332 332 332 332 331 331 331 330 330 328 328 327 326 325 324 323 321 320 319 318 318 317 317
315 315 314 315 313 313 314 314 314 313 314 315 315 315 315 314 314 313 314 322 329 331 332 334 335 335 332 332 332 331 332 331 331 331 329 329 328 328 327 326 325 323 321 319 319 318 318 316 316
315 314 313 313 313 314 315 314 314 314 314 315 315 315 314 313 311 308 308 309 310 320 330 332 333 335 333 331 332 331 332 331 331 331 330 330 329 329 328 327 326 325 322 321 320 319 318 317 316
313 313 313 313 312 314 315 314 314 313 313 312 313 313 312 312 312 311 311 309 308 309 317 326 330 332 334 332 331 331 331 331 331 330 330 330 330 329 329 329 328 327 326 325 324 320 319 318 317
312 312 313 313 312 312 313 313 314 310 311 312 312 311 312 313 313 313 313 313 312 309 310 316 324 329 331 332 330 330 330 330 330 329 329 329 329 329 328 329 328 328 327 326 326 323 321 318 318
312 312 313 314 313 312 312 312 314 312 313 314 314 314 313 313 313 313 312 312 313 313 309 308 315 321 325 329 330 328 327 328 327 328 327 328 327 327 327 328 328 328 327 327 327 326 323 320 318
312 312 314 314 315 313 313 312 314 311 314 314 314 314 313 313 312 311 311 311 311 313 316 313 312 315 319 323 326 327 326 326 326 326 327 328 327 327 327 326 327 327 327 327 326 326 324 322 319
311 313 313 314 315 312 313 312 313 311 313 315 314 313 312 312 311 310 310 310 310 310 311 312 315 319 320 320 323 324 324 324 323 322 322 323 323 324 325 326 327 325 326 326 326 326 324 323 321
312 312 313 312 314 312 309 312 312 310 314 315 314 313 312 312 312 312 311 310 310 309 309 309 309 310 310 311 313 315 318 318 318 317 318 318 319 319 320 320 320 321 321 322 322 322 322 321 321
313 313 315 316 315 313 308 312 312 311 313 314 313 312 312 312 311 311 310 309 308 308 308 307 307 307 307 307 307 308 308 309 309 309 309 310 310 310 308 309 311 313 314 314 314 316 317 317 317
312 312 312 312 309 315 312 311 310 309 312 313 312 312 313 312 311 310 309 308 307 306 306 306 305 305 305 305 304 304 304 304 304 304 304 304 304 303 304 304 305 306 307 308 309 311 311 311 312
311 311 310 312 321 320 311 312 312 310 313 312 312 313 313 311 310 309 308 307 306 306 305 304 304 303 303 303 303 302 302 302 302 302 302 302 302 302 302 302 302 303 303 303 305 306 307 309 309
310 310 310 311 314 320 315 312 311 312 313 313 313 314 312 311 310 309 307 306 306 305 304 303 302 301 301 301 301 300 300 299 299 299 299 299 299 299 299 300 300 301 301 301 301 301 302 303 304
311 311 311 313 314 311 315 315 311 312 312 314 313 313 312 311 309 308 307 306 305 303 302 301 299 299 298 298 298 297 297 297 296 296 296 296 296 296 297 297 297 298 298 298 298 298 299 299 301

GFSSGP_925_thetae_093.txt.gz
Theta_e
317 318 319 320 321 318 323 328 328 329 326 324 323 330 336 335 341 341 337 338 336 331 328 330 333 333 334 335 335 335 335 334 333 331 331 332 332 332 330 330 329 331 332 333 333 332 328 329 328
315 318 319 316 319 321 316 324 324 325 326 324 322 327 330 338 334 334 336 336 334 328 329 330 324 328 333 335 335 336 334 332 333 332 332 332 335 332 331 330 331 331 331 331 332 331 327 327 326
317 319 316 319 319 318 319 322 322 324 323 324 323 324 329 337 334 336 336 334 334 330 327 327 330 331 332 334 336 335 333 332 332 330 332 333 334 329 329 328 330 332 332 331 331 329 325 325 324
318 318 314 317 320 316 317 321 320 320 320 321 323 329 329 333 336 336 336 335 333 332 325 322 326 330 333 334 335 335 333 333 331 330 330 332 330 331 328 324 330 331 331 330 329 326 324 322 323
317 315 319 319 320 316 317 320 319 320 319 322 322 332 335 335 335 334 333 334 333 328 325 322 321 327 333 334 335 335 332 329 331 331 330 330 327 329 329 324 328 330 329 329 327 324 323 322 321
315 315 318 320 317 317 318 318 318 317 317 320 330 333 334 335 334 334 335 335 334 328 329 325 321 327 333 335 334 332 329 326 330 330 329 329 323 327 327 326 326 327 327 325 323 320 320 320 318
317 316 318 320 316 318 319 319 317 316 317 320 325 332 332 333 334 334 336 335 335 330 324 321 320 322 331 333 333 330 327 327 328 327 327 326 322 326 329 329 327 325 324 323 322 321 320 320 317
314 315 320 319 315 318 318 319 316 316 320 320 321 332 334 333 334 333 337 335 334 332 323 322 322 319 328 331 330 330 326 324 320 319 321 323 320 325 328 327 325 324 324 323 322 321 320 320 318
315 316 319 319 316 318 316 317 316 316 319 321 324 326 331 334 334 334 335 334 333 333 329 324 324 323 321 323 327 327 325 323 319 318 319 318 319 321 322 325 324 324 323 322 322 320 320 319 317
314 316 318 317 315 316 316 316 315 317 319 321 333 332 333 333 333 333 335 334 333 333 332 331 331 331 326 324 324 324 324 324 321 324 326 324 323 325 322 321 323 323 321 321 318 319 322 322 320
315 317 317 315 316 315 315 315 315 315 318 320 336 334 332 330 331 334 334 335 334 334 333 332 332 332 332 327 325 325 326 329 328 324 325 325 324 323 323 318 321 321 321 320 317 316 321 322 322
316 315 316 316 314 316 316 314 315 314 315 315 331 332 332 330 329 332 334 334 335 334 334 334 333 332 332 332 329 330 330 330 330 328 325 325 324 321 324 324 324 323 322 323 320 321 321 320 322
315 315 315 314 314 314 314 315 314 313 311 316 329 331 330 330 330 331 335 335 335 335 334 334 334 333 332 332 332 331 330 330 330 329 327 325 324 323 324 325 325 325 323 323 322 321 321 319 320
314 314 313 313 313 313 313 314 314 312 310 315 327 328 328 330 331 331 332 334 335 335 335 335 335 334 334 332 332 331 330 330 330 329 329 326 324 324 324 324 325 325 324 324 323 321 320 320 319
313 313 313 313 313 314 311 313 313 310 309 311 314 320 325 327 331 331 332 332 334 335 336 336 335 333 335 334 332 331 331 330 330 329 329 329 326 325 324 324 324 324 324 324 323 322 321 320 320
314 312 313 313 312 312 312 314 312 308 308 309 309 310 316 322 328 331 331 332 333 334 335 335 335 334 333 332 332 331 331 331 330 329 329 328 328 326 325 324 324 324 324 324 323 322 321 320 320
312 312 313 313 312 311 312 313 310 307 307 306 306 307 312 316 322 328 330 330 331 333 334 334 334 334 334 332 331 331 331 330 330 329 329 329 328 327 326 325 324 324 324 324 324 323 322 320 319
311 312 312 312 311 311 310 312 309 309 307 305 305 306 311 314 318 322 328 330 331 331 332 333 334 334 334 332 330 330 331 330 330 329 329 328 328 328 327 327 326 325 325 325 324 324 323 321 321
311 311 312 310 310 312 309 310 309 309 310 307 305 306 307 306 307 308 313 322 329 331 332 333 334 334 334 332 330 330 329 330 329 329 329 329 329 329 329 328 328 327 327 326 325 325 324 324 324
310 310 311 311 311 311 310 311 310 309 309 308 308 306 306 305 307 309 309 309 312 321 328 331 335 335 334 333 330 329 329 329 329 329 329 329 330 330 330 329 329 329 328 328 327 326 324 323 324
309 309 309 310 310 310 310 308 311 309 309 309 308 307 307 305 307 308 311 312 310 308 312 322 330 334 334 334 331 329 330 330 329 329 328 327 327 326 326 326 326 325 327 327 326 326 326 323 323
310 310 310 310 308 307 306 305 306 307 308 309 308 306 307 307 308 309 311 313 314 311 308 311 321 328 333 331 331 328 327 328 327 327 326 326 325 326 327 327 326 326 326 326 325 325 325 324 322
310 310 310 310 310 308 309 305 303 306 309 308 308 307 306 307 307 307 310 312 314 313 308 310 317 325 331 329 329 328 326 325 324 324 323 324 323 323 322 322 323 323 323 322 320 321 321 321 321
310 311 310 310 309 309 308 304 304 306 309 308 309 308 307 306 306 308 310 310 312 316 314 315 318 321 324 328 327 327 323 322 321 321 320 319 319 318 318 317 315 316 317 317 315 316 314 314 314
310 307 309 310 310 308 306 305 305 305 307 308 310 308 306 305 305 306 306 307 308 310 312 316 318 319 322 323 323 323 322 320 317 315 312 312 309 306 305 305 305 305 306 306 306 306 306 307 308
309 307 309 310 312 309 305 309 309 308 309 309 308 307 306 305 305 305 306 306 306 307 308 311 312 311 315 315 314 314 312 309 307 306 304 303 303 302 301 301 301 301 300 300 301 301 301 302 302
309 310 308 307 298 307 305 305 307 309 310 308 308 307 307 306 305 304 305 305 305 305 305 305 305 306 307 307 306 305 304 304 303 301 300 298 298 297 297 297 297 296 296 296 296 296 297 297 298
308 307 309 306 307 308 306 307 305 308 311 309 309 308 307 305 304 303 304 304 304 304 304 304 304 303 303 303 302 301 300 298 297 297 296 295 295 295 294 294 294 293 293 293 293 294 294 294 295
308 307 307 309 307 309 307 306 303 307 310 310 309 309 307 306 304 303 303 304 303 302 302 302 301 301 300 299 298 297 296 295 295 294 293 293 292 292 292 292 291 291 291 291 291 291 292 292 292
308 308 307 308 308 308 309 307 309 305 308 310 309 309 307 306 304 303 303 302 301 301 300 300 299 298 297 296 296 295 294 293 292 292 291 291 291 291 291 290 290 290 290 290 290 290 290 291 291

GFSSGP_925_thetae_096.txt.gz
Theta_e
316 315 318 318 320 316 321 329 327 325 327 322 324 331 335 335 339 337 336 337 331 330 335 336 335 335 336 334 334 333 332 332 332 332 332 330 331 331 331 330 330 331 332 332 333 330 330 330 328
315 317 318 313 318 320 317 321 325 326 323 327 327 329 333 338 334 335 337 335 328 326 333 333 333 334 335 335 335 331 331 331 332 331 332 333 331 331 332 330 331 330 331 331 331 330 327 326 325
317 318 315 317 316 318 322 322 325 325 322 322 324 326 332 336 333 335 337 334 330 328 330 324 328 332 334 336 334 330 329 330 331 330 334 334 330 329 331 330 331 331 332 330 329 328 324 323 324
317 316 312 316 319 317 319 321 320 319 319 321 326 332 332 333 335 335 335 331 325 327 327 329 329 330 334 335 334 331 327 330 329 329 331 330 332 325 326 328 330 330 329 330 328 326 322 322 323
315 312 317 318 318 316 320 319 317 319 319 322 327 334 336 334 336 335 335 334 330 325 324 326 328 331 334 335 334 331 325 332 330 328 331 330 329 326 326 330 330 327 328 328 327 322 321 319 319
313 312 317 319 318 316 319 318 317 317 320 328 332 333 334 332 335 335 334 332 328 325 327 328 331 333 334 335 333 329 323 327 328 329 329 327 327 326 325 327 327 325 325 323 321 320 319 317 319
315 314 317 317 316 316 318 315 315 315 316 322 327 333 334 331 334 334 333 332 325 324 322 323 329 334 334 333 330 327 323 323 328 327 324 321 326 327 327 326 325 324 323 322 320 319 319 317 319
314 314 318 317 315 316 317 316 312 315 319 320 327 334 336 332 334 334 334 331 328 324 318 318 322 331 332 331 329 325 320 320 325 324 322 322 328 329 327 325 324 324 323 322 321 319 319 317 318
313 315 318 318 315 317 316 316 314 315 318 325 328 329 331 332 335 335 335 333 330 325 322 320 321 328 329 330 328 323 321 320 320 319 320 317 321 326 326 325 324 323 322 320 321 319 318 316 318
314 315 317 316 314 316 315 315 314 319 321 331 331 330 333 331 335 333 333 332 331 326 324 323 321 321 328 328 327 325 323 320 319 321 320 320 323 322 321 322 322 321 320 317 318 318 321 321 320
314 316 315 315 314 314 314 313 313 316 319 330 333 332 331 330 333 333 332 332 332 330 328 325 325 323 322 323 324 324 324 322 322 325 324 323 323 323 320 320 321 320 321 317 316 317 320 321 321
315 314 314 315 314 314 314 313 313 314 314 322 331 331 331 330 330 333 332 332 332 332 332 331 331 331 328 324 324 324 327 328 325 325 325 324 324 321 323 320 322 322 322 323 320 319 320 319 320
314 314 314 313 314 314 312 313 313 313 311 328 330 330 329 330 329 332 334 333 332 333 332 332 332 332 331 330 329 329 329 329 329 327 325 324 323 321 323 324 324 324 323 323 322 321 320 319 319
313 313 314 313 313 313 313 312 313 311 317 328 331 330 328 328 328 331 332 333 333 333 333 333 332 331 331 330 330 330 329 329 329 329 328 326 324 323 323 324 324 324 324 324 323 322 321 320 320
312 313 312 312 313 313 311 313 312 310 320 329 329 328 328 328 329 330 332 333 334 334 334 334 333 333 332 331 331 330 329 329 329 328 328 328 326 324 324 324 324 324 324 324 323 322 322 321 320
312 310 312 312 312 312 312 313 311 307 315 323 324 324 327 327 329 330 332 333 334 334 334 334 334 333 333 332 331 330 330 329 329 328 328 327 327 326 325 324 324 324 324 324 323 323 323 322 321
311 311 312 313 311 310 312 312 310 305 307 309 311 314 319 324 325 330 331 331 332 334 335 335 335 334 333 334 332 330 330 330 330 329 328 327 327 326 326 325 324 324 324 324 324 324 323 323 323
311 311 311 312 311 310 309 311 309 306 305 306 305 305 309 316 318 327 330 330 331 333 334 335 335 334 333 334 332 330 330 330 329 329 328 328 328 328 328 327 326 325 325 325 324 324 324 324 324
310 311 311 310 310 310 308 310 308 307 306 304 303 303 307 312 308 315 324 327 329 331 333 334 334 334 334 332 330 330 329 329 330 329 328 328 328 329 329 329 328 328 327 327 327 326 325 325 325
310 311 310 310 310 310 309 309 309 307 307 306 303 303 306 305 305 306 309 316 327 330 331 332 333 334 334 333 331 330 328 329 329 328 328 328 328 328 329 330 328 328 328 328 327 327 325 324 324
309 309 308 311 310 309 309 309 310 309 308 308 306 305 304 303 305 307 309 310 312 317 324 330 332 333 333 333 332 329 328 328 328 329 328 328 328 327 326 326 326 326 325 324 325 325 325 324 323
309 307 308 309 307 309 307 309 303 307 307 308 306 304 304 304 306 308 310 311 311 309 311 315 330 333 333 333 331 329 327 328 328 328 327 327 326 325 326 327 327 327 326 325 324 323 321 320 320
310 309 309 308 307 308 308 305 303 305 307 308 305 305 306 305 307 307 310 312 313 313 310 309 318 331 333 332 330 329 327 326 326 325 325 324 324 324 322 321 321 321 319 318 318 317 317 316 314
309 310 308 309 308 308 307 306 304 305 307 309 306 305 304 306 305 307 310 311 313 312 308 313 321 327 332 332 328 329 326 324 323 321 320 318 315 315 317 315 313 310 311 311 309 308 308 308 308
310 309 310 312 312 309 305 304 306 304 305 306 307 306 305 305 305 305 306 307 311 312 314 317 321 327 331 330 328 326 323 321 319 317 317 313 312 307 304 304 304 304 303 302 302 301 301 301 301
308 309 309 309 311 307 304 308 308 305 306 305 306 306 305 304 305 304 305 306 308 310 312 316 321 321 323 324 323 322 320 318 315 314 308 304 302 300 298 298 297 297 297 296 296 296 296 296 296
309 308 306 307 298 308 304 303 305 309 310 307 306 306 306 304 304 303 304 305 306 308 309 312 314 315 318 319 318 316 313 310 305 302 300 298 297 296 295 295 294 294 293 293 292 292 292 293 293
309 307 310 306 310 309 305 305 305 308 310 308 307 307 305 304 303 302 302 303 304 305 305 307 308 309 309 310 308 306 304 302 299 297 296 295 294 294 293 292 292 291 291 291 291 291 291 291 291
308 307 306 307 308 310 306 305 301 306 309 309 308 307 306 305 304 302 301 302 303 303 303 303 304 303 303 303 301 299 297 296 295 294 293 293 292 292 291 291 290 290 290 290 289 289 289 289 289
307 307 307 309 307 306 307 305 306 303 304 308 307 307 305 305 303 301 301 301 301 301 301 301 301 301 300 298 297 295 294 294 293 292 292 291 291 290 290 290 290 290 289 289 289 289 289 288 288

GFSSGP_925_thetae_102.txt.gz
Theta_e
314 316 317 317 315 315 321 326 324 325 324 328 328 327 331 332 334 332 334 334 330 334 333 335 334 334 331 331 331 330 332 332 332 332 332 331 331 332 331 330 330 330 331 331 331 329 329 328 327
314 317 317 310 317 319 318 316 327 323 328 327 326 328 332 337 333 335 336 333 334 335 335 335 334 333 330 328 328 329 332 334 333 331 333 332 331 329 330 329 329 329 329 330 329 328 328 327 327
315 316 314 314 313 318 317 320 322 325 327 321 329 328 331 336 332 334 336 333 335 336 334 335 334 334 329 328 328 332 333 335 333 330 331 330 330 329 329 329 328 328 328 328 328 327 327 327 326
316 314 310 316 319 316 317 320 322 324 320 326 330 334 330 331 334 335 334 332 334 334 332 334 333 335 330 326 327 331 332 334 334 333 330 332 330 329 326 327 327 327 327 327 327 326 323 324 325
314 310 315 316 317 314 313 320 316 318 319 324 327 335 334 333 334 336 332 330 330 331 329 332 333 335 332 327 327 327 330 332 332 333 329 328 328 329 326 327 327 327 327 327 325 324 319 321 321
313 310 315 317 317 314 319 317 316 317 323 329 331 333 333 333 336 335 331 329 328 326 328 332 334 335 333 327 327 328 327 327 329 329 325 325 329 329 328 327 326 326 326 325 324 322 319 320 320
315 314 316 315 315 320 320 314 314 319 325 327 329 333 331 332 335 334 332 329 327 328 330 332 334 334 333 327 322 327 328 324 325 327 325 327 327 328 325 325 326 326 321 319 318 317 318 319 319
311 311 315 315 313 321 314 315 313 319 318 325 326 330 335 331 334 333 330 327 328 329 329 333 334 335 332 327 323 324 327 325 319 320 325 327 326 326 324 323 323 322 321 319 318 317 317 318 319
312 314 315 317 314 314 312 315 312 315 324 323 325 326 328 333 333 333 331 329 328 327 329 333 334 335 331 327 323 320 322 321 319 320 324 327 327 325 324 322 321 319 318 318 317 317 316 318 318
314 315 317 314 313 314 313 313 312 320 326 329 328 327 332 332 331 330 329 329 327 325 326 332 334 333 330 326 322 319 320 320 319 316 322 326 326 325 323 321 320 318 316 317 318 320 320 319 319
313 315 314 315 313 313 313 312 313 319 325 323 328 328 331 331 331 330 329 327 325 322 322 329 332 332 329 326 322 319 317 316 317 317 317 319 320 321 320 320 319 320 319 316 316 318 319 318 319
316 313 312 312 313 313 313 310 314 316 316 315 324 329 331 330 331 330 329 329 326 322 321 323 329 330 329 327 323 321 318 319 321 321 321 321 322 321 318 319 321 321 321 322 320 320 319 319 318
316 314 311 311 311 313 311 312 314 314 314 322 327 329 331 331 331 331 331 330 326 323 321 321 324 327 328 326 324 322 321 319 323 324 323 323 322 321 322 322 323 323 323 322 322 322 321 320 320
313 314 313 311 312 312 313 311 313 312 324 326 328 328 329 331 331 331 331 331 328 323 322 322 322 322 322 323 322 322 323 324 323 324 324 324 323 321 322 323 323 323 323 323 323 323 322 322 321
313 314 311 310 312 312 310 313 312 310 325 327 327 327 325 329 331 330 331 331 330 324 322 323 324 325 325 324 323 324 326 328 328 327 326 326 325 323 323 323 323 323 323 323 323 323 323 323 323
313 310 312 311 310 310 311 314 312 315 325 326 325 324 325 324 328 331 332 332 332 329 327 327 328 330 330 330 329 329 328 328 327 326 325 325 325 324 325 325 324 324 323 323 323 323 323 323 323
325 319 310 311 309 310 311 313 309 313 324 326 324 323 324 323 324 328 331 332 332 332 330 330 330 330 331 330 329 329 328 327 327 327 326 326 326 324 324 324 324 324 324 324 324 324 323 325 325
328 322 311 311 311 310 310 310 308 306 323 325 324 324 323 324 325 327 329 332 333 332 332 331 331 331 331 330 330 329 329 327 328 328 327 327 326 326 325 325 325 326 326 326 326 326 325 325 325
326 319 314 310 310 311 310 310 310 306 306 317 320 320 321 323 325 327 328 329 332 333 333 332 332 332 331 331 330 330 329 328 328 328 329 328 326 326 326 325 327 328 328 328 327 326 325 324 322
314 325 320 310 308 309 310 310 307 305 305 307 314 313 317 314 312 319 325 327 328 331 332 333 333 332 332 332 332 332 329 329 327 327 328 327 327 327 327 328 328 328 327 326 325 324 324 323 321
318 315 312 312 309 308 309 310 308 306 304 305 302 304 306 311 312 308 311 319 325 327 328 330 332 333 333 333 332 332 331 330 328 327 328 329 328 328 328 328 328 326 326 325 324 322 323 321 318
315 310 310 309 311 313 307 312 307 306 306 304 304 301 300 300 304 306 308 312 317 324 327 327 329 330 333 333 333 332 331 330 328 327 327 328 328 328 327 326 325 325 324 323 322 321 317 315 313
317 308 309 310 309 309 307 308 309 304 306 305 303 302 302 301 302 305 306 311 313 315 321 325 327 329 331 332 333 333 331 330 327 326 327 327 327 325 324 323 322 322 321 319 316 313 311 308 306
308 310 309 308 307 310 311 307 308 306 305 306 305 303 304 301 300 303 307 309 311 312 314 317 324 328 330 332 332 332 330 329 326 326 326 324 322 320 319 317 316 316 314 310 307 304 302 299 298
311 311 314 315 310 313 303 305 311 306 302 305 308 306 304 301 300 303 305 308 310 311 312 311 312 319 328 330 330 331 330 330 326 325 324 321 317 314 313 313 311 307 303 300 298 296 295 294 294
311 313 313 314 313 311 303 308 309 304 302 301 301 302 302 302 302 303 305 307 309 310 311 311 309 310 320 327 328 330 329 329 326 324 322 317 314 313 308 305 302 298 296 295 294 293 293 292 291
311 317 309 307 299 307 305 304 303 303 303 305 304 302 302 302 303 304 305 307 309 310 311 310 310 310 314 324 328 329 329 327 325 321 317 314 312 309 301 297 295 294 293 292 292 291 291 290 289
312 310 314 311 308 308 305 303 308 305 306 305 306 305 304 302 303 303 304 305 307 309 310 310 311 314 315 319 324 327 326 324 321 317 315 311 305 300 295 294 292 292 291 291 291 290 290 289 289
312 314 311 311 309 311 310 308 301 305 305 306 305 306 305 303 304 304 302 304 306 308 308 308 310 313 315 318 321 321 319 317 316 314 310 303 297 294 293 292 291 291 291 290 290 289 289 288 288
312 314 314 316 313 304 308 309 303 301 301 302 302 305 304 304 303 302 302 302 303 305 305 307 309 311 313 315 315 313 313 311 314 306 299 295 294 292 292 291 291 290 290 289 289 288 288 288 288

GFSSGP_925_thetae_105.txt.gz
Theta_e
315 316 317 317 318 320 322 326 323 324 324 329 327 329 334 333 335 335 334 333 334 336 336 336 334 331 331 331 330 329 330 332 332 332 332 333 331 329 330 330 330 330 329 329 328 328 326 326 325
316 317 317 313 320 321 321 317 327 323 332 327 326 328 333 338 332 334 335 333 334 333 335 334 332 329 327 327 330 332 331 331 333 332 332 328 330 330 329 329 327 329 328 327 327 327 327 326 325
316 316 316 316 316 321 320 317 324 324 328 321 331 329 331 335 333 334 334 335 334 334 334 334 332 328 326 329 330 333 333 330 333 331 331 334 331 328 327 327 327 327 327 326 326 326 326 326 324
316 314 312 318 319 316 315 319 321 329 322 326 329 335 330 331 333 334 333 336 336 334 335 334 333 328 326 330 332 335 335 333 331 332 331 332 327 327 327 328 326 326 326 326 326 325 326 325 323
314 312 316 317 317 314 311 319 323 322 321 325 326 335 334 333 333 335 334 335 334 334 334 333 334 329 324 327 329 332 332 334 328 329 327 329 327 324 326 327 327 327 326 325 323 324 325 322 318
315 312 317 318 316 314 318 317 316 317 322 329 332 333 334 332 335 334 333 333 332 331 333 333 335 331 325 324 326 328 329 332 329 323 328 331 328 328 328 327 326 326 325 325 324 323 321 319 318
315 316 316 315 316 319 320 313 315 320 325 329 330 335 332 332 334 333 331 331 329 327 332 333 335 332 327 326 327 325 327 328 326 323 325 329 328 326 325 326 326 325 324 321 318 318 318 318 318
311 313 315 315 315 320 315 314 313 320 321 325 326 331 335 331 334 333 331 330 328 330 330 332 334 333 328 326 327 327 323 323 326 325 327 327 326 323 322 321 323 322 319 318 316 316 317 318 318
311 315 317 317 314 315 312 314 311 315 326 324 325 326 327 332 333 332 331 331 331 330 330 331 333 333 328 324 326 326 323 318 319 324 326 326 325 323 321 321 319 317 318 317 317 317 317 318 318
315 317 318 314 314 314 312 313 313 322 325 327 327 328 330 333 332 330 328 328 331 330 332 331 333 333 328 324 324 325 322 317 317 322 326 326 325 323 321 320 318 316 317 317 319 319 319 319 319
312 317 313 314 313 312 313 312 313 321 325 323 327 329 331 331 332 329 328 327 326 328 331 332 332 333 329 324 321 320 319 318 316 317 321 322 322 322 320 319 319 320 318 316 317 319 318 318 318
317 313 312 313 311 313 313 310 314 318 318 314 323 329 330 332 330 328 327 327 325 326 327 329 333 332 329 324 321 319 317 317 317 317 319 321 320 319 318 320 321 321 321 321 321 320 320 319 319
318 315 312 311 310 312 310 312 314 315 312 318 326 330 330 332 330 329 328 326 324 323 323 325 329 331 328 325 322 320 318 319 321 321 322 322 321 321 321 322 322 323 323 322 322 322 321 321 321
317 314 315 313 310 311 312 311 312 313 322 324 328 330 330 330 330 329 328 329 326 322 320 323 326 328 328 326 323 321 321 319 323 323 323 323 322 320 322 322 323 323 323 323 323 323 323 323 323
310 316 313 312 311 312 310 312 312 311 324 326 326 328 329 329 329 329 329 330 329 323 319 320 323 324 326 326 323 322 322 323 323 325 326 325 325 323 323 323 323 323 323 323 323 323 322 321 321
317 312 315 314 310 311 309 317 313 314 326 327 326 325 328 328 329 329 331 331 331 327 321 320 321 321 322 322 323 322 323 326 328 326 325 325 324 324 324 325 325 324 324 324 324 321 321 321 323
321 321 314 313 309 310 310 314 311 315 323 325 325 325 326 326 325 330 331 332 332 330 323 321 322 323 324 326 326 326 327 328 327 325 325 324 325 324 323 323 323 323 323 323 324 324 323 322 322
326 325 314 312 310 309 310 310 309 307 323 323 324 324 325 325 326 327 331 331 332 331 330 324 324 325 329 330 329 328 329 327 326 326 326 326 326 325 324 323 324 325 325 326 327 325 323 321 322
325 324 325 311 310 310 309 310 312 306 314 321 323 324 324 324 325 326 328 331 331 332 331 330 329 329 330 330 329 328 328 328 327 327 327 327 327 326 324 324 325 326 327 328 326 323 321 319 319
325 325 322 315 309 309 310 310 310 305 305 310 319 321 323 322 319 324 327 327 329 331 332 331 331 330 330 330 330 330 329 329 328 327 326 327 327 326 326 326 327 327 327 326 325 322 320 320 319
320 327 324 323 309 307 308 312 310 306 304 303 305 314 317 322 322 317 320 325 327 328 331 332 332 332 331 331 331 330 330 329 329 328 327 328 328 328 328 328 328 328 326 325 323 320 320 320 317
325 317 311 310 312 325 307 315 311 308 307 304 304 302 308 312 312 316 316 317 324 328 328 330 332 332 332 332 331 331 330 330 329 329 327 327 328 328 328 328 328 326 324 323 321 320 320 315 311
320 316 314 310 310 307 306 310 312 305 306 307 304 303 303 303 306 310 312 316 321 325 327 328 328 329 330 331 332 332 331 330 330 329 327 327 327 327 327 326 324 322 321 319 318 316 312 307 304
311 315 315 313 311 318 311 312 310 314 308 307 305 305 305 303 301 301 305 311 316 319 321 323 325 326 327 329 330 331 331 331 329 328 326 325 325 325 323 322 320 318 317 315 313 308 302 298 297
315 318 320 321 317 318 303 309 314 308 304 307 308 307 305 304 301 300 303 305 308 312 314 315 318 323 326 328 329 331 331 332 331 328 325 324 323 321 318 315 314 315 313 308 302 298 296 294 293
315 317 319 321 318 312 302 310 310 306 307 302 302 303 302 302 300 300 302 304 307 310 312 313 315 317 323 326 328 329 330 331 331 328 326 324 322 319 314 312 312 309 303 298 295 294 293 292 291
311 316 308 309 297 306 306 304 305 303 303 303 304 303 303 302 301 302 302 304 307 309 312 312 312 311 314 323 326 327 328 329 328 327 325 322 317 315 311 311 305 299 295 294 293 292 291 290 290
310 312 316 315 313 308 306 304 310 306 306 305 304 305 305 302 301 301 302 304 306 309 310 311 311 311 310 312 322 324 326 328 328 325 322 319 314 313 310 304 297 294 292 292 291 291 290 290 289
313 314 315 314 309 311 308 308 301 306 305 305 305 304 304 304 302 302 303 304 306 308 309 309 309 310 310 311 315 321 324 326 325 322 319 315 313 312 305 297 293 292 291 291 290 290 290 289 289
311 312 314 318 316 307 308 309 303 301 301 302 302 301 303 304 303 302 302 303 305 306 307 307 308 310 311 312 316 319 320 320 320 318 315 311 311 307 297 293 292 291 290 290 290 289 289 288 288

GFSSGP_925_thetae_108.txt.gz
Theta_e
316 317 318 322 324 325 326 331 330 331 329 328 329 334 336 337 337 339 336 335 338 339 339 338 335 332 330 330 331 331 331 333 335 336 336 331 330 332 332 329 329 330 329 329 328 327 327 326 325
316 318 320 323 326 326 326 328 332 329 332 330 331 334 336 340 334 336 336 336 338 339 339 337 331 331 330 331 331 329 331 330 332 333 331 330 331 330 329 328 328 328 328 328 328 326 326 325 325
316 317 323 323 323 326 324 325 330 332 328 330 332 332 334 338 334 335 336 337 338 339 338 335 329 329 329 332 332 329 330 331 335 332 333 331 330 328 327 327 327 327 327 326 327 326 326 324 323
317 320 320 324 323 322 320 324 328 332 326 328 332 335 335 334 333 335 336 337 336 336 338 332 327 325 329 332 334 331 326 330 331 335 331 330 328 327 327 327 326 326 327 326 326 326 325 324 322
318 321 323 323 322 320 317 321 328 330 327 331 331 335 337 334 335 336 336 336 337 337 338 335 327 326 330 333 335 334 331 329 331 332 329 323 324 326 328 327 327 327 326 325 326 325 324 320 318
323 321 324 325 322 318 322 325 329 326 327 331 331 334 337 334 335 335 335 336 337 337 337 336 329 326 329 330 332 334 331 325 328 329 330 329 328 328 327 327 327 326 325 325 325 324 320 318 318
324 324 325 322 321 321 324 323 327 325 327 329 332 335 335 335 335 335 335 335 336 336 336 337 335 329 327 327 329 331 331 325 326 330 331 327 326 326 326 325 326 325 322 322 321 319 318 318 318
319 323 322 322 323 322 323 321 318 324 326 329 331 332 338 333 334 334 334 334 334 335 336 336 336 333 330 330 326 327 329 325 325 326 330 325 323 323 323 325 324 323 319 316 316 318 318 318 318
316 323 325 323 320 320 321 322 318 321 329 330 330 329 332 333 334 333 332 331 331 334 334 336 337 333 330 330 328 325 325 326 325 327 327 326 327 326 324 318 318 319 318 318 318 318 318 318 319
324 326 324 319 318 318 318 320 319 324 329 329 331 330 333 333 333 332 331 330 330 331 334 335 336 333 330 328 329 328 323 324 327 328 327 327 326 324 321 318 316 317 317 319 319 319 319 321 322
321 327 321 316 316 315 316 317 319 322 326 324 328 332 332 333 334 332 330 330 330 331 332 333 335 333 329 327 328 327 325 323 324 325 326 325 325 324 323 322 322 321 318 320 321 322 321 320 321
321 319 320 316 314 315 316 315 318 322 322 320 326 331 331 332 332 333 330 330 329 329 330 332 333 333 330 327 325 325 324 323 321 321 321 323 323 322 323 323 323 323 323 323 323 323 320 320 320
321 317 316 313 314 314 313 316 317 319 318 319 328 332 333 333 334 333 331 331 329 328 328 329 332 333 330 327 325 323 323 322 322 322 321 323 323 322 322 323 324 324 324 324 324 324 323 323 322
321 319 317 316 317 315 315 315 314 318 320 324 331 333 333 333 334 331 332 330 327 326 327 329 332 332 330 328 325 324 322 323 323 324 323 322 323 323 324 324 324 325 324 324 324 324 324 323 323
316 323 322 317 313 315 314 317 316 316 322 325 330 332 332 333 332 331 332 330 326 324 324 327 330 332 330 328 325 325 324 323 325 325 323 323 324 323 324 324 325 325 324 323 324 323 322 323 323
320 322 327 325 314 311 317 323 319 316 323 325 328 332 332 331 331 331 331 331 330 326 323 323 323 324 328 328 327 326 325 325 325 326 326 325 324 324 324 326 325 325 324 324 324 323 321 323 324
325 329 327 327 314 315 316 322 316 314 323 323 327 330 332 332 330 331 332 332 332 330 325 323 323 322 324 327 326 326 325 327 328 328 327 324 324 324 323 323 323 322 322 322 323 323 322 320 322
328 329 325 329 317 313 317 317 318 312 319 322 325 329 330 332 331 332 332 332 333 332 328 324 324 324 324 324 326 326 327 328 329 328 325 325 324 324 323 323 322 322 324 324 325 324 321 320 322
326 329 330 322 312 314 319 318 317 316 313 320 323 327 329 330 329 331 332 332 332 333 331 327 324 325 326 327 328 328 329 328 327 326 326 326 326 325 325 323 323 323 324 325 325 323 320 322 321
327 329 332 328 317 315 319 317 316 316 313 314 318 323 327 328 328 329 329 331 332 332 332 332 329 327 327 329 330 330 329 330 328 326 326 326 326 326 325 325 324 324 323 325 325 323 320 319 319
326 329 330 330 313 312 317 326 325 320 312 312 311 317 323 327 328 328 328 329 330 332 332 332 332 331 330 330 330 330 330 329 329 328 327 326 327 327 326 325 325 325 325 326 325 322 320 320 318
327 321 324 324 323 331 320 333 329 326 324 313 312 312 315 323 326 327 327 328 329 329 331 332 332 332 331 330 330 330 330 330 330 328 328 327 327 327 327 326 325 326 327 325 323 320 320 319 317
323 316 318 314 320 314 320 317 326 317 318 317 314 313 312 314 321 325 325 326 327 328 328 329 331 332 332 331 331 331 331 331 331 329 328 327 327 328 327 328 328 327 324 322 320 318 317 313 310
316 316 315 315 319 325 323 318 326 324 320 320 316 313 313 312 311 316 321 323 323 323 326 327 329 330 331 331 331 332 332 332 330 327 327 327 327 327 327 326 326 323 321 318 317 315 311 304 299
316 321 323 323 324 330 312 318 322 321 315 317 318 316 313 312 311 310 310 313 317 318 319 323 326 327 329 330 331 331 332 332 330 328 327 327 325 325 324 324 323 319 316 316 314 310 301 297 294
318 322 323 329 325 324 305 317 319 313 310 313 310 311 311 312 311 310 308 308 309 312 315 316 318 323 326 328 328 329 330 331 329 327 328 328 326 324 323 321 318 314 314 312 307 299 295 293 292
317 320 317 316 306 313 315 313 312 311 311 309 310 309 309 310 308 307 307 306 307 308 311 313 313 315 321 325 326 327 328 329 328 325 326 327 325 323 320 316 313 311 310 304 297 294 293 291 290
317 315 319 317 324 323 319 314 316 313 312 312 311 311 312 310 308 307 305 305 306 307 309 311 312 313 314 321 324 325 327 327 327 325 325 324 324 321 316 312 311 308 301 296 293 292 291 290 290
315 317 317 317 316 321 321 319 313 313 312 310 309 309 308 309 309 309 307 306 306 306 308 310 311 311 311 312 320 322 324 326 326 326 326 323 322 317 312 309 308 303 295 293 292 291 290 290 289
314 315 317 320 320 316 312 318 309 308 307 306 308 308 308 308 308 308 307 306 306 307 308 308 309 309 310 310 313 315 320 323 322 323 324 320 318 314 311 303 303 296 293 291 291 290 289 289 289

GFSSGP_925_thetae_111.txt.gz
Theta_e
319 319 320 324 329 328 332 330 329 330 330 329 333 335 337 339 342 346 336 338 339 338 338 339 335 333 330 331 332 331 333 334 335 336 335 333 331 331 330 329 328 329 329 327 327 327 326 326 326
319 319 322 325 330 333 331 328 330 330 332 332 333 334 335 343 337 337 336 338 340 339 339 338 332 330 330 329 330 331 332 334 335 333 332 331 330 331 331 330 328 329 328 327 327 326 325 325 325
317 318 325 327 329 331 328 327 331 333 331 331 334 334 335 340 336 337 335 337 338 339 338 335 330 330 331 330 328 331 330 332 331 331 331 330 330 330 330 329 328 328 328 327 326 325 324 324 324
320 322 323 326 329 325 324 325 330 332 328 331 332 335 335 335 335 336 336 337 338 339 337 330 328 328 332 332 329 330 332 334 330 330 332 331 329 329 328 327 327 326 326 327 326 325 324 322 322
320 324 327 328 327 324 321 321 328 332 330 332 331 333 337 334 335 335 336 336 336 337 336 333 326 329 332 334 330 325 329 333 333 329 330 330 329 329 328 326 326 326 327 326 325 324 323 319 316
325 324 327 329 327 322 322 325 327 331 330 331 329 332 337 335 337 336 336 335 335 336 335 333 327 329 332 334 334 329 327 331 331 329 327 328 328 328 327 327 326 326 326 326 325 322 319 317 317
325 326 327 328 327 323 323 327 330 329 329 329 329 330 337 335 336 336 335 336 336 336 336 335 332 330 328 332 334 330 324 329 331 330 328 326 325 325 324 325 326 325 325 324 320 318 318 318 317
323 326 327 326 326 325 325 326 325 327 327 329 330 330 337 335 335 335 334 336 335 335 336 335 333 331 330 330 331 331 325 327 330 329 324 322 324 324 323 324 323 319 317 317 318 318 318 318 318
320 326 329 327 326 324 325 325 322 324 328 329 330 328 333 335 334 335 334 333 333 334 335 336 334 331 329 329 326 329 327 326 327 329 324 327 327 326 326 321 319 318 318 318 318 318 318 320 319
323 328 328 325 321 321 322 325 323 325 328 328 331 331 335 334 334 334 333 331 331 332 333 335 335 332 329 329 327 327 325 327 329 328 328 327 326 325 321 317 317 317 319 318 318 319 321 323 323
324 329 328 320 318 318 319 319 321 324 325 324 328 332 335 333 334 334 331 331 330 330 331 333 336 332 329 327 328 326 324 326 327 328 328 327 325 324 324 323 323 320 321 322 323 323 323 323 323
323 326 327 319 316 318 319 318 319 321 323 322 324 330 334 333 334 334 333 332 330 330 331 332 334 333 328 328 327 326 324 324 326 327 327 326 325 325 325 325 325 325 325 325 325 325 324 324 324
321 325 321 318 316 317 317 318 318 319 321 321 325 332 334 333 333 334 333 332 332 330 330 330 332 332 330 327 326 325 325 324 323 324 325 325 325 324 325 325 326 326 325 326 326 326 326 325 325
323 323 320 318 319 318 320 319 316 320 320 322 328 332 334 334 333 335 334 332 332 331 329 330 330 332 331 327 326 325 324 324 324 325 325 325 325 326 326 326 326 326 326 326 326 326 325 324 324
321 323 321 320 321 322 319 325 319 319 320 322 326 330 333 334 335 336 334 334 333 331 330 329 329 331 331 328 326 325 324 324 326 327 326 325 325 325 325 326 326 326 326 326 326 325 324 323 323
324 325 328 325 321 321 320 329 326 320 320 322 324 327 331 333 335 334 333 334 332 330 327 329 329 330 331 329 327 326 325 324 326 326 327 326 326 326 326 326 326 326 326 326 325 325 321 321 321
327 331 328 329 324 324 320 329 328 318 319 321 323 325 330 331 332 333 333 333 330 325 324 325 327 329 330 329 328 327 326 326 326 327 328 327 325 324 324 324 325 324 324 324 323 322 320 321 322
332 331 329 332 325 320 324 324 326 317 318 321 322 324 327 331 331 331 332 333 332 331 326 323 324 326 328 328 328 327 326 326 328 328 328 327 326 324 323 322 322 321 322 322 321 321 321 320 322
329 328 332 330 323 320 325 327 327 325 319 318 320 322 325 327 328 330 332 333 333 333 331 325 324 324 325 327 327 326 327 328 329 330 329 327 325 324 324 323 322 321 321 322 323 322 321 321 322
330 331 332 330 316 317 324 325 322 322 323 319 319 320 322 325 327 329 331 333 333 334 333 330 325 325 325 326 326 328 329 330 330 329 326 325 325 325 325 325 323 323 323 323 324 322 321 320 320
330 331 332 333 324 322 325 329 328 326 321 319 317 317 319 322 325 327 329 332 333 334 334 333 329 325 325 326 328 330 331 330 330 330 328 326 326 326 326 326 325 324 324 324 324 325 321 322 320
332 326 329 328 328 333 324 334 330 329 329 324 320 317 317 319 324 325 327 330 332 334 334 334 333 331 328 327 330 331 331 331 331 331 327 326 326 326 327 327 326 325 325 325 325 324 320 320 321
327 324 326 319 324 323 327 327 327 326 328 327 326 321 317 318 321 325 326 328 330 332 333 334 334 333 332 331 331 332 331 331 331 331 330 329 328 326 326 327 326 325 326 326 325 321 319 319 317
318 318 318 320 323 331 327 328 326 326 325 324 322 323 322 317 318 322 325 327 328 330 331 332 333 333 333 333 332 332 332 332 332 332 330 329 328 327 327 327 327 326 326 325 322 318 316 315 310
319 326 327 330 330 331 317 328 325 325 324 322 319 321 320 319 317 318 322 326 327 328 329 330 331 332 333 333 333 333 333 333 333 332 329 326 326 327 327 327 327 326 325 322 317 315 313 308 300
321 325 328 331 328 326 311 325 324 320 317 311 318 315 314 316 318 317 316 320 324 325 327 328 329 330 331 332 333 333 333 333 333 332 329 327 326 327 327 326 325 324 321 317 314 312 308 300 295
320 324 321 321 312 322 321 319 317 317 316 316 314 314 314 312 313 314 314 313 313 316 321 322 324 326 328 330 331 332 332 333 333 332 330 328 324 324 327 325 324 322 316 315 312 308 301 294 293
321 319 322 323 329 326 322 323 322 317 317 317 316 314 315 314 313 311 310 310 310 310 311 314 318 320 322 326 328 330 330 330 330 330 329 326 323 324 324 323 321 318 310 310 308 300 295 292 291
319 320 320 322 322 324 324 321 316 318 316 315 311 310 310 311 311 311 311 310 309 308 309 310 312 315 317 320 325 327 327 327 327 329 327 324 323 322 321 321 319 312 307 304 302 296 293 291 291
318 319 319 323 322 321 322 322 312 312 311 310 310 310 311 311 312 311 311 310 309 309 309 309 311 312 313 315 318 324 324 325 324 326 325 324 324 321 319 320 313 309 305 301 297 293 291 291 290

GFSSGP_925_thetae_114.txt.gz
Theta_e
319 320 320 322 329 329 333 331 328 329 331 331 332 335 339 339 343 346 336 339 339 339 337 335 331 328 332 331 332 333 335 336 336 334 332 330 331 331 330 329 328 327 328 327 327 327 326 326 326
319 320 321 325 328 334 331 328 329 332 330 332 333 333 338 341 336 336 336 339 339 337 338 334 329 330 331 331 330 332 333 335 334 333 331 330 330 331 329 329 328 328 327 327 325 325 325 325 324
318 318 323 328 330 331 328 327 332 331 330 332 333 333 336 340 336 335 337 339 338 338 337 331 330 329 328 330 329 330 331 330 331 331 330 329 331 330 329 329 328 328 327 326 325 324 325 324 319
318 321 322 325 330 325 323 324 331 330 328 330 331 336 335 336 336 336 337 338 338 338 336 329 330 331 329 329 330 333 329 330 329 330 329 331 330 329 328 327 327 327 326 326 325 324 322 319 315
318 323 327 328 329 324 320 320 328 331 328 330 330 334 337 334 335 335 337 337 338 336 332 327 327 332 332 328 329 331 333 330 328 329 330 329 329 327 326 326 327 327 325 325 325 324 319 316 316
323 324 328 330 328 322 321 324 325 329 329 330 329 333 336 334 335 335 337 337 337 335 333 326 329 333 334 330 325 328 332 332 327 324 326 328 328 327 325 326 326 326 325 325 322 318 317 316 316
324 327 327 326 328 323 322 326 328 328 328 329 328 333 336 335 335 335 335 335 335 335 333 329 330 333 334 333 328 327 330 330 329 327 326 326 325 325 325 325 325 325 325 320 318 318 317 317 317
320 325 328 326 327 326 324 326 322 326 329 328 329 331 337 335 336 336 336 335 335 335 334 332 330 330 332 333 330 324 328 330 330 325 323 325 324 323 323 322 321 319 318 317 317 317 317 317 318
321 324 329 328 328 325 324 325 322 323 328 328 329 331 334 334 336 335 335 335 336 335 336 333 330 330 329 331 330 325 323 327 329 323 325 326 326 325 326 320 318 317 317 318 318 318 322 322 322
324 326 328 325 321 320 323 324 322 324 326 328 329 335 335 335 335 334 333 333 334 335 336 334 332 330 329 327 328 327 323 325 327 325 328 326 326 324 317 317 317 318 318 318 319 321 323 323 323
323 325 327 323 319 319 319 320 322 323 324 325 328 334 334 333 334 334 333 331 332 333 334 335 332 330 329 326 327 326 324 328 327 328 328 327 324 323 322 323 322 321 322 323 324 323 323 322 323
323 324 324 319 317 318 319 318 319 320 322 320 323 333 332 333 333 333 332 330 331 331 333 333 335 330 328 328 327 322 325 326 327 328 327 326 325 325 324 325 325 325 325 325 325 324 324 324 324
324 326 327 318 316 317 317 318 318 318 319 320 329 333 331 332 332 334 332 331 330 330 332 332 335 331 328 328 327 325 324 325 326 327 326 325 324 324 325 325 326 325 325 326 326 326 326 325 324
322 323 321 317 318 318 319 320 317 319 318 320 329 330 331 331 332 334 333 332 331 329 330 331 333 332 329 327 326 326 325 323 322 323 324 325 325 324 325 325 326 326 326 326 326 325 323 323 323
322 323 320 318 318 320 319 322 318 317 319 320 324 328 330 331 332 333 334 332 332 330 329 330 331 332 331 327 326 324 324 324 323 324 325 324 325 325 326 326 326 326 326 325 324 324 324 322 321
322 324 324 322 321 319 321 326 325 321 317 319 320 324 331 331 332 334 335 333 333 332 330 328 330 330 331 329 326 325 324 324 325 326 326 324 325 325 325 326 326 326 326 326 325 325 321 320 320
326 329 327 328 323 321 319 327 325 322 317 318 318 321 328 331 332 334 335 334 334 332 330 330 328 328 330 330 327 325 325 324 325 326 326 326 326 325 326 325 325 325 325 324 323 321 320 320 320
333 330 329 328 327 323 322 320 322 317 316 318 318 318 325 328 330 333 334 333 333 332 330 329 329 327 329 330 328 327 326 325 325 326 327 327 326 324 323 324 322 322 321 321 321 320 320 320 321
330 330 331 328 322 322 322 324 324 322 315 315 316 316 321 328 328 331 332 333 333 329 325 325 328 328 329 330 328 328 327 326 326 327 328 327 326 324 323 323 322 321 321 321 321 322 321 320 321
330 330 331 329 316 317 321 323 322 322 323 321 315 315 316 321 324 329 330 331 333 333 330 324 324 326 327 328 328 328 327 326 326 328 329 328 327 324 324 323 323 321 321 322 323 323 322 320 319
330 331 329 331 321 321 322 324 325 325 321 318 317 315 315 317 322 325 329 331 333 333 333 331 324 324 324 327 327 327 327 327 328 329 330 329 326 325 325 325 324 324 323 323 323 323 323 321 321
330 328 328 328 328 332 322 328 327 326 326 323 318 313 312 313 318 321 328 330 332 333 333 333 331 324 324 325 326 327 328 329 330 329 329 328 326 325 325 325 325 325 324 324 324 324 324 321 320
328 326 327 322 325 325 328 327 325 324 325 324 323 317 314 312 314 319 323 328 330 333 333 334 333 329 325 325 326 328 330 330 330 330 331 330 327 326 325 325 326 326 325 325 324 325 323 320 320
319 320 320 320 325 330 327 327 326 325 323 323 323 320 318 315 312 316 322 326 329 331 333 334 334 333 330 326 326 328 330 330 330 330 331 330 329 327 326 326 326 326 325 325 325 325 321 319 318
321 325 326 330 329 330 319 325 326 322 320 321 320 317 315 316 313 312 317 323 326 329 332 333 333 333 333 332 329 328 331 331 331 331 331 330 329 329 327 326 326 327 326 326 325 323 319 317 316
324 324 323 326 327 324 312 322 323 322 319 314 313 314 314 310 313 312 313 320 325 327 329 330 332 333 333 333 333 331 331 332 331 331 332 331 330 329 327 327 326 326 327 326 325 320 317 315 311
322 326 320 318 308 318 318 317 317 317 314 311 310 311 312 310 309 312 313 315 322 326 327 328 330 330 331 332 333 333 332 332 332 332 332 332 331 330 328 327 326 326 325 325 322 317 314 312 305
321 319 324 322 321 323 321 321 320 316 316 314 312 312 311 310 309 308 308 310 311 315 320 325 327 329 329 330 331 332 333 332 332 332 332 332 330 329 329 326 325 325 324 322 318 312 309 307 299
320 322 322 322 322 322 322 318 312 316 314 313 307 307 308 308 308 307 307 309 309 309 309 311 319 323 324 326 328 329 330 332 332 332 331 330 329 328 327 325 323 323 322 318 313 309 305 301 295
318 322 320 324 322 319 319 318 310 308 308 308 308 308 309 309 308 308 309 309 309 309 309 308 309 311 314 318 320 324 327 329 330 330 329 328 328 327 325 324 320 319 317 314 309 307 302 297 293

GFSSGP_925_thetae_117.txt.gz
Theta_e
320 321 320 321 322 322 327 329 325 327 329 330 331 334 340 338 342 342 338 340 336 336 336 332 327 331 332 333 335 335 335 334 335 331 330 331 331 331 329 328 328 328 328 327 327 326 326 325 324
320 319 321 319 322 327 326 327 331 329 329 330 330 333 337 340 335 334 339 338 336 336 334 328 327 329 330 330 332 334 334 331 331 330 331 331 330 330 328 328 327 327 327 326 326 326 325 324 322
319 319 318 323 324 327 325 330 329 329 329 331 331 332 335 338 334 335 339 338 336 337 332 327 328 329 329 330 332 333 330 329 332 329 329 329 329 329 329 328 327 327 326 325 325 324 322 319 320
318 319 316 320 324 322 321 329 327 327 327 328 331 336 333 334 335 338 338 338 338 337 329 329 328 328 329 327 329 328 329 330 329 328 328 330 329 328 327 328 327 326 326 325 324 322 317 319 319
318 317 322 324 324 320 317 322 327 327 327 329 329 336 336 334 335 338 337 338 338 334 327 330 331 328 330 330 333 330 329 328 329 327 329 328 327 327 327 327 325 326 326 325 324 320 316 318 319
319 318 323 326 325 320 319 322 323 326 327 328 332 335 333 333 335 336 337 338 337 330 326 329 332 331 328 330 330 332 329 327 326 325 328 327 326 326 326 327 326 326 325 324 320 316 316 317 319
322 324 324 324 323 319 323 323 325 325 327 328 325 338 333 334 334 336 337 337 335 331 323 329 333 332 327 325 329 332 331 328 325 323 325 325 325 325 325 325 326 325 320 318 317 317 317 318 320
317 321 327 323 324 323 324 323 321 324 329 327 327 337 335 333 333 336 336 335 334 333 325 328 332 333 332 326 328 329 329 329 325 322 323 322 321 321 320 318 318 318 317 317 317 317 319 321 322
320 320 326 326 326 323 323 322 321 321 326 327 328 331 332 335 335 335 335 335 335 333 329 326 329 332 332 329 325 328 327 330 323 319 321 321 322 323 320 317 317 317 317 317 319 322 322 323 322
325 322 324 321 318 320 322 321 321 323 326 328 334 333 333 335 335 335 335 335 335 334 332 331 328 329 330 330 324 324 326 328 324 326 326 325 324 319 317 317 318 318 318 319 322 322 322 323 323
321 326 324 318 317 317 318 319 319 321 324 325 332 334 333 334 333 334 334 335 335 335 334 332 329 329 328 329 328 322 323 325 325 327 327 326 325 317 318 317 318 321 322 323 323 322 322 322 322
322 321 321 319 316 317 317 316 317 318 320 318 331 333 333 334 334 333 333 332 333 333 335 333 331 329 329 325 325 325 324 327 326 328 327 326 322 323 324 324 323 324 324 324 324 323 324 324 324
322 322 324 316 315 315 315 317 316 316 315 322 333 332 330 331 332 333 332 332 331 332 334 334 331 329 329 326 326 322 326 327 327 328 326 325 324 324 324 324 325 325 325 325 325 325 325 324 323
321 321 320 315 315 316 318 317 316 317 313 329 333 330 329 330 331 333 332 330 330 330 332 333 334 330 328 327 327 324 324 324 326 325 325 324 324 323 324 325 325 325 325 325 325 325 323 323 322
321 322 321 316 317 319 316 319 316 316 316 327 329 329 328 329 331 331 333 330 329 330 329 331 334 331 328 327 327 326 325 323 323 324 323 324 324 323 324 324 326 325 325 325 324 323 323 320 320
321 322 322 319 317 318 318 324 321 316 315 316 324 327 329 329 330 331 333 331 330 329 329 329 332 332 331 327 326 325 324 323 323 322 323 324 325 325 325 326 326 325 325 324 325 324 320 319 320
324 326 325 325 319 319 318 323 322 318 314 315 314 322 329 329 330 331 332 333 331 330 330 328 330 332 331 329 326 325 324 323 323 323 325 324 324 324 324 325 325 325 324 325 324 323 320 319 319
329 329 327 327 323 318 318 319 319 318 314 314 313 315 329 330 330 331 332 334 332 332 331 331 328 331 331 330 328 326 324 324 323 325 326 326 324 325 325 326 324 324 323 323 321 320 319 319 319
326 327 328 324 322 322 322 320 318 318 315 313 313 313 323 329 330 331 332 333 333 332 331 330 330 328 330 330 328 327 325 325 324 325 326 326 326 325 324 324 323 323 322 321 320 321 321 319 320
329 329 330 326 318 321 320 321 319 319 320 313 313 313 312 324 323 329 331 333 333 333 332 330 330 329 327 329 330 328 326 325 325 324 325 326 327 326 323 323 322 321 321 321 321 321 323 320 319
327 330 330 331 316 318 321 321 322 321 319 318 315 313 313 313 325 325 328 331 332 331 331 329 328 328 327 325 329 329 328 326 326 325 327 327 328 327 325 323 323 322 321 321 321 322 323 321 319
328 326 327 323 325 330 320 326 322 323 322 321 316 312 312 312 317 324 327 329 330 332 329 326 325 326 326 325 326 328 327 326 326 325 325 328 328 328 327 324 324 324 323 323 322 322 323 323 320
325 324 322 323 323 325 326 326 322 320 322 322 322 315 312 310 312 317 326 328 329 330 332 331 325 323 324 325 326 327 326 326 325 326 326 328 329 329 327 324 324 324 324 324 323 324 324 323 321
318 321 321 321 324 330 326 327 325 323 323 321 319 321 317 311 308 312 322 327 328 329 331 332 331 326 323 323 324 325 325 325 327 328 328 328 328 328 327 325 325 325 325 325 324 323 322 323 322
322 326 328 329 330 327 321 325 327 320 319 318 319 316 316 312 309 310 312 320 325 329 330 331 332 331 326 324 324 324 325 326 327 328 329 329 329 329 328 327 325 325 325 325 325 325 324 324 321
324 324 320 323 325 321 313 323 321 320 320 317 316 316 313 309 311 309 309 317 323 327 330 331 331 332 332 328 324 324 325 327 327 328 328 329 329 329 329 328 326 326 326 326 326 325 325 323 319
323 326 316 315 303 314 316 315 314 315 316 311 309 309 310 309 308 311 309 313 320 324 327 330 332 332 332 333 331 327 325 326 328 329 329 329 329 330 330 329 328 327 326 326 327 326 325 322 316
321 319 324 317 318 320 318 317 317 315 315 313 312 310 309 308 307 305 305 308 313 321 325 327 329 330 331 332 332 332 330 329 328 329 330 330 330 330 331 330 329 328 327 326 326 325 324 318 314
321 323 321 320 317 319 318 317 312 312 315 313 309 307 305 305 305 305 306 308 308 308 310 317 325 327 328 329 331 331 331 331 331 330 330 331 331 331 331 330 327 327 327 324 324 324 320 314 312
319 322 321 323 322 317 316 316 309 308 308 305 306 307 306 305 305 306 307 308 308 309 309 308 308 311 319 324 327 328 329 330 331 331 331 330 331 331 331 328 327 327 326 323 321 321 316 311 309

GFSSGP_925_thetae_123.txt.gz
Theta_e
320 320 319 320 323 320 325 326 324 328 332 330 332 335 336 335 335 332 336 337 335 335 334 335 336 336 336 334 333 332 331 334 333 331 329 329 328 328 327 328 328 328 327 327 327 327 327 328 329
319 320 320 314 322 325 325 325 326 328 332 332 332 334 335 338 333 337 338 335 335 336 332 333 334 334 334 334 333 332 332 333 333 331 330 328 328 327 327 327 327 327 327 326 327 327 327 327 326
319 318 317 320 320 324 325 328 329 329 329 329 334 332 334 336 335 337 337 335 336 333 328 331 332 333 333 333 332 331 332 330 332 330 329 328 327 327 327 326 326 326 325 325 326 326 326 326 325
318 317 313 320 324 322 327 328 327 325 326 329 332 336 332 332 334 337 336 336 334 329 327 328 329 329 331 333 331 330 330 329 329 331 329 328 328 326 327 326 326 325 325 325 325 325 325 325 326
317 315 320 321 323 320 325 326 323 326 327 330 331 336 335 333 336 338 336 335 332 328 328 329 329 330 331 331 329 329 329 327 326 327 328 327 327 326 327 326 326 326 325 324 324 321 321 321 322
317 315 322 327 323 319 322 324 324 325 326 330 332 334 334 334 338 337 336 335 331 325 327 328 327 328 331 329 330 329 328 326 326 326 328 327 327 326 327 326 326 325 324 323 319 319 320 320 320
320 318 322 322 321 318 319 317 324 324 325 326 330 333 331 331 337 337 337 335 330 326 328 328 328 329 329 328 330 329 328 326 323 325 326 326 326 326 326 325 325 322 318 317 318 319 320 320 321
315 321 323 321 321 321 321 320 320 325 327 324 329 331 332 331 337 337 337 334 331 326 329 329 329 330 331 330 329 328 327 324 321 324 325 325 325 325 324 323 319 316 316 317 319 320 321 321 321
315 319 324 325 321 321 320 321 319 321 325 330 331 327 328 332 337 336 336 332 329 327 328 331 329 329 329 332 329 327 325 324 321 323 323 322 321 321 321 319 317 316 317 319 321 321 321 321 321
319 319 322 322 319 321 320 321 321 325 327 330 332 330 330 333 335 334 333 331 329 327 328 332 332 327 326 329 331 329 326 324 321 321 320 319 319 318 317 317 316 316 318 321 321 321 322 322 321
322 322 321 319 315 318 319 319 318 323 326 324 328 330 330 333 334 334 333 332 330 327 327 330 332 331 327 327 329 328 328 323 319 319 320 320 320 317 317 317 317 317 319 321 321 321 321 321 322
323 320 322 319 315 315 318 317 319 321 321 319 324 329 330 331 332 334 334 333 332 329 328 326 329 331 330 327 327 327 328 323 321 323 323 322 318 317 317 318 318 320 321 321 321 321 322 322 322
320 320 321 320 317 315 313 315 316 315 314 320 328 330 330 331 332 333 333 334 333 331 330 328 326 327 329 328 325 325 326 325 324 324 325 324 322 317 317 317 320 322 323 323 323 323 323 323 322
323 320 322 317 314 314 314 315 314 315 319 327 329 329 329 329 330 331 332 333 333 332 331 331 330 327 326 327 327 324 322 323 324 325 325 325 325 321 322 322 322 323 323 324 324 324 324 322 322
326 324 320 317 314 315 316 317 316 314 325 328 329 327 328 329 330 331 332 332 333 332 332 332 332 330 329 328 326 325 324 321 323 324 325 325 325 321 322 323 323 324 324 324 324 324 322 322 319
324 323 327 320 316 316 316 321 318 314 326 327 327 326 326 327 329 330 332 333 333 332 333 333 332 331 329 329 328 323 321 322 321 324 325 325 325 323 323 323 323 324 324 324 324 324 322 320 318
318 324 324 324 316 317 317 319 317 315 321 323 325 326 327 326 327 329 331 332 332 331 332 332 333 333 331 330 328 326 325 321 320 322 323 324 324 323 323 322 323 324 324 324 324 323 323 320 319
322 324 323 325 320 317 317 315 316 317 314 314 317 324 326 327 326 328 329 330 331 330 330 331 332 334 332 329 328 327 327 326 325 323 322 322 323 322 323 323 323 324 325 324 324 324 323 321 318
320 322 323 321 320 318 319 317 316 315 314 313 310 311 322 326 327 327 328 329 330 330 330 330 330 332 333 331 329 327 326 326 325 325 323 321 321 321 323 324 324 324 325 324 324 323 323 320 319
324 325 324 322 321 319 321 321 317 315 316 315 315 310 309 315 322 326 327 328 328 329 330 329 329 328 330 332 331 328 326 326 325 325 324 323 322 322 323 323 323 323 324 324 324 323 322 320 319
323 324 324 325 319 317 319 321 320 316 316 316 315 315 312 311 312 321 326 327 328 328 330 330 329 328 329 329 330 330 326 324 325 324 324 323 322 322 324 324 323 323 324 324 324 322 321 320 320
325 321 325 326 322 326 319 326 323 320 319 317 318 315 315 311 310 314 324 327 328 328 328 330 330 328 329 329 328 329 328 325 324 325 325 324 322 322 323 325 324 324 324 324 323 322 320 320 321
323 322 325 323 321 323 325 328 323 319 320 319 319 318 317 314 311 312 321 325 327 328 328 329 330 329 328 328 328 328 328 327 326 326 326 325 324 323 323 324 324 325 325 323 323 321 320 320 320
319 321 321 320 322 328 324 325 322 321 320 319 318 316 316 315 311 310 315 322 326 328 328 328 329 329 329 329 329 328 328 327 327 326 326 325 325 324 324 323 323 325 326 326 323 322 321 321 321
322 324 327 329 328 324 317 321 321 318 318 318 319 317 313 313 311 309 308 318 323 326 328 328 328 328 328 329 328 329 328 327 327 326 325 324 324 324 324 324 324 324 326 326 326 324 323 322 322
323 323 320 324 323 319 317 323 320 318 318 317 314 313 312 311 310 309 308 312 321 324 327 328 327 326 327 328 328 328 328 327 326 325 324 324 324 323 323 323 323 324 325 326 326 326 325 323 323
323 325 315 314 300 313 316 314 313 312 313 312 312 313 313 311 307 308 307 308 314 322 325 327 327 327 325 326 326 326 327 326 325 324 324 324 323 323 323 323 323 323 324 325 326 326 326 325 324
321 320 322 316 315 318 316 315 317 314 317 315 313 313 314 309 306 303 304 307 309 312 319 324 326 327 328 327 324 323 324 324 324 324 324 324 324 324 324 324 324 325 325 325 326 326 325 324 324
321 323 320 318 314 317 315 315 310 315 314 314 314 311 309 307 305 302 302 304 307 311 314 319 324 326 326 327 328 325 324 323 323 323 323 323 323 324 324 325 326 326 326 327 327 326 326 325 324
320 321 322 324 321 314 313 316 309 310 310 312 312 309 306 304 302 302 302 304 305 306 313 319 321 324 326 327 328 328 329 328 327 325 324 324 324 324 325 326 326 327 327 328 327 327 325 323 322

GFSSGP_925_thetae_129.txt.gz
Theta_e
322 321 320 319 328 325 326 326 323 329 331 331 329 327 330 332 333 332 334 336 336 331 335 335 337 336 335 333 333 331 331 331 329 330 327 329 329 328 327 327 327 330 328 328 331 329 326 324 324
320 320 320 317 327 329 327 322 325 327 334 331 332 332 333 337 333 334 336 336 334 332 335 336 337 335 333 332 331 331 331 330 330 328 327 329 328 328 327 327 327 328 327 327 326 326 325 324 325
319 318 320 321 321 327 327 323 323 330 331 330 335 331 332 336 333 335 336 336 334 333 335 336 336 334 332 331 332 332 331 331 330 328 328 328 327 327 327 326 327 327 327 326 326 325 325 325 325
318 316 315 323 325 321 323 325 328 333 327 329 331 336 331 332 334 336 336 335 335 333 334 334 334 334 333 332 332 333 331 332 330 328 327 327 326 326 326 325 326 326 326 326 326 325 325 325 325
317 315 322 324 322 320 318 324 327 329 327 330 329 333 334 331 333 336 335 335 334 331 330 332 332 333 332 331 331 332 331 331 329 328 327 327 326 325 325 325 325 326 325 325 326 326 325 324 320
318 316 326 329 325 320 319 324 323 325 326 331 332 333 333 331 335 337 334 335 331 326 327 328 330 331 332 331 331 330 330 329 327 327 327 326 326 325 325 325 325 325 325 325 325 323 321 319 319
319 320 324 326 323 320 323 321 323 325 327 330 329 333 330 333 334 337 334 334 328 326 326 327 328 331 332 330 330 328 327 326 323 322 326 325 325 325 325 325 325 325 325 325 322 320 320 320 320
316 318 321 320 320 321 316 321 320 324 325 326 326 330 330 331 335 336 335 332 328 327 326 327 329 331 331 330 330 328 327 324 322 324 325 324 324 324 324 323 324 325 324 320 320 320 321 321 320
313 320 323 324 320 320 317 320 319 321 328 326 327 325 325 332 335 335 334 331 329 328 328 327 328 330 329 329 329 328 327 325 322 323 324 324 324 324 322 321 321 320 319 320 320 321 320 321 321
317 320 321 321 318 320 319 320 321 325 328 328 329 328 328 333 334 332 332 330 330 330 329 328 328 329 328 329 329 328 326 323 320 320 322 323 323 322 319 318 317 317 319 320 320 321 321 320 321
317 320 318 319 315 315 319 318 320 324 327 325 326 328 329 332 332 332 331 330 330 330 329 328 328 329 330 329 329 328 326 324 320 319 318 318 318 318 318 316 316 317 319 320 320 321 321 321 321
323 320 321 320 314 315 318 316 318 322 323 318 321 326 329 331 332 331 330 330 331 330 328 329 328 328 328 329 330 328 326 325 320 318 318 318 317 317 316 316 316 317 319 320 319 320 321 321 321
320 321 319 319 319 318 313 316 318 318 317 319 321 327 330 331 331 330 331 332 333 331 328 327 329 329 328 327 329 329 328 326 322 317 317 319 319 317 317 317 317 317 320 320 320 320 321 322 321
321 318 320 319 315 313 315 314 312 314 314 323 326 327 328 330 331 330 332 332 332 332 330 326 328 329 329 327 327 328 328 326 324 319 319 320 320 317 316 317 317 318 320 321 322 322 323 322 322
324 326 323 319 319 317 313 316 314 313 316 319 324 325 325 327 328 329 331 332 332 332 332 328 328 328 328 328 328 327 327 326 325 322 322 322 322 322 317 318 319 320 321 322 323 323 323 323 321
325 326 331 327 313 315 316 330 317 312 317 317 320 323 324 325 327 329 331 332 332 332 333 331 329 328 328 327 327 327 326 325 325 324 322 323 323 323 323 320 321 321 322 322 323 323 323 322 321
317 322 327 329 314 315 315 321 316 313 317 316 316 320 323 324 325 328 329 330 332 332 333 332 330 329 328 327 327 325 325 325 324 323 322 322 323 323 323 322 320 321 322 322 323 323 323 323 321
324 322 321 326 323 314 316 316 313 313 313 316 314 315 319 322 324 325 327 329 330 331 332 333 332 330 329 328 328 327 327 327 326 324 323 322 322 323 324 323 322 322 322 322 323 323 323 323 321
318 320 320 319 320 316 316 316 316 314 313 314 313 312 312 315 319 322 324 327 329 330 331 331 332 331 330 329 328 328 328 328 327 326 323 322 322 323 324 324 323 322 322 322 322 323 323 323 321
324 324 323 320 319 319 320 320 319 315 314 314 315 315 313 312 312 318 322 325 327 329 330 331 331 331 331 331 330 329 329 329 329 328 326 325 322 321 322 322 322 322 322 322 322 323 323 322 322
326 327 325 324 321 318 317 319 318 315 315 316 313 316 316 315 314 312 318 322 326 327 328 329 330 331 331 331 330 329 328 327 328 328 327 327 325 324 323 322 322 321 321 322 322 323 323 322 322
326 322 324 325 326 326 317 322 319 311 314 315 315 314 315 315 313 314 312 319 323 325 326 328 329 330 329 329 330 328 327 326 327 327 328 328 327 326 325 323 322 321 321 321 322 322 322 323 321
324 321 323 323 325 324 323 326 323 317 317 315 315 314 314 314 314 314 312 314 318 320 324 326 327 328 328 328 329 328 328 328 327 327 328 328 329 328 326 325 323 322 321 321 322 323 322 322 322
319 321 321 321 323 328 326 325 320 318 318 317 317 316 315 313 313 313 314 313 314 318 321 323 325 326 327 327 328 328 328 328 327 327 327 327 327 327 326 325 324 323 322 321 321 322 323 323 322
322 322 326 327 325 327 313 322 323 314 313 316 316 315 313 312 313 312 311 310 312 315 319 322 323 325 325 326 326 328 328 328 327 327 327 326 326 326 326 326 325 325 324 323 322 322 322 323 323
324 323 325 326 324 320 314 320 318 314 315 315 312 312 310 311 310 310 311 311 311 314 317 321 323 324 325 325 326 326 328 327 327 327 327 327 327 327 328 328 327 326 325 324 323 322 322 322 322
322 325 316 315 299 312 314 314 312 311 312 313 313 312 312 311 310 310 309 310 311 311 315 319 322 323 324 325 325 325 326 327 327 327 327 327 327 328 328 328 326 325 325 324 323 322 322 322 322
321 320 324 318 323 319 316 313 317 313 313 313 313 314 314 310 308 308 307 309 310 310 312 317 321 323 324 325 325 325 326 326 327 327 327 327 327 327 327 326 325 324 323 323 323 323 323 322 322
321 323 321 321 319 321 315 316 308 313 313 312 311 311 309 308 307 307 306 308 307 308 309 313 319 322 323 324 325 325 325 326 326 326 327 326 327 326 326 325 324 323 323 323 323 323 323 322 323
318 320 320 323 319 315 314 321 308 308 308 308 308 307 306 305 305 305 304 304 303 305 307 310 317 321 323 323 323 324 325 325 325 325 326 326 325 324 324 323 323 323 322 323 323 323 323 322 321

GFSSGP_925_thetae_132.txt.gz
Theta_e
324 323 321 325 335 332 334 332 329 333 333 332 330 330 332 334 335 337 336 338 337 336 337 338 336 337 335 334 332 331 331 331 330 329 329 328 329 329 329 328 329 329 332 332 327 325 325 326 325
321 321 324 327 335 337 335 328 330 333 336 334 333 334 335 337 336 336 336 338 337 336 337 339 337 335 333 333 331 330 330 330 329 329 327 328 328 328 328 328 329 328 329 327 326 325 326 326 325
320 319 330 332 333 335 334 328 329 335 334 335 336 335 335 338 336 336 338 338 337 337 338 339 336 334 333 332 331 331 330 329 328 328 327 327 328 327 326 327 329 327 328 326 326 325 326 325 325
321 324 325 332 334 328 328 329 330 336 332 332 335 336 335 335 336 337 338 338 337 338 339 336 335 333 331 332 333 331 331 330 329 329 328 328 327 325 325 326 326 326 326 326 326 325 326 325 323
321 325 333 334 332 325 322 328 332 336 332 334 334 333 337 335 335 338 338 337 337 337 336 337 334 333 332 332 333 331 330 330 328 327 326 326 325 325 325 326 325 325 325 325 326 325 324 320 319
329 325 335 338 334 325 324 330 333 332 331 334 334 334 336 334 336 338 337 338 336 334 335 336 334 333 332 331 333 332 330 327 327 327 326 325 325 325 325 326 325 325 326 326 326 325 323 319 320
330 332 335 334 334 328 327 329 331 331 331 333 333 333 334 336 336 337 337 336 334 332 332 333 334 333 332 332 332 331 329 327 325 326 326 325 325 325 324 325 325 326 326 325 324 321 320 320 320
324 329 331 330 332 332 326 328 326 329 331 329 332 331 329 335 335 336 336 335 332 331 331 331 332 333 334 333 330 329 328 325 323 326 325 324 324 324 324 324 324 325 324 322 320 320 320 320 320
319 331 333 333 328 327 321 328 324 325 331 332 332 330 329 335 334 335 335 334 333 331 331 331 332 333 334 334 331 328 327 325 322 324 324 323 324 325 324 324 323 322 320 320 320 320 320 320 321
325 329 330 327 325 325 323 324 326 329 331 332 332 332 331 336 335 333 333 333 332 330 330 330 331 332 333 333 332 331 329 327 325 325 325 325 325 324 324 322 319 319 319 320 320 320 320 321 322
323 325 326 324 320 319 322 323 326 328 331 330 331 331 332 335 336 334 333 333 331 330 330 330 331 331 332 332 332 331 330 328 326 325 325 325 325 323 322 321 320 320 320 322 322 321 322 323 323
326 323 324 323 317 319 323 322 325 327 327 325 327 329 333 335 334 333 333 332 333 332 330 330 331 331 332 332 332 331 329 328 326 325 324 323 323 323 322 321 321 321 321 322 322 322 323 323 323
328 326 323 323 322 322 317 322 324 324 326 321 321 328 333 334 334 333 333 332 333 333 331 330 330 331 331 332 331 331 329 327 326 324 323 322 322 321 321 321 320 320 321 322 323 322 323 323 323
324 324 326 323 321 318 319 322 317 320 319 322 325 327 331 333 333 333 332 332 334 333 333 330 330 330 330 330 330 330 330 328 326 324 322 322 323 322 321 320 320 320 321 322 323 323 324 324 323
324 327 326 326 327 325 317 323 320 322 318 320 324 327 330 332 332 332 332 334 333 333 333 331 329 330 330 330 330 330 329 328 326 324 322 322 322 321 320 320 320 320 322 323 324 324 324 324 322
328 328 331 328 323 324 323 333 328 322 319 322 321 324 328 330 331 331 332 332 333 334 333 332 330 328 330 329 330 329 329 328 327 325 324 323 322 322 320 319 320 321 323 323 324 324 324 324 322
325 332 330 329 321 321 322 332 330 322 318 321 323 322 323 326 328 329 331 332 332 333 333 332 331 330 329 330 330 329 329 328 327 326 324 324 324 323 323 322 321 322 323 323 324 324 324 324 323
332 328 326 328 325 320 326 325 326 320 319 322 323 321 321 324 325 326 329 330 331 332 332 332 332 331 330 330 330 329 328 328 327 326 325 324 324 324 324 324 323 322 323 323 324 324 324 324 323
325 324 325 322 323 322 324 324 323 323 322 322 323 322 321 321 321 323 326 328 330 331 332 332 333 332 331 330 330 329 328 328 327 327 326 325 324 324 324 324 324 324 323 323 324 324 325 324 321
325 326 324 323 321 322 324 325 324 323 322 322 323 324 323 321 321 319 321 325 327 329 331 331 332 332 331 330 330 329 329 329 329 328 327 326 324 324 324 324 325 324 324 323 323 323 324 324 321
326 325 325 325 324 324 323 326 325 323 321 321 322 322 323 325 324 324 321 321 325 327 329 330 331 332 332 331 330 329 329 329 328 328 327 326 326 324 323 322 324 324 324 323 323 323 324 324 322
327 323 324 324 323 329 322 330 325 322 320 318 319 320 320 321 323 323 323 322 323 325 328 329 330 331 331 331 331 330 328 328 329 329 328 327 327 326 325 323 323 324 323 323 323 323 323 324 323
325 323 324 324 325 325 323 327 323 322 323 322 321 321 319 318 318 318 319 320 320 324 326 328 329 330 331 331 331 330 330 330 330 330 329 328 327 327 326 326 324 324 323 323 323 323 323 323 323
322 324 324 325 326 329 324 324 323 323 323 322 321 321 320 319 318 318 318 318 318 318 324 327 328 329 329 330 331 331 330 330 331 330 329 328 328 326 325 325 324 324 324 323 323 322 323 323 323
324 325 329 331 329 324 319 324 324 322 321 319 320 320 319 319 319 319 319 318 317 317 320 324 326 327 328 329 329 330 330 330 330 330 330 329 328 326 325 325 325 325 325 324 323 323 322 322 322
324 323 325 325 327 323 318 324 323 321 321 321 319 318 317 317 317 317 317 317 318 317 317 321 323 324 326 327 328 329 330 330 330 330 330 328 328 327 326 326 326 325 324 323 323 323 322 322 322
324 325 321 320 309 321 321 320 318 318 317 316 316 317 317 318 317 316 315 315 316 316 316 318 321 323 324 326 326 327 328 329 329 329 329 329 328 327 326 326 325 325 324 324 323 323 323 322 321
322 320 324 321 329 326 321 321 320 318 317 318 317 317 316 316 314 314 314 314 314 314 315 316 319 321 323 325 325 326 327 328 328 328 328 328 328 327 325 325 325 325 325 324 323 322 322 321 321
322 324 321 323 324 328 325 322 318 319 318 317 315 314 313 312 311 311 311 311 311 310 310 312 316 320 322 324 325 325 326 326 327 327 327 327 327 327 326 325 325 325 324 323 322 322 322 321 321
319 321 321 324 323 321 321 321 316 316 314 312 314 314 311 308 308 309 310 308 309 308 307 307 313 318 321 323 324 325 325 326 325 326 326 326 326 326 325 325 324 324 323 322 321 322 322 322 322

GFSSGP_925_thetae_135.txt.gz
Theta_e
323 324 324 329 335 335 336 335 332 333 333 332 331 331 333 334 336 344 339 339 338 338 339 338 337 338 335 333 331 332 332 330 331 330 329 329 328 328 328 327 329 332 330 327 326 326 326 326 325
322 324 326 332 335 338 337 332 332 333 337 333 332 332 333 339 337 337 338 339 338 337 337 339 337 336 334 331 329 330 330 329 330 330 329 328 327 327 329 327 328 331 329 326 326 327 326 326 325
323 322 332 335 337 338 337 331 332 336 335 335 335 334 335 339 337 338 339 338 337 337 338 339 336 334 333 331 330 329 328 328 328 328 328 328 327 327 328 328 328 328 326 326 327 326 325 325 325
325 329 331 334 336 334 332 331 332 336 334 334 335 335 335 336 337 338 339 338 337 337 338 336 335 333 332 332 331 330 330 328 328 327 328 327 327 326 327 326 326 327 327 327 326 325 326 324 320
327 330 336 338 337 331 326 330 332 335 334 334 334 333 335 337 338 339 338 338 338 338 338 337 334 333 331 333 332 331 329 329 327 327 326 326 326 326 326 326 325 325 326 326 326 325 321 320 319
331 331 335 338 337 331 325 330 332 333 332 334 334 332 335 337 339 338 338 338 337 337 336 337 334 333 332 333 333 330 328 327 327 327 325 326 325 325 326 325 325 325 325 327 326 322 320 320 320
330 332 335 336 336 334 329 331 332 332 332 333 332 330 335 337 338 338 338 338 337 336 334 336 336 334 332 332 333 331 328 327 327 326 326 325 325 324 325 325 325 325 325 323 322 321 321 320 320
327 329 333 332 334 335 329 331 330 331 331 331 332 330 330 335 338 338 337 337 336 333 332 332 333 334 334 333 332 331 328 326 323 326 325 324 324 324 324 324 325 325 325 322 320 320 321 320 320
325 329 332 333 333 333 326 331 328 328 331 332 333 331 331 337 336 337 336 335 335 333 331 330 331 332 333 333 333 330 328 325 323 326 324 323 324 323 323 325 324 324 322 320 320 320 320 320 320
326 329 330 330 331 330 326 326 328 330 330 332 333 332 332 337 336 336 335 335 335 334 331 330 331 331 333 333 331 331 330 328 325 325 324 325 325 325 325 325 323 322 320 320 320 320 320 323 323
326 328 327 328 327 324 326 325 325 327 328 328 331 333 333 336 335 335 334 334 335 335 332 330 331 331 332 332 331 331 330 328 327 326 325 326 325 325 324 323 322 322 319 322 321 320 323 324 323
327 325 325 325 320 322 324 326 326 327 327 327 328 330 333 337 336 335 334 334 335 335 333 331 330 331 331 332 331 330 330 329 328 326 325 325 325 325 323 323 322 322 321 324 324 324 324 324 324
328 326 326 325 322 323 322 323 326 327 327 324 323 329 333 334 335 335 334 334 334 335 334 333 331 331 331 332 331 330 330 330 328 326 325 324 324 324 324 323 322 322 322 323 324 323 324 324 324
327 327 327 326 325 323 323 324 321 324 325 326 326 327 329 332 333 334 334 333 333 334 334 334 332 332 331 332 332 331 331 330 329 327 324 324 323 323 323 322 322 322 322 323 324 324 324 324 323
326 328 327 327 326 326 323 326 325 323 320 322 324 326 327 329 331 333 333 333 333 334 334 334 332 332 332 332 331 331 330 330 329 327 325 323 323 324 322 322 322 322 322 323 324 325 324 324 323
328 328 331 328 328 327 326 326 327 326 324 323 323 325 326 328 330 331 332 332 332 333 334 334 333 332 332 332 331 331 331 330 329 328 326 324 324 323 323 321 321 321 322 324 324 324 324 324 323
329 331 330 328 328 327 327 326 325 328 328 326 325 326 326 326 328 329 330 332 332 333 333 334 334 332 332 332 331 331 330 330 329 328 326 325 325 324 323 322 321 322 323 324 324 324 324 324 323
331 331 329 330 329 327 327 327 325 326 325 327 328 328 328 326 325 326 328 330 331 332 333 333 334 333 332 332 332 331 331 330 329 328 327 325 325 325 325 324 324 323 323 324 324 324 324 324 324
328 328 330 327 324 325 327 327 326 325 324 324 325 327 328 326 324 324 325 327 330 332 332 332 333 333 333 332 332 332 331 330 330 329 328 326 325 325 325 325 324 324 323 324 324 324 324 323 323
324 326 328 326 323 325 326 327 326 326 325 325 324 323 323 326 326 324 323 326 328 330 331 332 332 333 333 334 333 332 331 331 330 329 329 328 326 325 325 325 325 325 324 324 324 324 324 323 323
322 326 325 327 325 325 325 327 326 326 325 325 324 324 322 322 325 326 324 322 325 327 329 331 332 333 333 333 333 332 331 330 331 330 330 329 328 326 325 324 325 325 325 325 324 324 324 323 322
325 325 326 326 326 327 323 329 326 325 326 326 324 323 323 323 322 322 326 326 323 326 328 329 331 332 333 333 333 332 331 331 331 331 331 330 329 328 326 325 325 325 326 325 325 324 324 324 323
323 323 325 326 326 326 325 326 324 323 323 323 323 323 323 321 322 322 322 323 324 325 325 328 329 331 332 333 333 333 332 331 331 330 331 331 330 328 327 326 326 325 326 326 325 324 324 324 324
323 325 325 325 325 332 324 325 324 323 322 322 323 323 323 323 322 321 320 319 319 319 322 327 329 330 331 332 333 333 332 332 331 331 332 332 331 330 328 327 326 326 326 326 325 324 324 324 324
325 326 329 331 331 326 321 322 323 321 322 322 322 321 321 320 320 320 319 320 320 320 320 322 327 329 330 331 332 333 333 332 331 332 332 332 332 330 329 327 327 326 326 326 326 325 324 324 324
326 325 325 328 329 324 320 323 321 321 321 321 321 321 321 319 319 319 318 318 318 319 320 320 322 325 327 329 331 332 333 333 332 331 331 332 332 330 330 328 327 327 326 326 326 325 325 325 324
325 327 322 324 316 323 321 320 319 320 320 319 318 318 319 318 316 316 315 315 316 316 318 320 321 323 325 327 329 330 331 332 332 332 331 331 331 331 330 328 327 327 326 326 326 325 325 324 324
322 321 325 324 327 324 319 319 319 319 319 318 319 318 317 315 314 314 315 313 313 314 314 316 317 320 323 324 326 328 329 330 331 331 331 331 331 330 329 328 327 327 326 326 326 325 325 324 323
322 324 322 322 324 324 322 320 318 319 319 317 316 316 315 312 312 313 314 313 312 311 311 312 314 316 319 322 324 326 327 328 329 330 331 331 330 330 329 328 327 327 326 326 325 325 324 323 323
320 321 322 323 325 324 323 324 318 318 317 315 315 315 313 310 312 312 312 313 313 312 311 309 310 312 316 320 323 325 326 327 328 328 329 329 330 329 329 328 326 326 326 326 325 324 322 321 323

GFSSGP_925_thetae_141.txt.gz
Theta_e
324 326 325 325 328 330 335 332 328 329 332 328 328 329 335 336 343 343 338 337 339 335 338 339 337 334 332 330 329 330 330 329 328 329 328 330 329 327 330 330 327 327 328 327 326 326 326 326 327
324 325 325 324 329 334 332 331 337 334 330 328 330 332 333 340 337 337 338 339 338 335 337 338 336 333 330 328 329 328 328 328 327 328 328 329 328 329 334 331 327 327 328 326 325 325 327 326 326
324 325 322 329 331 334 332 334 334 333 331 331 333 331 336 339 335 337 338 338 338 336 335 337 335 332 328 328 328 328 328 329 328 328 328 328 330 327 330 329 327 327 327 326 325 325 326 324 321
325 324 322 329 332 329 327 332 332 333 332 331 332 335 334 335 336 338 338 337 337 338 337 335 334 331 329 327 327 326 327 328 328 327 329 327 329 328 329 326 325 326 326 325 326 325 322 317 318
324 321 326 332 334 325 324 329 331 333 331 332 332 334 337 338 338 338 338 337 338 338 337 335 333 331 330 328 328 326 328 328 328 327 328 326 327 326 326 326 325 326 325 327 325 324 318 317 316
321 322 327 330 333 325 325 327 330 330 330 330 330 334 337 338 338 338 338 337 337 336 336 335 333 332 331 330 328 326 326 326 325 326 326 326 326 326 325 325 326 325 327 326 325 320 318 316 315
324 326 330 330 331 331 328 327 329 329 330 331 329 335 336 336 338 337 338 337 336 336 336 334 333 332 332 332 329 326 325 325 325 325 325 324 325 325 324 324 325 326 326 326 322 318 318 317 316
320 322 329 327 328 331 328 328 327 327 331 329 329 332 337 335 338 337 337 336 336 336 335 334 332 332 332 332 330 327 326 324 326 324 325 324 323 324 324 323 324 324 325 323 319 319 318 318 317
321 322 326 328 329 328 328 329 326 326 329 329 329 329 331 337 337 337 337 335 337 336 336 335 332 332 331 331 331 329 327 323 324 325 324 323 323 323 323 323 323 324 322 320 319 319 319 318 318
321 322 325 324 324 324 324 325 326 327 327 330 330 335 336 337 336 336 336 336 336 334 334 334 333 332 331 331 332 330 328 324 323 324 323 322 322 321 322 323 323 324 322 319 319 318 319 321 322
323 323 323 323 321 319 321 321 322 326 326 324 330 336 335 336 336 335 334 334 335 333 332 332 333 333 332 331 331 331 328 326 323 322 322 321 324 323 323 324 324 323 321 318 319 319 318 322 322
327 324 323 323 319 320 321 320 320 322 322 323 324 334 334 333 334 334 334 334 334 333 332 331 330 332 333 330 330 329 329 327 325 324 322 324 324 324 324 324 324 322 319 318 320 322 322 323 323
325 324 325 324 321 321 321 322 322 320 318 320 328 332 334 333 333 335 335 334 334 333 333 332 330 331 332 332 330 330 329 328 327 326 325 324 325 325 325 324 322 317 317 318 323 323 323 323 323
324 325 325 324 323 322 323 321 321 320 319 319 322 328 330 333 332 333 334 333 333 334 334 333 331 331 331 333 331 330 329 329 328 327 326 325 325 325 324 322 323 322 320 321 322 323 323 323 322
325 326 324 324 324 324 322 323 322 319 318 319 318 319 323 328 333 333 333 333 333 333 334 333 332 330 331 332 332 330 329 329 328 328 327 326 325 325 324 323 323 322 322 321 322 322 323 323 323
326 326 328 325 324 324 324 328 322 319 318 319 317 316 319 321 328 334 334 334 334 333 334 334 332 331 330 331 331 331 330 329 328 328 328 327 325 324 324 323 323 322 322 321 321 322 323 324 323
327 328 327 326 324 324 323 326 323 321 319 318 316 315 315 318 320 329 333 334 334 334 333 334 333 333 331 330 331 332 331 330 329 329 329 328 327 324 323 323 322 322 321 321 321 322 323 323 323
330 330 329 328 324 323 325 325 322 321 321 319 320 318 318 317 318 324 329 332 333 333 333 331 334 333 333 332 331 331 332 331 331 330 330 329 327 326 322 323 323 322 321 321 321 321 322 324 324
324 323 324 322 323 324 323 322 322 321 320 319 318 319 320 321 322 323 326 329 332 333 332 332 331 333 333 332 332 331 331 331 331 330 330 329 328 327 325 322 323 322 321 321 321 321 323 324 324
326 327 325 322 324 325 324 325 322 321 320 319 319 318 316 318 318 320 322 326 330 332 332 332 332 333 333 333 332 331 331 331 331 330 330 329 329 328 326 324 322 323 321 320 321 321 323 323 324
324 326 324 324 323 324 326 326 324 321 320 320 320 320 320 317 317 315 317 321 327 330 331 331 332 332 333 333 332 331 331 331 331 330 329 329 329 328 327 326 324 323 323 322 321 323 323 323 323
324 321 322 324 324 326 324 327 322 319 318 317 319 320 320 320 319 318 316 317 320 327 329 330 331 331 332 333 332 331 331 331 331 331 330 329 329 329 328 326 325 324 323 323 323 323 322 323 322
323 320 321 323 325 325 323 323 319 318 319 318 316 317 318 319 319 318 316 319 320 320 326 328 330 331 332 332 332 332 331 331 331 331 330 329 329 329 329 327 326 325 324 324 323 323 323 322 322
321 322 323 325 324 327 322 323 320 318 318 317 317 315 315 313 312 313 315 315 317 318 320 325 328 329 331 331 332 332 332 332 331 330 329 329 329 328 329 328 327 325 325 324 324 324 323 323 323
323 325 327 327 328 324 320 323 320 317 317 316 317 314 312 310 310 310 310 311 313 314 316 318 322 326 329 330 331 331 332 332 331 330 329 329 329 328 328 328 327 326 326 325 324 324 323 323 323
325 324 324 326 326 321 317 324 321 317 316 316 315 313 310 309 309 309 309 311 312 313 313 313 316 319 322 327 329 331 331 331 331 331 330 329 329 329 329 329 328 328 327 326 325 324 324 323 323
324 325 319 318 306 315 317 317 316 316 315 314 313 310 309 309 309 310 311 311 312 312 312 312 312 312 316 319 321 328 330 331 332 331 331 330 329 329 329 329 329 328 327 327 326 325 324 324 324
322 320 324 323 323 320 316 317 316 317 315 313 312 310 310 308 309 309 309 310 311 312 312 312 312 311 311 312 316 319 322 326 330 331 331 331 330 330 329 329 330 329 328 327 326 325 325 324 324
323 324 323 322 320 320 317 315 311 313 313 313 311 309 309 308 309 309 310 311 310 310 311 312 311 311 311 310 310 314 318 322 324 328 331 331 331 331 330 330 330 330 328 328 326 326 326 325 324
318 322 322 325 323 318 316 317 312 312 311 311 310 310 309 309 310 310 311 309 308 309 310 310 311 311 312 311 310 310 311 315 320 323 327 330 331 331 331 330 330 330 329 328 327 326 325 325 325

GFSSGP_925_thetae_144.txt.gz
Theta_e
324 324 325 326 326 328 332 330 328 330 330 327 327 331 333 337 342 337 337 337 336 337 339 338 337 335 331 330 330 330 328 329 329 328 331 331 329 330 330 328 328 329 327 326 326 325 326 327 327
324 324 325 322 329 333 330 333 336 333 329 327 329 331 335 342 336 336 337 338 336 336 339 338 335 332 329 329 329 329 328 330 330 328 330 328 327 333 331 328 327 328 326 326 326 326 325 327 326
325 324 322 326 328 332 330 335 332 332 330 330 331 331 335 339 334 337 338 338 335 336 338 337 333 330 328 328 328 328 327 327 329 328 329 329 327 334 330 328 326 326 326 326 326 325 326 324 325
324 322 320 327 332 329 328 333 331 332 331 331 331 336 333 335 336 337 338 338 336 335 336 336 332 329 328 327 327 327 329 328 329 329 328 330 326 328 327 327 326 325 325 325 325 325 320 321 323
322 319 325 328 330 324 325 330 329 331 330 332 330 335 337 337 336 337 338 337 336 335 335 335 332 329 328 326 325 326 328 329 327 328 327 328 328 328 326 325 325 325 325 325 325 321 316 316 318
321 320 327 330 330 325 325 328 329 330 329 331 329 336 336 337 337 337 337 337 337 337 336 334 332 330 328 327 325 326 327 328 327 327 326 327 326 325 326 326 326 325 326 325 324 318 316 315 317
322 324 329 329 328 329 326 325 326 327 329 330 326 338 335 336 337 337 337 337 337 336 335 334 332 331 330 329 326 325 326 326 325 326 326 326 326 325 324 325 326 325 326 325 319 318 317 316 319
317 320 328 326 326 329 327 327 325 326 329 328 326 334 336 334 337 337 337 337 336 335 335 335 332 331 331 330 327 325 324 325 325 325 325 324 325 325 324 324 325 325 325 323 319 318 317 317 318
318 321 326 327 327 326 326 328 325 325 328 328 328 328 330 337 337 337 336 336 336 335 335 334 332 331 331 332 329 327 325 324 325 324 324 323 323 324 323 323 324 324 323 320 318 318 318 317 318
319 320 323 323 322 322 320 322 324 326 327 329 333 334 335 337 336 336 336 335 336 336 336 334 333 331 331 331 331 329 327 325 324 324 324 323 322 323 323 322 323 324 322 319 318 318 318 320 321
320 322 321 322 319 320 321 321 318 325 325 325 330 335 333 334 335 334 335 335 335 336 336 335 333 331 331 331 331 330 328 326 323 323 323 323 322 321 322 323 323 323 323 319 318 318 318 322 321
326 322 322 323 320 321 321 320 321 321 321 320 321 333 334 333 333 333 334 335 335 334 334 334 333 333 331 330 330 330 330 328 325 322 322 322 321 323 321 322 323 323 322 319 318 318 318 321 323
325 324 323 323 321 320 320 321 321 320 318 316 324 334 333 333 333 334 334 335 334 334 333 332 332 332 332 331 330 330 330 329 327 325 322 321 321 323 323 323 323 323 322 319 318 321 322 322 323
323 324 323 323 323 321 322 321 321 319 318 318 327 331 332 332 332 333 334 334 334 333 333 332 331 330 332 332 331 330 330 329 328 326 324 323 323 324 324 324 324 323 319 317 317 322 322 323 323
324 325 323 324 324 323 321 323 320 318 317 317 316 323 328 331 332 332 333 333 334 333 333 333 331 330 330 331 331 331 330 329 329 327 327 326 324 324 325 324 324 322 321 318 319 321 322 322 323
325 325 327 324 323 323 323 328 322 319 318 318 317 314 317 325 331 333 332 333 332 332 331 332 333 331 330 330 331 332 331 330 329 328 328 327 326 325 324 325 324 322 322 321 321 321 322 322 322
327 331 326 326 323 323 323 325 322 319 319 319 316 315 313 317 319 330 333 333 333 332 331 331 333 333 331 330 330 331 331 330 330 329 328 327 328 327 325 324 324 323 323 322 321 321 321 322 323
331 328 328 326 324 322 323 323 320 319 319 318 316 316 315 312 314 320 326 332 333 333 333 332 332 334 332 330 330 330 331 331 330 330 329 328 328 328 326 325 323 323 322 322 321 321 320 322 322
324 325 326 322 322 324 323 323 321 319 318 318 317 316 316 317 317 318 320 323 330 332 333 333 332 333 332 330 329 329 330 330 330 331 331 329 329 329 328 326 324 322 322 322 321 321 321 321 321
324 326 328 322 321 324 324 324 321 320 320 320 319 318 316 315 315 317 320 322 326 330 332 332 333 332 333 331 330 330 330 330 330 331 331 331 330 329 328 327 326 324 322 322 321 321 321 321 321
326 326 325 326 322 323 324 325 322 321 319 319 319 318 318 318 318 317 316 319 322 328 330 331 332 332 331 332 331 331 331 330 330 330 330 330 330 330 329 328 327 326 323 322 322 321 320 320 321
327 322 323 323 325 326 322 326 321 318 319 319 319 319 319 319 318 318 318 316 316 323 327 330 331 331 331 331 331 331 331 330 330 330 330 329 329 330 329 328 328 327 325 323 321 321 320 320 321
323 319 321 322 325 324 325 325 320 316 317 317 316 315 314 315 316 316 315 316 317 316 321 327 329 330 330 331 331 331 330 331 330 330 330 330 329 329 329 328 328 327 326 324 323 322 321 320 321
318 320 321 321 325 327 322 324 320 316 317 316 315 311 313 312 311 310 312 313 314 316 318 319 326 328 329 330 331 331 331 330 330 330 330 329 329 328 329 328 328 327 326 325 324 324 322 321 321
321 322 326 327 327 325 319 322 320 314 314 314 315 313 309 308 307 308 308 308 311 311 313 315 319 324 327 329 330 331 331 331 330 330 330 329 329 328 328 328 328 327 326 325 324 323 323 322 321
324 323 325 327 326 324 317 322 320 316 315 313 313 311 309 308 308 308 307 309 310 311 311 311 311 312 313 318 325 329 330 331 330 331 330 329 329 329 328 328 328 328 327 325 324 323 323 323 322
323 326 321 318 306 315 318 317 314 313 315 312 310 309 309 309 309 308 308 309 310 310 311 311 311 311 311 310 310 314 320 327 329 330 330 330 330 329 329 328 328 328 327 326 325 324 324 323 323
323 321 324 321 325 323 318 316 318 315 313 312 309 309 309 309 309 308 307 309 308 309 309 310 310 309 309 310 310 310 311 315 321 328 330 330 330 330 329 329 329 328 328 328 326 325 325 324 324
324 323 323 322 316 320 316 314 309 313 312 311 309 308 308 308 309 308 307 306 306 307 307 307 307 308 308 308 309 309 309 310 311 316 322 327 330 330 329 329 328 328 328 328 327 326 326 325 325
315 320 317 324 323 316 315 315 311 310 309 308 308 308 307 309 309 308 304 303 303 303 304 305 305 305 304 305 305 307 309 308 309 309 311 316 323 328 329 329 329 328 328 328 327 326 326 325 325

GFSSGP_925_thetae_147.txt.gz
Theta_e
328 324 325 325 326 325 330 330 326 330 329 326 327 330 332 336 337 333 336 337 336 337 340 340 339 339 333 331 330 329 330 329 330 332 332 329 332 330 329 328 328 327 326 326 326 327 326 326 326
326 325 325 321 329 331 329 331 329 332 327 329 331 331 335 339 336 336 337 337 334 337 339 338 336 332 330 329 329 328 329 329 329 333 331 329 330 331 329 328 327 326 326 326 325 327 326 325 325
325 324 322 325 326 330 330 333 331 330 329 328 330 332 335 338 334 336 336 337 336 338 338 337 334 330 328 329 329 329 328 329 329 330 330 327 333 331 329 327 326 326 325 325 324 326 326 324 324
323 321 318 327 332 328 328 332 330 331 330 330 329 335 333 335 335 337 337 336 336 338 338 336 332 328 328 327 328 328 326 328 328 329 330 326 335 331 328 327 326 325 326 325 325 325 324 324 324
322 317 323 327 328 325 325 330 328 330 330 331 330 334 336 336 336 337 337 337 335 337 337 335 331 328 328 327 327 328 330 327 330 326 329 328 329 330 328 325 326 325 324 325 325 323 320 321 323
321 319 327 330 329 325 323 329 329 329 328 329 330 334 335 335 336 337 338 337 335 334 336 335 331 329 327 325 324 327 329 328 328 327 328 329 328 327 327 326 325 324 324 325 322 317 316 316 322
321 323 327 328 328 327 324 323 328 328 329 329 327 334 334 335 336 337 338 337 336 335 335 334 332 329 328 326 323 325 327 329 326 327 326 328 326 325 326 325 324 324 325 325 320 317 316 316 322
317 320 326 325 326 327 325 325 324 327 329 324 329 330 333 335 336 336 337 336 337 336 335 334 332 330 329 328 325 325 326 325 326 326 325 326 326 325 324 324 326 325 323 323 318 317 316 317 320
315 321 325 327 327 326 320 326 323 324 328 328 329 328 330 336 336 336 337 337 337 336 335 334 333 331 330 330 327 324 324 325 324 325 325 324 325 324 323 323 325 325 325 323 318 317 317 317 319
319 321 323 322 322 322 320 322 319 325 327 328 330 333 333 336 335 335 336 336 337 336 335 335 334 332 331 331 330 327 325 324 323 323 324 323 323 324 323 322 323 323 324 323 318 318 317 317 318
319 322 320 322 319 319 321 321 318 324 324 323 328 331 332 334 334 334 334 335 336 336 335 335 334 332 331 331 331 329 327 326 324 323 323 322 322 322 323 322 322 322 323 321 319 318 318 320 321
325 322 321 323 319 320 321 320 321 320 321 320 318 328 332 331 332 332 333 335 335 335 335 335 334 333 332 331 331 331 329 327 326 323 323 323 322 321 321 322 322 322 322 323 319 318 318 320 321
324 323 322 322 320 320 319 320 320 319 317 315 319 330 331 332 333 333 334 335 335 334 334 335 335 334 332 331 330 331 330 329 328 325 323 322 322 321 321 320 321 322 322 322 321 318 318 318 321
323 323 323 322 323 322 321 320 319 319 317 317 325 329 330 331 332 332 333 333 334 334 334 335 335 334 333 332 331 330 330 330 329 328 326 323 322 321 321 322 321 322 323 323 322 318 318 321 322
324 325 322 322 323 323 319 322 320 318 317 317 315 314 326 329 332 332 333 333 333 333 334 334 333 332 332 332 332 331 330 330 329 329 327 326 323 321 321 323 323 323 323 323 320 319 317 321 322
325 323 328 324 322 322 322 327 322 319 317 318 317 314 312 319 330 332 332 333 332 332 333 333 333 332 331 330 331 332 331 331 330 329 328 327 326 324 323 323 324 323 324 323 321 318 318 320 321
325 329 325 325 320 322 322 325 321 317 318 317 315 315 314 312 315 326 331 332 332 331 332 332 332 332 332 330 330 330 331 331 331 330 329 329 327 327 326 325 324 324 324 323 321 321 320 321 321
331 327 326 325 323 322 323 323 319 318 318 317 316 314 315 314 313 316 319 327 331 332 332 332 331 331 332 332 329 329 330 330 331 331 330 329 328 327 327 326 326 325 324 324 323 322 321 321 320
325 325 325 322 322 322 322 322 321 319 317 317 317 317 316 316 316 318 319 317 322 328 331 332 331 331 330 331 329 329 329 329 330 330 330 330 330 329 328 327 327 326 325 323 322 322 322 321 320
326 328 327 323 321 324 323 324 322 320 320 319 319 319 319 317 314 316 319 319 319 319 325 330 331 331 331 330 330 329 329 329 330 329 330 330 330 330 329 328 327 327 326 324 322 322 320 320 320
324 324 325 327 322 322 324 324 321 318 318 318 318 318 318 318 318 318 316 319 320 319 322 327 329 331 331 331 330 329 329 329 329 329 329 329 330 330 330 330 328 327 327 325 324 322 321 320 320
326 321 322 323 325 327 319 324 319 316 315 315 315 316 316 316 316 317 316 317 318 318 318 322 327 329 330 331 330 330 329 329 329 329 329 329 329 330 330 330 330 328 327 325 325 324 322 320 319
322 319 321 321 322 324 325 325 320 316 317 316 314 313 311 312 314 313 313 316 317 317 316 318 321 327 329 330 330 330 329 330 330 330 329 329 329 329 329 329 329 328 327 326 325 324 322 320 319
318 319 320 321 324 326 320 323 320 317 315 314 313 311 309 309 309 309 309 311 311 312 315 315 321 326 328 329 329 330 330 329 329 330 330 330 329 329 329 329 329 328 327 326 325 324 323 322 320
320 322 326 326 326 325 316 321 320 315 313 313 313 311 308 306 306 306 305 306 308 309 310 310 312 313 317 324 327 329 330 330 329 329 329 329 329 329 329 329 328 328 327 326 325 324 324 323 321
322 322 323 324 324 321 317 322 319 315 315 315 311 310 308 308 306 305 305 306 307 307 308 309 309 308 309 309 309 311 320 328 329 329 329 329 329 329 329 329 329 328 328 327 325 324 324 323 322
320 325 320 319 307 316 318 316 314 313 312 312 310 308 308 308 306 305 304 304 304 305 306 306 306 306 306 307 309 309 308 309 311 320 327 329 329 329 329 328 328 328 328 328 326 324 324 323 323
322 320 323 322 325 325 318 316 318 314 314 310 308 308 308 307 305 304 302 302 302 303 303 304 302 301 303 304 305 305 306 307 308 309 310 314 322 328 329 329 329 328 328 328 327 325 324 324 323
322 319 317 321 320 322 317 315 309 311 311 310 309 307 307 306 303 301 300 300 301 301 301 301 299 298 298 299 301 302 303 304 304 305 306 307 309 312 320 326 328 328 327 327 326 326 325 325 324
316 318 318 321 324 320 316 317 308 307 309 309 307 310 307 302 300 299 299 299 298 298 299 298 298 296 296 297 297 298 298 299 300 301 302 303 304 306 309 312 320 325 326 326 326 327 326 326 325